[[{"header":{"parameterUnit":"m.s-1","parameterCategory":1,"la1":30.6,"la2":28.766,"lo1":-90.7593,"lo2":-88.6598,"dx":0.0162,"dy":0.0183,"nx":116,"ny":114,"refTime":"2023-01-31T18:00:00:Z","depth":0,"parameterNumber":2,"parameterNumberName":"U-component_of_WINDS"},"data":[0.0,0.0,0.0,0.0,0.0,0.0,0.0,0.0,0.0,0.0,0.0,0.0,0.0,0.0,0.0,0.0,0.0,0.0,0.0,0.0,0.0,0.0,0.0,0.0,0.0,0.0,0.0,0.0,0.0,0.0,0.0,0.0,0.0,0.0,0.0,0.0,0.0,0.0,0.0,0.0,0.0,0.0,0.0,0.0,0.0,0.0,0.0,0.0,0.0,0.0,0.0,0.0,0.0,0.0,0.0,0.0,0.0,0.0,0.0,0.0,0.0,0.0,0.0,0.0,0.0,0.0,0.0,0.0,0.0,0.0,0.0,0.0,0.0,0.0,0.0,0.0,0.0,0.0,0.0,0.0,0.0,0.0,0.0,0.0,0.0,0.0,0.0,0.0,0.0,0.0,0.0,0.0,0.0,0.0,0.0,0.0,0.0,0.0,0.0,0.0,0.0,0.0,0.0,0.0,0.0,0.0,0.0,0.0,0.0,0.0,0.0,0.0,0.0,0.0,0.0,0.0,0.0,0.0,0.0,0.0,0.0,0.0,0.0,0.0,0.0,0.0,0.0,0.0,0.0,0.0,0.0,0.0,0.0,0.0,0.0,0.0,0.0,0.0,0.0,0.0,0.0,0.0,0.0,0.0,0.0,0.0,0.0,0.0,0.0,0.0,0.0,0.0,0.0,0.0,0.0,0.0,0.0,0.0,0.0,0.0,0.0,0.0,0.0,0.0,0.0,0.0,0.0,0.0,0.0,0.0,0.0,0.0,0.0,0.0,0.0,0.0,0.0,0.0,0.0,0.0,0.0,0.0,0.0,0.0,0.0,0.0,0.0,0.0,0.0,0.0,0.0,0.0,0.0,0.0,0.0,0.0,0.0,0.0,0.0,0.0,0.0,0.0,0.0,0.0,0.0,0.0,0.0,0.0,0.0,0.0,0.0,0.0,0.0,0.0,0.0,0.0,0.0,0.0,0.0,0.0,0.0,0.0,0.0,0.0,0.0,0.0,0.0,0.0,0.0,0.0,0.0,0.0,0.0,0.0,0.0,0.0,0.0,0.0,0.0,0.0,0.0,0.0,0.0,0.0,0.0,0.0,0.0,0.0,0.0,0.0,0.0,0.0,0.0,0.0,0.0,0.0,0.0,0.0,0.0,0.0,0.0,0.0,0.0,0.0,0.0,0.0,0.0,0.0,0.0,0.0,0.0,0.0,0.0,0.0,0.0,0.0,0.0,0.0,0.0,0.0,0.0,0.0,0.0,0.0,0.0,0.0,0.0,0.0,0.0,0.0,0.0,0.0,0.0,0.0,0.0,0.0,0.0,0.0,0.0,0.0,0.0,0.0,0.0,0.0,0.0,0.0,0.0,0.0,0.0,0.0,0.0,0.0,0.0,0.0,0.0,0.0,0.0,0.0,0.0,0.0,0.0,0.0,0.0,0.0,0.0,0.0,0.0,0.0,0.0,0.0,0.0,0.0,0.0,0.0,0.0,0.0,0.0,0.0,0.0,0.0,0.0,0.0,0.0,0.0,0.0,0.0,0.0,0.0,0.0,0.0,0.0,0.0,0.0,0.0,0.0,0.0,0.0,0.0,0.0,0.0,0.0,0.0,0.0,0.0,0.0,0.0,0.0,0.0,0.0,0.0,0.0,0.0,0.0,0.0,0.0,0.0,0.0,0.0,0.0,0.0,0.0,0.0,0.0,0.0,0.0,0.0,0.0,0.0,0.0,0.0,0.0,0.0,0.0,0.0,0.0,0.0,0.0,0.0,0.0,0.0,0.0,0.0,0.0,0.0,0.0,0.0,0.0,0.0,0.0,0.0,0.0,0.0,0.0,0.0,0.0,0.0,0.0,0.0,0.0,0.0,0.0,0.0,0.0,0.0,0.0,0.0,0.0,0.0,0.0,0.0,0.0,0.0,0.0,0.0,0.0,0.0,0.0,0.0,0.0,0.0,0.0,0.0,0.0,0.0,0.0,0.0,0.0,0.0,0.0,0.0,0.0,0.0,0.0,0.0,0.0,0.0,0.0,0.0,0.0,0.0,0.0,0.0,0.0,0.0,0.0,0.0,0.0,0.0,0.0,0.0,0.0,0.0,0.0,0.0,0.0,0.0,0.0,0.0,0.0,0.0,0.0,0.0,0.0,0.0,0.0,0.0,0.0,0.0,0.0,0.0,0.0,0.0,0.0,0.0,0.0,0.0,0.0,0.0,0.0,0.0,0.0,0.0,0.0,0.0,0.0,0.0,0.0,0.0,0.0,0.0,0.0,0.0,0.0,0.0,0.0,0.0,0.0,0.0,0.0,0.0,0.0,0.0,0.0,0.0,0.0,0.0,0.0,0.0,0.0,0.0,0.0,0.0,0.0,0.0,0.0,0.0,0.0,0.0,0.0,0.0,0.0,0.0,0.0,0.0,0.0,0.0,0.0,0.0,0.0,0.0,0.0,0.0,0.0,0.0,0.0,0.0,0.0,0.0,0.0,0.0,0.0,0.0,0.0,0.0,0.0,0.0,0.0,0.0,0.0,0.0,0.0,0.0,0.0,0.0,0.0,0.0,0.0,0.0,0.0,0.0,0.0,0.0,0.0,0.0,0.0,0.0,0.0,0.0,0.0,0.0,0.0,0.0,0.0,0.0,0.0,0.0,0.0,0.0,0.0,0.0,0.0,0.0,0.0,0.0,0.0,0.0,0.0,0.0,0.0,0.0,0.0,0.0,0.0,0.0,0.0,0.0,0.0,0.0,0.0,0.0,0.0,0.0,0.0,0.0,0.0,0.0,0.0,0.0,0.0,0.0,0.0,0.0,0.0,0.0,0.0,0.0,0.0,0.0,0.0,0.0,0.0,0.0,0.0,0.0,0.0,0.0,0.0,0.0,0.0,0.0,0.0,0.0,0.0,0.0,0.0,0.0,0.0,0.0,0.0,0.0,0.0,0.0,0.0,0.0,0.0,0.0,0.0,0.0,0.0,0.0,0.0,0.0,0.0,0.0,0.0,0.0,0.0,0.0,0.0,0.0,0.0,0.0,0.0,0.0,0.0,0.0,0.0,0.0,0.0,0.0,0.0,0.0,0.0,0.0,0.0,0.0,0.0,0.0,0.0,0.0,0.0,0.0,0.0,0.0,0.0,0.0,0.0,0.0,0.0,0.0,0.0,0.0,0.0,0.0,0.0,0.0,0.0,0.0,0.0,0.0,0.0,0.0,0.0,0.0,0.0,0.0,0.0,0.0,0.0,0.0,0.0,0.0,0.0,0.0,0.0,0.0,0.0,0.0,0.0,0.0,0.0,0.0,0.0,0.0,0.0,0.0,0.0,0.0,0.0,0.0,0.0,0.0,0.0,0.0,0.0,0.0,0.0,0.0,0.0,0.0,0.0,0.0,0.0,0.0,0.0,0.0,0.0,0.0,0.0,0.0,0.0,0.0,0.0,0.0,0.0,0.0,0.0,0.0,0.0,0.0,0.0,0.0,0.0,0.0,0.0,0.0,0.0,0.0,0.0,0.0,0.0,0.0,0.0,0.0,0.0,0.0,0.0,0.0,0.0,0.0,0.0,0.0,0.0,0.0,0.0,0.0,0.0,0.0,0.0,0.0,0.0,0.0,0.0,0.0,0.0,0.0,0.0,0.0,0.0,0.0,0.0,0.0,0.0,0.0,0.0,0.0,0.0,0.0,0.0,0.0,0.0,0.0,0.0,0.0,0.0,0.0,0.0,0.0,0.0,0.0,0.0,0.0,0.0,0.0,0.0,0.0,0.0,0.0,0.0,0.0,0.0,0.0,0.0,0.0,0.0,0.0,0.0,0.0,0.0,0.0,0.0,0.0,0.0,0.0,0.0,0.0,0.0,0.0,0.0,0.0,0.0,0.0,0.0,0.0,0.0,0.0,0.0,0.0,0.0,0.0,0.0,0.0,0.0,0.0,0.0,0.0,0.0,0.0,0.0,0.0,0.0,0.0,0.0,0.0,0.0,0.0,0.0,0.0,0.0,0.0,0.0,0.0,0.0,0.0,0.0,0.0,0.0,0.0,0.0,0.0,0.0,0.0,0.0,0.0,0.0,0.0,0.0,0.0,0.0,0.0,0.0,0.0,0.0,0.0,0.0,0.0,0.0,0.0,0.0,0.0,0.0,0.0,0.0,0.0,0.0,0.0,0.0,0.0,0.0,0.0,0.0,0.0,0.0,0.0,0.0,0.0,0.0,0.0,0.0,0.0,0.0,0.0,0.0,0.0,0.0,0.0,0.0,0.0,0.0,0.0,0.0,0.0,0.0,0.0,0.0,0.0,0.0,0.0,0.0,0.0,0.0,0.0,0.0,0.0,0.0,0.0,0.0,0.0,0.0,0.0,0.0,0.0,0.0,0.0,0.0,0.0,0.0,0.0,0.0,0.0,0.0,0.0,0.0,0.0,0.0,0.0,0.0,0.0,0.0,0.0,0.0,0.0,0.0,0.0,0.0,0.0,0.0,0.0,0.0,0.0,0.0,0.0,0.0,0.0,0.0,0.0,0.0,0.0,0.0,0.0,0.0,0.0,0.0,0.0,0.0,0.0,0.0,0.0,0.0,0.0,0.0,0.0,0.0,0.0,0.0,0.0,0.0,0.0,0.0,0.0,0.0,0.0,0.0,0.0,0.0,0.0,0.0,0.0,0.0,0.0,0.0,0.0,0.0,0.0,0.0,0.0,0.0,0.0,0.0,0.0,0.0,0.0,0.0,0.0,0.0,0.0,0.0,0.0,0.0,0.0,0.0,0.0,0.0,0.0,0.0,0.0,0.0,0.0,0.0,0.0,0.0,0.0,0.0,0.0,0.0,0.0,0.0,0.0,0.0,0.0,0.0,0.0,0.0,0.0,0.0,0.0,0.0,0.0,0.0,0.0,0.0,0.0,0.0,0.0,0.0,0.0,0.0,0.0,0.0,0.0,0.0,0.0,0.0,0.0,0.0,0.0,0.0,0.0,0.0,0.0,0.0,0.0,0.0,0.0,0.0,0.0,0.0,0.0,0.0,0.0,0.0,0.0,0.0,0.0,0.0,0.0,0.0,0.0,0.0,0.0,0.0,0.0,0.0,0.0,0.0,0.0,0.0,0.0,0.0,0.0,0.0,0.0,0.0,0.0,0.0,0.0,0.0,0.0,0.0,0.0,0.0,0.0,0.0,0.0,0.0,0.0,0.0,0.0,0.0,0.0,0.0,0.0,0.0,0.0,0.0,0.0,0.0,0.0,0.0,0.0,0.0,0.0,0.0,0.0,0.0,0.0,0.0,0.0,0.0,0.0,0.0,0.0,0.0,0.0,0.0,0.0,0.0,0.0,0.0,0.0,0.0,0.0,0.0,0.0,0.0,0.0,0.0,0.0,0.0,0.0,0.0,0.0,0.0,0.0,0.0,0.0,0.0,0.0,0.0,0.0,0.0,0.0,0.0,0.0,0.0,0.0,0.0,0.0,0.0,0.0,0.0,0.0,0.0,0.0,0.0,0.0,0.0,0.0,0.0,0.0,0.0,0.0,0.0,0.0,0.0,0.0,0.0,0.0,0.0,0.0,0.0,0.0,0.0,0.0,0.0,0.0,0.0,0.0,0.0,0.0,0.0,0.0,0.0,0.0,0.0,0.0,0.0,0.0,0.0,0.0,0.0,0.0,0.0,0.0,0.0,0.0,0.0,0.0,0.0,0.0,0.0,0.0,0.0,0.0,0.0,0.0,0.0,0.0,0.0,0.0,0.0,0.0,0.0,0.0,0.0,0.0,0.0,0.0,0.0,0.0,0.0,0.0,0.0,0.0,0.0,0.0,0.0,0.0,0.0,0.0,0.0,0.0,0.0,0.0,0.0,0.0,0.0,0.0,0.0,0.0,0.0,0.0,0.0,0.0,0.0,0.0,0.0,0.0,0.0,0.0,0.0,0.0,0.0,0.0,0.0,0.0,0.0,0.0,0.0,0.0,0.0,0.0,0.0,0.0,0.0,0.0,0.0,0.0,0.0,0.0,0.0,0.0,0.0,0.0,0.0,0.0,0.0,0.0,0.0,0.0,0.0,0.0,0.0,0.0,0.0,0.0,0.0,0.0,0.0,0.0,0.0,0.0,0.0,0.0,0.0,0.0,0.0,0.0,0.0,0.0,2.9329,0.0,0.0,0.0,0.0,0.0,0.0,0.0,0.0,0.0,0.0,0.0,0.0,0.0,0.0,0.0,0.0,0.0,0.0,0.0,0.0,0.0,0.0,0.0,0.0,0.0,0.0,0.0,0.0,0.0,0.0,0.0,0.0,0.0,0.0,0.0,0.0,0.0,0.0,0.0,0.0,0.0,0.0,0.0,0.0,0.0,0.0,0.0,0.0,0.0,0.0,0.0,0.0,0.0,0.0,0.0,0.0,0.0,0.0,0.0,0.0,0.0,0.0,0.0,0.0,0.0,0.0,0.0,0.0,0.0,0.0,0.0,0.0,0.0,0.0,0.0,0.0,0.0,0.0,0.0,0.0,0.0,0.0,0.0,0.0,0.0,0.0,0.0,0.0,0.0,0.0,0.0,0.0,0.0,0.0,0.0,0.0,0.0,0.0,0.0,0.0,0.0,0.0,0.0,0.0,0.0,0.0,0.0,0.0,0.0,0.0,0.0,0.0,0.0,0.0,0.0,0.0,3.0054,0.0,0.0,0.0,0.0,0.0,0.0,0.0,0.0,0.0,0.0,0.0,0.0,0.0,0.0,0.0,0.0,0.0,0.0,0.0,0.0,0.0,0.0,0.0,0.0,0.0,0.0,0.0,0.0,0.0,0.0,0.0,0.0,0.0,0.0,0.0,0.0,0.0,0.0,0.0,0.0,0.0,0.0,0.0,0.0,0.0,0.0,0.0,0.0,0.0,0.0,0.0,0.0,0.0,0.0,0.0,0.0,0.0,0.0,0.0,0.0,0.0,0.0,0.0,0.0,0.0,0.0,0.0,0.0,0.0,0.0,0.0,0.0,0.0,0.0,0.0,0.0,0.0,0.0,0.0,0.0,0.0,0.0,0.0,0.0,0.0,0.0,0.0,0.0,0.0,0.0,0.0,0.0,0.0,0.0,0.0,0.0,0.0,0.0,0.0,0.0,0.0,0.0,0.0,0.0,0.0,0.0,0.0,0.0,0.0,3.0483,3.0556,3.0625,3.0606,3.0566,3.0721,3.0613,3.0342,0.0,0.0,0.0,0.0,0.0,0.0,0.0,0.0,0.0,0.0,0.0,0.0,0.0,0.0,0.0,0.0,0.0,0.0,0.0,0.0,0.0,0.0,0.0,0.0,0.0,0.0,0.0,0.0,0.0,0.0,0.0,0.0,0.0,0.0,0.0,0.0,0.0,0.0,0.0,2.3556,2.4409,2.4769,2.4655,2.4662,0.0,0.0,0.0,0.0,0.0,0.0,0.0,0.0,0.0,0.0,0.0,0.0,0.0,0.0,0.0,0.0,0.0,0.0,0.0,0.0,0.0,0.0,0.0,0.0,0.0,0.0,0.0,0.0,0.0,0.0,0.0,0.0,0.0,0.0,0.0,0.0,0.0,0.0,0.0,0.0,0.0,0.0,0.0,2.9016,2.9696,0.0,0.0,0.0,0.0,0.0,0.0,0.0,0.0,0.0,0.0,0.0,0.0,0.0,0.0,3.0126,3.0227,3.0276,3.0359,3.0443,3.0773,3.1254,3.1254,3.1495,3.1841,3.1887,0.0,3.0781,3.069,0.0,0.0,0.0,0.0,0.0,0.0,0.0,0.0,0.0,0.0,0.0,0.0,0.0,0.0,0.0,0.0,0.0,0.0,0.0,0.0,0.0,0.0,0.0,0.0,0.0,0.0,0.0,0.0,0.0,0.0,0.0,0.0,0.0,0.0,0.0,0.0,2.4018,2.4428,2.4428,2.482,2.501,2.4996,2.495,2.4903,2.4903,2.487,0.0,0.0,0.0,0.0,0.0,0.0,0.0,0.0,0.0,0.0,0.0,0.0,0.0,0.0,0.0,0.0,0.0,0.0,0.0,0.0,0.0,0.0,0.0,0.0,0.0,0.0,0.0,0.0,0.0,0.0,0.0,0.0,0.0,0.0,0.0,0.0,0.0,0.0,0.0,2.9229,2.9439,2.9743,2.9822,2.9988,0.0,0.0,0.0,0.0,0.0,0.0,0.0,0.0,0.0,3.0976,3.0594,3.0382,3.0359,3.0856,3.1054,3.1071,3.1494,3.1858,3.2128,3.2128,3.2085,3.2026,3.2026,3.1886,3.1662,3.1484,3.1278,3.1128,0.0,0.0,0.0,0.0,0.0,2.8973,0.0,0.0,0.0,0.0,0.0,0.0,0.0,0.0,0.0,0.0,0.0,0.0,0.0,0.0,0.0,2.0509,0.0,0.0,0.0,0.0,0.0,0.0,0.0,0.0,0.0,0.0,0.0,0.0,2.4864,2.53,2.5313,2.5541,2.5636,2.5636,2.5636,2.5408,2.501,2.4985,2.4999,0.0,0.0,0.0,0.0,0.0,0.0,0.0,0.0,0.0,0.0,0.0,0.0,0.0,0.0,0.0,0.0,0.0,0.0,0.0,0.0,0.0,0.0,0.0,0.0,0.0,0.0,0.0,0.0,0.0,0.0,0.0,0.0,0.0,0.0,0.0,0.0,0.0,0.0,3.0027,3.029,3.0333,3.0614,3.0843,0.0,0.0,0.0,0.0,0.0,0.0,3.1759,3.1582,3.1593,3.1857,3.1227,3.0933,3.1073,3.162,3.1901,3.1901,3.263,3.2961,3.2933,3.3313,3.3118,3.2514,3.2692,3.2606,3.23,3.1863,3.1457,3.1037,3.0654,3.0063,2.9329,2.9624,2.9488,2.9334,0.0,0.0,0.0,0.0,0.0,0.0,0.0,0.0,0.0,0.0,0.0,0.0,0.0,0.0,2.0564,2.0508,2.05,2.0472,0.0,0.0,0.0,0.0,0.0,0.0,0.0,0.0,0.0,2.4937,2.5684,2.6071,2.6167,2.7001,2.738,2.738,2.738,2.6489,2.501,2.501,2.501,2.501,0.0,0.0,0.0,0.0,0.0,0.0,0.0,0.0,0.0,0.0,0.0,0.0,0.0,0.0,0.0,0.0,0.0,0.0,0.0,0.0,0.0,0.0,0.0,0.0,0.0,0.0,0.0,0.0,0.0,0.0,0.0,0.0,0.0,0.0,0.0,0.0,0.0,0.0,0.0,3.2297,3.2137,0.0,0.0,0.0,0.0,3.2283,3.2318,3.237,3.2454,3.2144,3.2152,3.2647,3.2309,3.2236,3.2564,3.2613,3.263,3.2646,3.3375,3.3694,3.3587,3.4987,3.4954,3.3834,3.4578,3.3905,3.2345,3.1474,3.1581,3.218,3.0852,3.0377,3.0363,2.9936,2.9917,3.0068,0.0,0.0,0.0,0.0,0.0,0.0,0.0,0.0,0.0,0.0,0.0,0.0,0.0,2.1053,2.1367,2.1346,2.1842,2.192,2.1347,0.0,0.0,0.0,0.0,0.0,0.0,0.0,2.606,2.585,2.6669,2.7053,2.7039,2.7361,2.7494,2.7494,2.7494,2.7172,2.6565,2.6015,2.5768,2.573,2.5219,2.4889,0.0,0.0,0.0,0.0,0.0,0.0,0.0,0.0,0.0,0.0,0.0,0.0,0.0,0.0,0.0,0.0,0.0,0.0,0.0,0.0,0.0,0.0,0.0,0.0,0.0,0.0,0.0,0.0,0.0,0.0,0.0,0.0,0.0,0.0,0.0,0.0,0.0,3.2219,3.2289,0.0,3.2521,3.2457,3.2406,3.2406,3.2457,3.2581,3.2878,3.2605,3.2647,3.308,3.2698,3.259,3.268,3.316,3.3392,3.3408,3.4154,3.4184,3.3614,3.4131,3.375,3.2625,3.2874,3.2567,3.1751,3.1023,3.0894,3.116,3.0777,3.0418,3.0054,3.0115,3.0144,3.0266,0.0,0.0,0.0,0.0,0.0,0.0,0.0,0.0,0.0,0.0,0.0,2.0625,2.098,2.1479,2.1913,2.2205,2.2771,2.2855,2.2238,0.0,0.0,0.0,0.0,0.0,0.0,2.6351,2.6697,2.6734,2.7586,2.797,2.7915,2.8464,2.8749,2.8749,2.9014,2.8995,2.8692,2.7839,2.7157,2.6603,2.6072,2.557,2.5205,0.0,0.0,0.0,0.0,0.0,0.0,0.0,0.0,0.0,0.0,0.0,0.0,0.0,0.0,0.0,0.0,0.0,0.0,0.0,0.0,0.0,0.0,0.0,0.0,0.0,0.0,0.0,0.0,0.0,0.0,0.0,0.0,0.0,0.0,0.0,3.2571,3.2513,3.2527,3.2507,3.2388,3.2634,3.288,3.3196,3.3108,3.3315,3.39,3.3269,3.3131,3.3651,3.3267,3.3176,3.3425,3.3922,3.417,3.417,3.4916,3.4693,3.37,3.4182,3.3556,3.2059,3.2303,3.2004,3.1306,3.0822,3.0539,3.0358,3.0418,3.0176,2.9808,3.019,3.0312,3.0326,0.0,0.0,0.0,0.0,0.0,0.0,0.0,0.0,0.0,0.0,2.0506,2.0837,2.1708,2.1811,2.2195,2.3052,2.3164,2.3146,2.3046,2.3869,0.0,0.0,0.0,0.0,2.6593,2.6651,2.699,2.7637,2.8474,2.8859,2.8809,3.0473,3.125,3.1269,3.2046,3.197,3.1193,3.0416,2.9147,2.7646,2.7551,2.6976,2.6223,0.0,0.0,0.0,0.0,0.0,0.0,0.0,0.0,0.0,0.0,0.0,0.0,0.0,0.0,0.0,0.0,0.0,0.0,0.0,0.0,0.0,0.0,0.0,0.0,0.0,0.0,0.0,0.0,0.0,0.0,0.0,0.0,0.0,3.4099,3.3842,3.3597,3.3321,3.3019,3.2705,3.2458,3.3108,3.3899,3.4747,3.4428,3.4601,3.5549,3.4072,3.359,3.4385,3.4034,3.417,3.4883,3.4899,3.4899,3.4899,3.5628,3.5185,3.3783,3.5218,3.4555,3.2256,3.3003,3.2412,3.0999,3.1014,3.0686,3.0168,2.9898,2.9808,2.987,3.019,3.0326,3.0294,0.0,0.0,0.0,0.0,0.0,0.0,0.0,0.0,0.0,0.0,2.0494,2.0828,2.1691,2.2369,2.3096,2.3971,2.462,2.4697,2.3984,0.0,0.0,0.0,0.0,0.0,2.6657,2.7948,2.8637,2.8626,3.0056,3.0667,3.0549,3.1591,3.2084,3.2084,3.2312,3.2293,3.2065,3.1838,3.1478,3.0833,2.8461,2.7346,2.7127,0.0,0.0,0.0,0.0,0.0,0.0,0.0,0.0,0.0,0.0,0.0,0.0,0.0,0.0,0.0,0.0,0.0,0.0,0.0,0.0,0.0,0.0,0.0,0.0,0.0,0.0,0.0,0.0,0.0,0.0,0.0,0.0,3.4023,3.386,3.3597,3.3273,3.3001,3.3166,3.3266,3.3213,3.3915,3.4479,3.4781,3.4466,3.451,3.5059,3.4423,3.4286,3.4738,3.4678,3.4684,3.4899,3.4899,3.4739,3.4448,3.4644,3.3925,3.2431,3.2857,3.208,3.0539,3.1206,3.1271,3.0859,3.1317,3.1518,3.1368,3.0502,3.019,3.019,3.0447,3.0629,3.0782,0.0,0.0,0.0,0.0,0.0,0.0,0.0,0.0,0.0,0.0,2.0521,2.0853,2.1708,2.2578,2.3442,2.4323,2.5201,2.5465,2.4877,0.0,0.0,0.0,0.0,2.7129,2.7818,2.883,2.9603,3.0087,3.104,3.157,3.1724,3.2558,3.2937,3.2956,3.3297,3.3259,3.2937,3.2937,3.2728,3.2236,3.0322,2.9128,2.854,2.8815,2.8817,2.8782,2.9885,3.0547,3.1034,3.1781,0.0,0.0,0.0,0.0,0.0,0.0,0.0,0.0,0.0,0.0,0.0,0.0,0.0,0.0,0.0,0.0,0.0,0.0,0.0,0.0,0.0,0.0,0.0,0.0,3.442,3.4515,3.4108,3.3887,3.3719,3.3535,3.3791,3.4003,3.4003,3.476,3.5414,3.5825,3.537,3.5324,3.5924,3.5081,3.4714,3.4883,3.4899,3.5096,3.5442,3.4904,3.5004,3.5646,3.4718,3.3836,3.308,3.2637,3.184,0.0,3.1077,3.1233,3.1261,3.163,3.1917,0.0,0.0,0.0,0.0,0.0,3.116,3.1104,0.0,0.0,0.0,0.0,0.0,0.0,0.0,0.0,0.0,0.0,0.0,2.0911,2.1711,2.25,2.333,2.4321,2.5105,2.5578,0.0,0.0,0.0,2.6663,2.6947,2.7803,2.9369,2.9528,3.024,3.1597,3.1725,3.2034,3.2577,3.343,3.3847,3.3866,3.4586,3.4491,3.3847,3.3847,3.3392,3.2691,3.2691,3.1686,3.0267,3.1042,3.0473,2.9434,3.0835,3.135,3.1448,3.1902,0.0,0.0,0.0,0.0,0.0,0.0,0.0,0.0,0.0,0.0,0.0,0.0,0.0,0.0,0.0,0.0,0.0,0.0,0.0,0.0,0.0,0.0,0.0,0.0,3.515,3.5539,3.4968,3.4891,3.4829,3.4555,3.4728,3.4865,3.4848,3.5643,3.6478,3.7246,3.6557,3.6466,3.7318,0.0,0.0,0.0,0.0,3.5542,3.6336,3.5202,3.5531,3.7253,3.5315,3.4446,3.4508,3.3668,3.2805,3.1917,3.1989,3.2017,3.2017,3.2154,3.2327,3.2508,3.2364,3.232,3.2306,3.2004,3.1801,0.0,0.0,0.0,0.0,0.0,0.0,0.0,0.0,0.0,0.0,2.0497,2.0562,2.0915,2.1708,2.1942,2.2692,2.4251,2.4553,2.4919,0.0,0.0,2.6536,2.6683,2.8105,2.9032,2.9314,3.0679,3.1429,3.1514,3.2856,3.3474,3.3468,3.4282,3.4661,3.4661,3.4832,3.4813,3.4661,3.4661,3.4567,3.4415,3.4415,3.3411,3.1933,3.2103,3.2406,3.2691,3.2295,3.2543,3.2845,3.1581,3.1128,3.0919,3.0016,0.0,0.0,0.0,0.0,0.0,0.0,0.0,0.0,0.0,0.0,0.0,0.0,0.0,0.0,0.0,0.0,0.0,0.0,0.0,0.0,3.6085,3.6856,3.734,3.7248,3.7345,3.6726,3.4942,3.5329,3.5768,3.5844,3.6569,3.7137,3.7374,3.6597,3.6466,3.7292,3.6337,0.0,3.6837,3.6853,3.6969,3.7267,3.7018,3.6603,3.6034,0.0,0.0,3.3486,3.3317,3.2834,3.227,3.2723,3.2939,3.2982,3.3619,3.4103,3.4252,3.2969,3.2591,3.2655,3.2306,3.2362,3.2525,0.0,0.0,0.0,0.0,0.0,0.0,0.0,0.0,0.0,0.0,2.056,2.0736,2.1116,2.1937,2.2808,2.3665,2.4522,0.0,0.0,2.6312,2.6931,2.7329,2.8667,2.9788,3.0576,3.1454,3.2202,3.2807,3.3637,3.414,3.4301,3.4718,3.4908,3.4908,3.4908,3.4908,3.4908,3.4908,3.4908,3.4908,3.4908,3.4396,3.3619,3.3202,3.3033,3.294,3.2524,3.2524,3.2557,3.1355,3.0865,3.0636,2.9812,2.9792,3.0143,0.0,0.0,0.0,0.0,0.0,0.0,0.0,0.0,0.0,0.0,0.0,0.0,0.0,0.0,3.4689,0.0,0.0,3.6693,3.7163,3.7932,3.8368,3.8099,3.8109,3.7582,3.609,3.629,3.66,3.6695,3.7441,3.794,3.8016,3.7561,3.73,3.737,3.6471,3.6207,3.6752,3.6769,3.7218,3.8119,3.7453,3.7195,3.7427,3.6045,3.5149,3.4648,3.3982,3.3441,3.3102,3.3403,3.3546,3.3575,3.4081,3.4588,3.5093,3.4249,3.3827,3.3536,3.3125,3.3043,3.3041,0.0,0.0,0.0,0.0,0.0,0.0,0.0,0.0,0.0,0.0,0.0,2.0636,2.0742,2.2014,2.3002,0.0,0.0,0.0,0.0,2.6494,2.7315,2.7976,2.9054,3.035,3.1873,3.2075,3.2782,3.4093,3.4265,3.4538,3.4908,3.4908,3.4908,3.4908,3.4908,3.4908,3.4908,3.4908,3.4908,3.4908,3.4908,3.4908,3.4832,3.4169,3.345,3.277,3.26,3.2333,3.1931,3.1185,3.077,3.0448,2.9961,3.0202,3.0679,3.0812,3.132,0.0,0.0,0.0,0.0,0.0,0.0,0.0,0.0,0.0,3.4179,3.4257,3.5069,3.5771,3.5771,3.7026,3.8072,3.8266,3.8878,3.9124,3.8615,3.8613,3.8365,3.7519,3.7417,3.7453,3.7565,3.8351,3.8872,3.8872,3.8614,3.8232,3.7672,3.6872,3.6522,3.6652,3.6835,3.7585,3.8975,3.7765,3.7785,3.8974,3.6519,3.5599,3.5915,3.4758,3.4142,3.4034,3.4149,3.4278,3.4462,3.4571,3.4998,3.5685,3.5685,3.5227,3.464,3.4266,3.3945,3.3606,0.0,0.0,0.0,0.0,0.0,0.0,0.0,0.0,0.0,0.0,0.0,0.0,0.0,0.0,0.0,0.0,0.0,0.0,2.5596,2.7028,2.7918,2.7995,2.9577,3.0923,3.1873,3.2647,3.3401,3.4093,3.4813,3.5076,3.4908,3.4908,3.4908,3.4908,3.4908,3.4908,3.4908,3.4908,3.4908,3.4908,3.4908,3.4908,3.4889,3.4813,3.4698,3.449,3.3657,3.2863,3.2032,3.1068,3.0259,2.9754,3.0304,3.0504,3.0794,3.2138,3.2588,3.2822,3.3485,3.3678,3.3697,3.377,3.3807,3.3815,0.0,0.0,3.5081,3.5214,3.6407,3.7433,3.7516,3.82,3.9061,3.9964,4.0102,4.0023,3.9841,4.0108,3.9982,3.9065,3.865,3.8478,3.8627,3.9305,3.975,3.975,3.8996,3.8474,3.8387,3.8231,3.8186,3.8355,3.8974,3.9444,3.9766,3.9076,3.8553,3.8214,3.7021,3.612,3.5449,3.4868,3.4563,3.4375,3.494,3.5659,3.6324,3.6324,3.6424,3.6608,3.6608,3.6212,3.5496,3.5265,3.5074,3.4868,0.0,0.0,0.0,0.0,0.0,0.0,0.0,0.0,0.0,0.0,0.0,0.0,0.0,0.0,0.0,0.0,0.0,0.0,2.5602,2.6637,2.7464,2.7976,2.9182,3.046,3.1806,3.224,3.3015,3.416,3.4457,3.4741,3.5018,3.4945,3.4908,3.4908,3.4908,3.4908,3.4908,3.4908,3.4908,3.4908,3.4908,3.4889,3.4851,3.4377,3.415,3.4035,3.3615,3.3116,0.0,0.0,3.082,3.0872,3.0719,3.1355,3.2272,3.2686,3.3198,3.3623,3.3768,3.3807,3.3807,3.3807,3.4156,3.455,3.4676,3.5339,3.6058,3.6602,3.7599,3.8412,3.844,3.9523,4.0385,0.0,4.017,4.0167,4.0423,4.0068,3.9734,3.9603,3.9881,3.9911,3.9504,4.0146,4.061,4.061,4.0132,3.9709,3.9306,3.8719,3.8437,3.8606,3.8891,3.931,3.9781,3.9276,3.8606,3.778,3.6919,3.6009,3.5103,3.4601,3.4549,3.4857,3.5633,3.621,3.6614,3.6458,3.6748,3.7155,3.6852,3.6644,3.641,3.5821,3.5198,3.4705,0.0,0.0,0.0,0.0,0.0,0.0,0.0,0.0,0.0,0.0,0.0,0.0,0.0,0.0,0.0,0.0,0.0,0.0,0.0,2.6299,2.6997,2.76,2.8709,2.9986,3.1449,3.1747,3.2522,3.3814,3.3761,3.3953,3.435,3.4262,3.4339,3.4548,3.4548,3.4661,3.487,3.487,3.487,3.4851,3.4643,3.4548,3.4433,3.3639,3.328,3.3185,3.3084,3.2788,0.0,0.0,3.1283,3.1502,3.1411,3.2238,3.3243,3.3191,3.363,3.4049,3.3842,3.3807,3.3844,3.4109,3.4623,3.522,3.5754,3.649,3.7256,3.7884,3.8826,3.9471,3.9309,4.0281,4.0952,4.0352,4.0092,4.006,4.0385,4.011,3.9912,4.0221,4.0949,4.1199,4.0628,4.1092,4.1431,4.1431,4.1086,4.0568,3.9898,3.9123,3.8688,3.8555,3.8756,3.9107,3.9625,3.9131,3.8439,3.7589,3.6737,3.5925,3.5118,3.4766,3.4992,3.5767,3.6302,3.675,3.7054,3.691,3.7172,3.7667,3.7164,3.6982,3.688,3.6208,3.5418,3.4821,0.0,0.0,0.0,0.0,0.0,0.0,0.0,0.0,0.0,0.0,0.0,0.0,0.0,0.0,0.0,0.0,0.0,0.0,0.0,2.6359,2.6784,2.6749,2.838,2.9715,3.0617,3.1477,3.221,3.2842,3.2842,3.2726,3.2482,3.2482,3.2882,3.3639,3.3639,3.4074,3.4809,3.4809,3.4809,3.4733,3.3941,3.3639,3.3545,3.2751,3.2448,3.2411,3.2221,0.0,0.0,0.0,3.1225,3.0835,3.2586,3.299,0.0,3.3889,3.4005,0.0,3.3788,3.3807,3.4036,3.4926,3.5192,3.5616,3.7239,3.8206,3.8748,3.8826,4.0068,4.0922,4.0263,4.0182,4.0277,4.0383,4.0122,3.9808,3.9568,4.0637,4.1333,4.1096,4.177,4.2234,0.0,4.2234,4.2251,4.2251,4.1472,4.0597,3.9744,3.9664,3.9274,3.8402,3.9085,3.9468,3.9501,3.8914,3.827,3.7589,3.6569,3.5974,3.5766,3.5867,3.6389,3.7244,3.7273,3.7607,3.8144,3.8144,3.8159,3.8173,3.7734,3.7366,3.6978,3.6508,3.6084,3.5655,0.0,0.0,0.0,0.0,0.0,0.0,0.0,0.0,0.0,0.0,0.0,0.0,0.0,0.0,0.0,0.0,0.0,0.0,0.0,2.5809,2.6171,2.6691,2.726,2.7976,2.8857,2.9212,3.0288,3.2127,3.1962,3.2426,3.3459,3.3294,3.3053,3.2807,3.2806,3.2958,3.3204,3.3204,3.3204,3.3185,3.2901,3.2788,3.2713,3.1862,3.1504,3.1374,0.0,0.0,0.0,0.0,0.0,0.0,3.2771,0.0,0.0,3.4,3.3947,3.3807,3.3807,3.4192,3.4669,3.4991,3.6295,3.7684,3.8287,3.9043,3.978,4.0388,4.0529,4.0455,4.0237,4.0704,4.0722,3.9531,3.9987,4.0385,4.0075,4.0721,4.1407,4.1823,4.2126,0.0,0.0,0.0,0.0,4.1813,4.122,4.0681,4.0185,3.9767,3.9473,3.9274,3.9404,3.9448,3.9379,3.8931,3.8327,3.7605,3.6593,3.5844,3.5357,3.6389,3.6939,3.7096,3.7649,3.8014,3.8202,3.8202,3.8052,3.7763,3.738,3.6915,3.6549,3.6138,3.5804,3.571,0.0,0.0,0.0,0.0,0.0,0.0,0.0,0.0,0.0,0.0,0.0,0.0,0.0,0.0,0.0,0.0,0.0,0.0,0.0,0.0,2.5751,2.6202,2.6539,2.6964,2.7514,2.7879,2.8973,3.0849,3.0599,3.124,3.2603,3.265,3.2562,3.2373,3.2637,3.2921,3.3185,3.3185,3.3185,3.3129,3.2524,3.2279,3.2128,3.1033,3.0562,0.0,0.0,0.0,0.0,0.0,0.0,0.0,0.0,0.0,0.0,3.3972,3.3868,3.3862,3.4156,3.4835,3.5605,3.6232,3.7603,3.8958,3.9619,3.9933,4.0228,4.0787,4.0522,4.0118,3.987,4.0259,4.0311,3.9512,4.0079,4.0689,4.0854,4.1238,4.1716,4.2234,4.2287,4.2287,0.0,0.0,0.0,4.1516,4.1174,4.0754,4.0351,3.9867,3.9642,3.9642,3.9537,3.9448,3.9272,3.8985,3.8383,3.7477,3.6733,3.6212,3.5941,3.7011,3.7488,3.7488,3.7968,3.8202,3.8202,3.8202,3.8052,3.7763,3.7211,3.6836,3.6536,3.5965,3.571,3.571,0.0,0.0,0.0,0.0,0.0,0.0,0.0,0.0,0.0,0.0,0.0,0.0,0.0,0.0,0.0,0.0,0.0,0.0,0.0,0.0,0.0,2.5415,2.6185,2.6638,2.6638,2.7428,2.826,2.9049,2.8938,2.9292,3.0109,3.0724,3.143,3.2204,3.29,3.3669,3.4435,3.4435,3.4454,3.4341,3.2687,3.1989,3.178,3.0265,0.0,0.0,0.0,0.0,0.0,0.0,0.0,3.2976,3.3758,3.3998,3.3972,3.386,3.3825,3.4045,3.4844,3.5734,3.6809,3.8493,3.8966,3.9457,4.1051,4.0804,4.0182,4.0211,4.0174,3.9944,0.0,0.0,3.925,4.0195,4.0416,4.0782,4.1741,4.2109,4.2287,0.0,0.0,0.0,0.0,0.0,0.0,4.1516,0.0,4.0931,4.032,4.0037,3.9798,3.9554,3.9501,3.9432,3.9272,3.8964,3.8338,3.732,3.7022,3.7107,3.739,3.7731,3.7991,3.8202,3.8202,3.8202,3.8202,3.8202,3.8202,3.8052,3.7289,3.6978,3.6822,3.6031,3.571,3.571,0.0,0.0,0.0,0.0,0.0,0.0,0.0,0.0,0.0,0.0,0.0,0.0,0.0,0.0,0.0,0.0,0.0,0.0,0.0,0.0,0.0,0.0,0.0,0.0,0.0,0.0,0.0,0.0,0.0,2.9159,3.0099,3.0726,3.0772,3.0358,3.0602,3.1148,3.1921,3.1921,3.2298,3.2787,0.0,3.1203,3.107,0.0,0.0,0.0,0.0,0.0,0.0,3.2299,3.2919,3.3584,3.3787,3.3842,3.3842,3.3807,3.4229,3.489,3.5752,3.7019,3.8224,3.8681,3.9725,4.0603,4.0552,4.0378,4.023,4.0335,3.9834,3.9314,3.9138,0.0,0.0,3.9868,4.1263,0.0,4.1402,4.189,0.0,4.2287,0.0,4.2287,4.2287,4.2287,0.0,0.0,4.122,4.1091,4.122,4.0307,3.9798,3.9798,3.959,3.9379,3.9094,3.8918,3.8615,3.809,3.8299,3.8282,3.8109,3.812,3.8127,3.8202,3.8202,3.8202,3.8202,3.8202,3.7825,3.7289,3.7056,3.6587,3.6031,3.579,3.571,3.571,0.0,0.0,0.0,0.0,0.0,0.0,0.0,0.0,0.0,0.0,0.0,0.0,0.0,0.0,0.0,0.0,0.0,0.0,0.0,0.0,0.0,0.0,0.0,0.0,0.0,0.0,0.0,0.0,0.0,0.0,0.0,3.0726,3.0771,3.0281,3.0677,3.1299,3.2053,3.2053,0.0,0.0,0.0,0.0,0.0,0.0,0.0,0.0,0.0,0.0,0.0,3.316,3.3526,3.3895,3.3895,3.386,3.3862,3.4229,3.4926,3.5844,3.7037,3.8267,3.9326,3.978,4.0308,4.0634,4.0341,4.001,3.975,3.9825,3.9435,3.9101,3.9101,3.969,4.0209,0.0,0.0,0.0,4.1794,4.2083,4.2287,0.0,4.2287,0.0,4.2287,4.2287,4.2472,0.0,4.174,4.1086,4.1064,4.0324,3.9833,3.9781,3.9694,3.9309,3.8766,3.9072,3.9026,3.8623,3.9203,3.9397,3.9258,3.8867,3.8694,3.8694,0.0,3.8202,3.8202,3.8202,3.7825,3.7226,3.707,3.6587,3.5978,3.5804,3.5804,3.5939,0.0,0.0,0.0,0.0,0.0,0.0,0.0,0.0,0.0,0.0,0.0,0.0,0.0,0.0,0.0,0.0,0.0,0.0,0.0,0.0,0.0,0.0,0.0,0.0,0.0,0.0,0.0,0.0,0.0,0.0,0.0,0.0,0.0,0.0,0.0,0.0,0.0,0.0,0.0,0.0,0.0,0.0,0.0,0.0,0.0,0.0,0.0,0.0,0.0,3.3895,3.3868,3.3972,3.3972,3.3895,3.3972,3.4752,3.5697,3.678,3.8303,3.9368,4.0207,4.0966,4.0609,4.0104,4.0205,3.964,3.9101,3.9101,3.9101,3.9101,3.9101,3.8951,3.9328,4.0868,0.0,4.0894,4.2436,4.2472,4.2287,4.2287,4.2287,4.2323,4.2448,4.2448,4.3054,4.45,4.258,4.1197,4.0837,4.0356,3.9935,3.9677,3.9625,3.9235,3.8537,3.9324,3.9574,3.9218,3.9971,4.04,4.0485,3.9662,3.9305,3.9247,0.0,0.0,3.8202,3.8202,3.7976,3.7534,3.7148,3.6772,3.6312,3.5965,3.5952,3.6264,0.0,0.0,0.0,0.0,0.0,0.0,0.0,0.0,0.0,0.0,0.0,0.0,0.0,0.0,0.0,0.0,0.0,0.0,0.0,0.0,0.0,0.0,0.0,0.0,0.0,0.0,0.0,0.0,0.0,0.0,0.0,0.0,0.0,0.0,0.0,0.0,0.0,0.0,0.0,0.0,0.0,0.0,0.0,0.0,0.0,0.0,0.0,0.0,0.0,0.0,3.3834,3.3815,3.3815,3.3815,3.3972,3.4752,3.6101,3.7496,3.845,3.9772,4.0795,4.0413,4.0203,3.9956,3.9444,3.9212,3.9101,3.9101,3.9101,3.9101,3.9101,4.0177,4.0997,4.0818,4.1831,4.2574,4.2396,4.2328,4.2287,0.0,4.2287,4.2555,4.3233,4.3304,0.0,0.0,0.0,4.241,4.2954,4.1017,3.9798,3.9537,3.9255,3.9139,3.9233,3.9741,4.0206,4.0752,4.0839,4.1017,4.1245,3.9929,3.9305,3.9247,0.0,0.0,3.8202,3.8202,3.7825,3.738,3.7303,3.6929,3.6405,3.6312,3.6454,3.6798,0.0,0.0,0.0,0.0,0.0,0.0,0.0,0.0,0.0,0.0,0.0,0.0,0.0,0.0,0.0,0.0,0.0,0.0,0.0,0.0,0.0,0.0,0.0,0.0,0.0,0.0,0.0,0.0,0.0,0.0,0.0,0.0,0.0,0.0,0.0,0.0,0.0,0.0,0.0,0.0,0.0,0.0,0.0,0.0,0.0,0.0,0.0,0.0,0.0,0.0,3.386,3.3807,3.3807,3.3807,3.4045,3.5312,3.6835,3.8303,3.9111,4.0194,4.0942,4.0222,3.9767,3.9401,3.911,3.9073,3.9101,3.9101,3.9101,3.9101,3.9101,3.9713,4.0362,4.0877,4.1409,4.1904,4.2447,4.2391,4.2287,4.2287,4.2287,4.2608,4.3429,4.3518,4.3982,0.0,0.0,4.2467,4.2814,4.0815,3.9642,3.9501,3.9636,3.9598,3.9412,4.0496,4.1026,4.1132,4.1629,4.1948,4.2013,4.0961,4.0209,3.9859,3.9103,0.0,3.8202,3.8202,3.7825,3.7303,3.7303,3.6929,3.6405,3.6246,3.6411,3.666,0.0,0.0,0.0,0.0,0.0,0.0,0.0,0.0,0.0,0.0,0.0,0.0,0.0,0.0,0.0,0.0,0.0,0.0,0.0,0.0,0.0,0.0,0.0,0.0,0.0,0.0,0.0,0.0,0.0,0.0,0.0,0.0,0.0,0.0,0.0,0.0,0.0,0.0,0.0,0.0,0.0,0.0,0.0,0.0,0.0,0.0,0.0,0.0,3.4221,3.4049,3.3947,3.3868,3.3842,3.3842,3.4191,3.5807,3.747,3.8866,3.946,4.0359,4.0873,3.9958,3.9331,3.8939,3.8979,3.9045,3.9101,3.9101,3.9101,3.9101,3.9101,3.9184,3.9649,4.0996,4.1147,4.1452,4.2569,4.2695,4.2548,4.2346,4.2287,0.0,4.3643,4.375,0.0,0.0,0.0,0.0,4.1653,4.029,3.9501,3.9448,4.0055,4.0153,3.9638,4.12,4.1736,4.1293,4.2171,4.2571,4.2555,4.1868,4.1111,4.0347,3.9591,0.0,0.0,3.8202,3.7901,3.738,3.738,3.7007,3.6484,3.6325,3.6314,3.6562,0.0,0.0,0.0,0.0,0.0,0.0,0.0,0.0,0.0,0.0,0.0,0.0,0.0,0.0,0.0,0.0,0.0,0.0,0.0,0.0,0.0,0.0,0.0,0.0,0.0,0.0,0.0,0.0,0.0,0.0,0.0,0.0,0.0,0.0,0.0,0.0,0.0,0.0,0.0,0.0,0.0,0.0,0.0,0.0,0.0,0.0,0.0,0.0,3.434,3.4099,3.4074,3.4148,3.4023,3.3972,3.4278,3.5836,3.7529,3.8859,3.8811,3.9937,4.0744,3.9258,3.8907,3.8939,3.8979,3.9045,3.9101,3.9101,3.9101,3.9101,3.9101,3.9751,4.0481,4.1088,4.2368,4.3155,4.2752,4.3361,4.3458,4.2417,4.2287,0.0,4.4375,4.4517,0.0,0.0,0.0,0.0,3.9862,3.9587,3.9432,3.9325,4.0001,4.0384,4.0307,4.1281,4.1889,4.2013,4.2285,4.2508,4.2555,4.1868,4.1111,4.0347,0.0,0.0,0.0,3.8202,3.7976,3.7548,3.7548,3.7162,3.6642,3.6642,3.6723,3.6866,0.0,0.0,0.0,0.0,0.0,0.0,0.0,0.0,0.0,0.0,0.0,0.0,0.0,0.0,0.0,0.0,0.0,0.0,0.0,0.0,0.0,0.0,0.0,0.0,0.0,0.0,0.0,0.0,0.0,0.0,0.0,0.0,0.0,0.0,0.0,0.0,0.0,0.0,0.0,0.0,0.0,0.0,0.0,0.0,0.0,0.0,0.0,0.0,3.4386,3.4269,3.4221,3.4197,3.4148,3.4525,3.5175,3.6067,3.7208,3.8243,3.8591,3.9515,4.0134,3.9068,3.8851,3.8939,3.8979,3.9045,3.9101,3.9101,3.9101,3.9101,3.9101,3.9407,4.0077,4.1248,4.2124,4.2719,4.2959,4.3808,4.3865,4.2471,4.2733,4.3447,0.0,0.0,0.0,0.0,0.0,0.0,4.1407,4.0093,3.9342,3.9272,4.0398,4.0844,4.0599,4.1917,4.2467,4.2318,4.2445,4.2571,4.2571,4.2285,4.1738,4.1044,0.0,0.0,0.0,3.8412,3.7991,3.7625,3.7457,3.7084,3.6642,3.6405,3.6383,3.6469,0.0,0.0,0.0,0.0,0.0,0.0,0.0,0.0,0.0,0.0,0.0,0.0,0.0,0.0,0.0,0.0,0.0,0.0,0.0,0.0,0.0,0.0,0.0,0.0,0.0,0.0,0.0,0.0,0.0,0.0,0.0,0.0,0.0,0.0,0.0,0.0,0.0,0.0,0.0,0.0,0.0,0.0,0.0,0.0,0.0,0.0,0.0,0.0,0.0,0.0,0.0,3.4269,3.4269,3.4936,3.5837,3.6187,3.7163,3.819,3.8603,3.9307,3.9774,3.8964,3.8881,3.895,3.895,3.9036,3.9101,3.9101,3.9101,3.9101,3.9101,3.9129,3.9788,4.1646,4.2313,4.2931,4.3942,4.4826,4.4867,4.3373,0.0,4.3913,0.0,4.4839,0.0,0.0,0.0,0.0,0.0,4.115,4.0207,4.0064,4.1006,4.1354,4.1102,4.2217,4.2655,4.2381,4.2508,4.2634,4.2634,4.2634,4.2077,4.1178,0.0,0.0,0.0,3.8412,3.7991,3.7625,3.738,3.7007,3.6563,3.6246,3.6086,3.6141,0.0,0.0,0.0,0.0,0.0,0.0,0.0,0.0,0.0,0.0,0.0,0.0,0.0,0.0,0.0,0.0,0.0,0.0,0.0,0.0,0.0,0.0,0.0,0.0,0.0,0.0,0.0,0.0,0.0,0.0,0.0,0.0,0.0,0.0,0.0,0.0,0.0,0.0,0.0,0.0,0.0,0.0,0.0,0.0,0.0,0.0,0.0,0.0,0.0,0.0,0.0,0.0,0.0,3.5094,3.5956,3.6215,3.7608,3.9036,3.878,3.9381,3.9877,3.8921,3.891,3.9073,3.8921,3.8989,3.9101,3.9101,3.9101,3.9101,3.9101,3.9101,3.99,4.2389,4.3466,4.4498,4.5944,4.6799,4.6764,4.5406,4.4527,4.4124,4.4578,4.532,0.0,0.0,0.0,0.0,0.0,4.2723,4.2272,4.1909,4.176,4.1773,4.1999,4.2015,4.215,4.2381,4.2508,4.2634,4.2634,4.2634,4.1803,0.0,0.0,0.0,0.0,3.8202,3.7991,3.7625,3.738,3.6929,3.6405,3.6166,3.6086,3.6086,0.0,0.0,0.0,0.0,0.0,0.0,0.0,0.0,0.0,0.0,0.0,0.0,0.0,0.0,0.0,0.0,0.0,0.0,0.0,0.0,0.0,0.0,0.0,0.0,0.0,0.0,0.0,0.0,0.0,0.0,0.0,0.0,0.0,0.0,0.0,0.0,0.0,0.0,0.0,0.0,0.0,0.0,0.0,0.0,0.0,0.0,0.0,0.0,0.0,0.0,0.0,0.0,0.0,0.0,0.0,3.6586,3.7386,3.8377,3.8733,3.9065,3.9224,3.8966,3.9452,3.9825,3.925,3.9565,3.9807,3.9212,3.9101,3.9101,3.9101,3.9101,3.99,4.2389,4.3328,4.4306,4.5981,4.6927,4.6916,4.5457,4.4772,4.4467,0.0,0.0,0.0,0.0,0.0,0.0,0.0,4.5219,4.4283,4.2392,4.2284,4.2229,4.2209,4.1972,4.1862,4.1843,4.1905,4.1905,4.1921,4.2407,0.0,0.0,0.0,0.0,0.0,3.8412,3.7901,3.738,3.7148,3.6772,3.6166,3.5898,3.6157,3.6688,0.0,0.0,0.0,0.0,0.0,0.0,0.0,0.0,0.0,0.0,0.0,0.0,0.0,0.0,0.0,0.0,0.0,0.0,0.0,0.0,0.0,0.0,0.0,0.0,0.0,0.0,0.0,0.0,0.0,0.0,0.0,0.0,0.0,0.0,0.0,0.0,0.0,0.0,0.0,0.0,0.0,0.0,3.0757,0.0,0.0,0.0,0.0,0.0,0.0,0.0,0.0,0.0,0.0,0.0,0.0,0.0,3.7616,3.8497,3.882,3.8979,3.9036,3.8979,3.9741,4.0337,3.977,4.0039,4.0234,3.9695,3.9324,3.9101,3.9101,3.9333,4.0354,4.2853,4.3758,4.4894,4.7021,4.772,4.7372,4.5612,0.0,0.0,0.0,0.0,0.0,0.0,0.0,0.0,0.0,4.6495,4.5663,4.4042,4.3213,4.2791,4.2798,4.2119,4.1748,4.1565,4.1565,4.1419,4.1193,4.1905,0.0,0.0,0.0,0.0,0.0,3.8412,3.7825,3.7303,3.707,3.6615,3.6113,3.6157,3.6552,3.7167,0.0,0.0,0.0,0.0,0.0,0.0,0.0,0.0,0.0,0.0,0.0,0.0,0.0,0.0,0.0,0.0,0.0,0.0,0.0,0.0,0.0,0.0,0.0,0.0,0.0,0.0,0.0,0.0,0.0,0.0,0.0,0.0,0.0,0.0,0.0,0.0,0.0,0.0,0.0,0.0,0.0,0.0,0.0,0.0,0.0,0.0,0.0,0.0,0.0,0.0,0.0,0.0,0.0,0.0,0.0,0.0,0.0,0.0,0.0,3.9129,3.9245,3.9007,3.9779,4.0578,4.044,4.0411,0.0,4.0383,3.9695,3.9101,3.9101,3.9684,4.1007,4.3596,4.4628,4.6052,4.881,4.9012,0.0,0.0,4.5755,0.0,0.0,0.0,0.0,0.0,0.0,0.0,0.0,4.6637,4.6429,4.6381,4.4491,4.3553,4.3621,4.2403,4.1683,4.15,4.1452,4.1063,4.0448,4.1177,0.0,0.0,0.0,0.0,0.0,3.8188,3.7825,3.7303,3.707,3.6693,3.6234,3.6757,3.7167,3.7522,0.0,0.0,0.0,0.0,0.0,0.0,0.0,0.0,0.0,0.0,0.0,0.0,0.0,0.0,0.0,0.0,0.0,0.0,0.0,0.0,0.0,0.0,0.0,0.0,0.0,0.0,0.0,0.0,0.0,0.0,0.0,0.0,0.0,0.0,0.0,0.0,0.0,0.0,0.0,0.0,0.0,0.0,0.0,0.0,0.0,0.0,3.3826,3.4625,0.0,0.0,0.0,0.0,0.0,0.0,0.0,0.0,3.8726,0.0,0.0,0.0,3.9298,3.9219,3.9978,4.072,0.0,4.0532,4.0523,4.0411,3.9657,3.9036,3.9101,3.9684,4.1007,4.3596,4.4742,4.622,4.8781,4.8909,0.0,4.5938,4.6005,4.5941,0.0,0.0,0.0,0.0,0.0,0.0,0.0,4.6888,4.6731,4.6381,4.5148,4.4326,4.4078,4.2129,4.1053,4.0739,4.0221,3.9881,3.9735,4.0432,0.0,0.0,0.0,0.0,3.7549,3.8014,3.7901,3.7457,3.7148,3.6836,3.6591,3.6906,3.7497,3.8283,0.0,0.0,0.0,0.0,0.0,0.0,0.0,0.0,0.0,0.0,0.0,0.0,0.0,0.0,0.0,0.0,0.0,0.0,0.0,0.0,0.0,0.0,0.0,0.0,0.0,0.0,0.0,0.0,0.0,0.0,0.0,0.0,0.0,0.0,0.0,0.0,0.0,0.0,0.0,0.0,0.0,0.0,0.0,0.0,0.0,0.0,3.4434,3.5111,0.0,3.5273,3.5083,3.504,0.0,0.0,0.0,0.0,3.8997,0.0,0.0,3.9439,3.9413,3.9324,4.0057,4.0865,4.11,4.0867,4.0644,4.0866,3.9917,3.9064,3.9045,4.0018,4.1519,4.367,4.5058,0.0,0.0,0.0,4.7624,4.612,4.6221,0.0,0.0,0.0,0.0,0.0,0.0,0.0,0.0,4.6998,4.6888,4.6684,4.5579,4.477,4.4192,4.2277,4.1,4.048,3.98,3.9298,3.9007,3.9703,0.0,0.0,0.0,0.0,3.7811,3.7857,3.7792,3.7672,3.7289,3.6978,3.6906,3.7135,3.7812,3.8574,0.0,0.0,0.0,0.0,0.0,0.0,0.0,0.0,0.0,0.0,0.0,0.0,0.0,0.0,0.0,0.0,0.0,0.0,0.0,0.0,0.0,0.0,0.0,0.0,0.0,0.0,0.0,0.0,0.0,0.0,0.0,0.0,0.0,0.0,0.0,0.0,0.0,0.0,0.0,0.0,0.0,0.0,0.0,0.0,0.0,0.0,0.0,0.0,0.0,3.5405,3.5293,3.5341,3.6301,0.0,0.0,0.0,0.0,0.0,3.9602,3.9626,3.9583,3.9395,3.9989,4.0809,4.1482,4.0979,4.0616,4.1256,4.015,3.9073,3.9064,4.05,4.2149,0.0,0.0,0.0,4.8911,4.8237,4.7247,4.6397,4.6413,0.0,0.0,0.0,0.0,0.0,0.0,0.0,0.0,4.6998,4.6998,4.6998,4.5935,4.4915,4.412,4.2358,4.1156,4.048,3.9687,3.8991,3.8424,3.9039,0.0,0.0,0.0,0.0,3.8023,3.7678,3.7652,3.7832,3.7491,3.7289,3.7204,3.7508,3.8042,3.8671,0.0,0.0,0.0,0.0,0.0,0.0,0.0,0.0,0.0,0.0,0.0,0.0,0.0,0.0,0.0,0.0,0.0,0.0,0.0,0.0,0.0,0.0,0.0,0.0,0.0,0.0,0.0,0.0,0.0,0.0,0.0,0.0,0.0,0.0,0.0,0.0,0.0,0.0,0.0,0.0,0.0,0.0,0.0,0.0,0.0,0.0,0.0,0.0,0.0,3.5464,3.5844,3.655,3.7209,0.0,0.0,0.0,0.0,0.0,3.965,3.9708,3.9823,3.9607,3.9695,4.004,4.0712,4.0199,3.9825,4.0632,3.9844,3.9045,3.9219,4.1043,4.2613,0.0,0.0,4.7951,0.0,0.0,4.7634,4.6819,0.0,0.0,0.0,0.0,0.0,0.0,0.0,0.0,0.0,0.0,4.6998,4.6998,4.5985,4.4853,4.3637,4.1946,4.0906,4.048,3.9185,3.8505,3.8391,3.8521,3.8194,0.0,0.0,3.7437,3.6925,3.7508,3.7811,3.7813,3.7624,3.761,3.773,3.7667,3.8137,3.9016,0.0,0.0,0.0,0.0,0.0,0.0,0.0,0.0,0.0,0.0,0.0,0.0,0.0,0.0,0.0,0.0,0.0,0.0,0.0,0.0,0.0,0.0,0.0,0.0,0.0,0.0,0.0,0.0,0.0,0.0,0.0,0.0,0.0,0.0,0.0,0.0,0.0,0.0,0.0,0.0,0.0,0.0,0.0,0.0,0.0,0.0,0.0,0.0,0.0,0.0,3.6074,3.6848,3.7676,0.0,0.0,0.0,0.0,0.0,3.9935,3.9914,3.987,3.9777,3.975,3.9881,4.0584,4.014,3.9771,4.0488,3.9869,3.9314,3.9796,0.0,4.2693,4.455,0.0,4.7899,4.852,4.7866,0.0,0.0,0.0,0.0,0.0,0.0,0.0,0.0,0.0,0.0,0.0,0.0,4.6998,4.6998,4.5649,4.482,4.4682,4.1916,4.0263,3.978,3.882,3.8391,3.8391,3.8391,3.8221,3.7918,0.0,3.7155,3.7155,3.6856,3.719,3.7781,3.7341,3.7523,3.7882,3.7825,3.8218,3.9002,0.0,0.0,0.0,0.0,0.0,0.0,0.0,0.0,0.0,0.0,0.0,0.0,0.0,0.0,0.0,0.0,0.0,0.0,0.0,0.0,0.0,0.0,0.0,0.0,0.0,0.0,0.0,0.0,0.0,0.0,0.0,0.0,0.0,0.0,0.0,0.0,0.0,0.0,0.0,0.0,0.0,0.0,0.0,0.0,0.0,0.0,0.0,0.0,0.0,0.0,0.0,0.0,0.0,0.0,0.0,0.0,4.0286,4.006,4.0177,4.01,3.9958,3.9914,3.9781,3.983,4.0416,4.0088,3.9792,4.0309,3.9975,3.9802,4.0392,4.1249,0.0,4.6363,4.7192,4.7564,0.0,0.0,0.0,0.0,0.0,0.0,0.0,0.0,0.0,0.0,0.0,0.0,0.0,0.0,4.6908,4.6712,4.5326,4.4744,4.5109,4.189,4.0064,3.9697,3.8796,3.8391,3.8391,3.8391,3.8391,3.8335,3.7222,3.7018,3.7374,3.6424,3.6635,3.7482,3.7128,3.725,3.7744,3.7825,3.8313,3.8959,0.0,0.0,0.0,0.0,0.0,0.0,0.0,0.0,0.0,0.0,0.0,0.0,0.0,0.0,0.0,0.0,0.0,0.0,0.0,0.0,0.0,0.0,0.0,0.0,0.0,0.0,0.0,0.0,0.0,0.0,0.0,0.0,0.0,0.0,0.0,0.0,0.0,0.0,0.0,0.0,0.0,0.0,0.0,0.0,0.0,0.0,0.0,0.0,0.0,0.0,0.0,0.0,0.0,0.0,0.0,0.0,4.0473,4.0425,4.0251,4.0196,4.0139,3.9956,3.9754,3.9645,3.9744,3.9626,3.9594,3.9811,0.0,0.0,0.0,4.1848,4.3813,4.715,4.708,4.6945,0.0,0.0,0.0,0.0,0.0,0.0,0.0,0.0,0.0,0.0,0.0,0.0,0.0,0.0,0.0,4.5909,4.5364,4.4484,4.3395,4.1629,4.0921,4.122,3.9308,3.8391,3.8391,3.8391,3.8391,3.8335,3.7342,3.6921,3.6893,3.6587,3.6537,3.6611,3.701,3.7114,3.7141,3.7667,3.8313,3.8959,0.0,0.0,0.0,0.0,0.0,0.0,0.0,0.0,0.0,0.0,0.0,0.0,0.0,0.0,0.0,0.0,0.0,0.0,0.0,0.0,0.0,0.0,0.0,0.0,0.0,0.0,0.0,0.0,0.0,0.0,0.0,0.0,0.0,0.0,0.0,0.0,0.0,0.0,0.0,0.0,0.0,0.0,0.0,0.0,0.0,0.0,0.0,0.0,0.0,0.0,3.7232,0.0,0.0,0.0,0.0,0.0,4.0598,4.0504,4.0569,4.0473,4.0356,4.0286,4.002,3.9777,3.9708,3.9785,4.0027,4.0571,4.0788,0.0,0.0,0.0,4.4135,4.5932,4.5969,0.0,0.0,0.0,0.0,0.0,0.0,0.0,0.0,0.0,0.0,0.0,0.0,0.0,0.0,0.0,0.0,4.5088,4.428,4.4107,4.4583,4.1747,4.0879,4.1917,3.9532,3.8391,3.8391,3.8391,3.8691,3.9137,3.7455,3.714,3.7576,3.6269,3.597,3.6327,3.6823,3.6796,3.6487,3.7105,3.7723,3.8355,0.0,0.0,0.0,0.0,0.0,0.0,0.0,0.0,0.0,0.0,0.0,0.0,0.0,0.0,0.0,0.0,0.0,0.0,0.0,0.0,0.0,0.0,0.0,0.0,0.0,0.0,0.0,0.0,0.0,0.0,0.0,0.0,0.0,0.0,0.0,0.0,0.0,0.0,0.0,0.0,0.0,0.0,0.0,0.0,0.0,0.0,0.0,0.0,0.0,0.0,3.7483,0.0,0.0,0.0,0.0,0.0,0.0,4.0612,4.0746,4.066,4.0489,4.0425,4.0196,4.0013,4.0052,4.0246,4.0528,4.1086,4.1685,4.2352,4.3259,0.0,0.0,0.0,0.0,0.0,0.0,0.0,0.0,0.0,0.0,0.0,0.0,0.0,0.0,0.0,0.0,0.0,0.0,0.0,0.0,0.0,4.3517,4.3767,4.5123,4.1881,4.0984,4.2396,3.983,3.8544,3.8391,3.8391,3.8894,3.9568,3.7626,3.7296,3.8059,3.6103,3.5614,3.6147,3.6315,3.631,3.6259,3.662,3.7203,3.7962,0.0,0.0,0.0,0.0,0.0,0.0,0.0,0.0,0.0,0.0,0.0,0.0,0.0,0.0,0.0,0.0,0.0,0.0,0.0,0.0,0.0,0.0,0.0,0.0,0.0,0.0,0.0,0.0,0.0,0.0,0.0,0.0,0.0,0.0,0.0,0.0,0.0,0.0,0.0,0.0,0.0,0.0,0.0,0.0,0.0,0.0,0.0,0.0,0.0,0.0,3.7502,0.0,0.0,0.0,0.0,0.0,4.079,4.079,4.079,4.066,4.0457,4.0251,4.0214,4.031,4.0806,4.0966,4.1038,4.1196,4.297,4.4458,4.4314,4.4854,0.0,0.0,0.0,0.0,0.0,0.0,0.0,0.0,0.0,0.0,0.0,0.0,0.0,0.0,0.0,0.0,0.0,0.0,0.0,0.0,0.0,0.0,4.4607,4.2079,4.1446,4.2672,4.0333,3.8898,3.8391,3.8408,3.891,3.9626,3.7761,3.7418,3.8059,3.6246,3.5614,3.5869,3.5427,3.5827,3.655,3.6203,3.6838,3.7732,0.0,0.0,0.0,0.0,0.0,0.0,0.0,0.0,0.0,0.0,0.0,0.0,0.0,0.0,0.0,0.0,0.0,0.0,0.0,0.0,0.0,0.0,0.0,0.0,0.0,0.0,0.0,0.0,0.0,0.0,0.0,0.0,0.0,0.0,0.0,0.0,0.0,0.0,0.0,0.0,0.0,0.0,0.0,0.0,0.0,0.0,0.0,0.0,0.0,0.0,0.0,0.0,0.0,0.0,0.0,4.079,4.079,4.079,4.079,4.0765,4.066,4.0457,4.0304,4.0387,4.1168,4.1233,4.1419,0.0,4.3657,4.4458,4.4314,0.0,0.0,0.0,0.0,0.0,0.0,0.0,0.0,0.0,0.0,0.0,0.0,0.0,0.0,0.0,0.0,0.0,0.0,0.0,0.0,0.0,0.0,0.0,4.4378,4.2125,4.1461,4.2379,4.0244,3.8898,3.8424,3.8926,3.9715,4.0491,3.855,3.8246,3.8905,3.6493,3.5413,3.5207,3.5252,3.5568,3.5966,3.6062,3.6248,3.6399,0.0,0.0,0.0,0.0,0.0,0.0,0.0,0.0,0.0,0.0,0.0,0.0,0.0,0.0,0.0,0.0,0.0,0.0,0.0,0.0,0.0,0.0,0.0,0.0,0.0,0.0,0.0,0.0,0.0,0.0,0.0,0.0,0.0,0.0,0.0,0.0,0.0,0.0,0.0,0.0,0.0,0.0,0.0,0.0,0.0,0.0,0.0,0.0,0.0,0.0,0.0,0.0,4.052,0.0,4.079,4.079,4.079,4.079,4.079,4.079,4.0746,4.0554,4.0425,4.0611,4.1724,0.0,0.0,0.0,4.4764,4.5208,4.4427,0.0,0.0,0.0,0.0,0.0,0.0,0.0,0.0,0.0,0.0,0.0,0.0,0.0,0.0,0.0,0.0,0.0,0.0,0.0,0.0,0.0,0.0,0.0,4.4031,4.2317,4.1673,4.204,4.0355,3.9098,3.8424,3.9153,4.004,4.0851,3.9229,3.8263,3.7824,3.6179,3.5359,3.5126,3.4971,3.5218,3.5569,3.5684,3.5774,3.5809,0.0,0.0,0.0,0.0,0.0,0.0,0.0,0.0,0.0,0.0,0.0,0.0,0.0,0.0,0.0,0.0,0.0,0.0,0.0,0.0,0.0,0.0,0.0,0.0,0.0,0.0,0.0,0.0,0.0,0.0,0.0,0.0,0.0,0.0,0.0,0.0,0.0,0.0,0.0,0.0,0.0,0.0,0.0,0.0,0.0,0.0,0.0,0.0,0.0,0.0,0.0,0.0,4.0539,4.079,4.079,4.079,4.079,4.079,4.079,4.079,4.0746,4.0554,4.0604,4.1111,4.2527,4.3461,4.4238,4.4928,0.0,4.6296,4.4707,0.0,0.0,0.0,0.0,0.0,0.0,0.0,0.0,0.0,0.0,0.0,0.0,0.0,0.0,0.0,0.0,0.0,0.0,0.0,0.0,0.0,0.0,0.0,4.3578,4.253,4.1911,0.0,4.0576,3.9506,3.848,3.9275,3.9988,4.0605,3.9674,3.782,3.5439,3.5439,3.5504,3.5439,3.4683,3.4806,3.529,3.5149,3.5414,3.5739,0.0,0.0,0.0,0.0,0.0,0.0,0.0,0.0,0.0,0.0,0.0,0.0,0.0,0.0,0.0,0.0,0.0,0.0,0.0,0.0,0.0,0.0,0.0,0.0,0.0,0.0,0.0,0.0,0.0,0.0,0.0,0.0,0.0,0.0,0.0,0.0,0.0,0.0,0.0,0.0,0.0,0.0,0.0,0.0,0.0,0.0,0.0,0.0,0.0,0.0,0.0,0.0,4.0732,4.079,4.079,4.079,4.079,4.079,4.079,4.079,4.0746,4.0554,4.1505,4.2717,4.3737,4.4499,4.512,4.5546,4.5763,4.5739,4.5177,0.0,0.0,0.0,0.0,0.0,0.0,0.0,0.0,0.0,0.0,0.0,0.0,0.0,0.0,0.0,0.0,0.0,0.0,0.0,0.0,0.0,0.0,4.262,4.3337,4.2596,4.2158,0.0,4.0805,3.9817,3.904,3.9903,3.9914,3.9235,3.9125,3.7597,3.5294,3.5294,3.5359,3.5439,3.4683,3.4806,3.5233,3.4668,3.4245,3.3953,0.0,0.0,0.0,0.0,0.0,0.0,0.0,0.0,0.0,0.0,0.0,0.0,0.0,0.0,0.0,0.0,0.0,0.0,0.0,0.0,0.0,0.0,0.0,0.0,0.0,0.0,0.0,0.0,0.0,0.0,0.0,0.0,0.0,0.0,0.0,0.0,0.0,0.0,0.0,0.0,0.0,0.0,0.0,0.0,0.0,0.0,0.0,0.0,0.0,0.0,0.0,0.0,0.0,0.0,4.079,4.079,4.079,4.079,4.079,4.079,4.0875,4.1142,4.2189,4.3366,4.4245,4.4947,4.5494,4.5824,4.5781,4.5488,0.0,0.0,0.0,0.0,0.0,0.0,0.0,0.0,0.0,0.0,0.0,0.0,0.0,0.0,0.0,0.0,0.0,0.0,0.0,4.3212,4.2828,0.0,4.2287,4.246,4.2828,4.246,4.2154,4.1806,4.0762,4.012,3.9837,4.0317,3.9859,3.8772,3.8885,3.7403,3.5082,3.5148,3.5294,3.5294,3.4817,3.4738,3.4799,3.4156,3.3588,3.3184,0.0,0.0,0.0,0.0,0.0,0.0,0.0,0.0,0.0,0.0,0.0,0.0,0.0,0.0,0.0,0.0,0.0,0.0,0.0,0.0,0.0,0.0,0.0,0.0,0.0,0.0,0.0,0.0,0.0,0.0,0.0,0.0,0.0,0.0,0.0,0.0,0.0,0.0,0.0,0.0,0.0,0.0,0.0,0.0,0.0,0.0,0.0,0.0,0.0,4.0558,0.0,0.0,0.0,0.0,4.079,4.079,4.079,4.079,4.079,4.079,4.1023,4.199,4.2763,4.3556,4.4581,4.5179,4.5572,4.5765,4.5836,4.5491,0.0,0.0,0.0,0.0,0.0,0.0,0.0,0.0,0.0,0.0,0.0,0.0,0.0,0.0,0.0,0.0,0.0,0.0,4.344,4.3406,4.3051,4.2328,4.2287,4.2287,4.2287,4.2328,4.2127,4.163,4.0716,4.0299,4.0318,4.0318,3.9747,3.8772,3.8772,3.7288,3.4868,3.5016,3.5148,3.5148,3.4868,3.452,3.4103,3.3503,3.3022,3.2577,0.0,0.0,0.0,0.0,0.0,0.0,0.0,0.0,0.0,0.0,0.0,0.0,0.0,0.0,0.0,0.0,0.0,0.0,0.0,0.0,0.0,0.0,0.0,0.0,0.0,0.0,0.0,0.0,0.0,0.0,0.0,0.0,0.0,0.0,0.0,0.0,0.0,0.0,0.0,0.0,0.0,0.0,0.0,0.0,0.0,0.0,0.0,0.0,0.0,0.0,4.079,0.0,0.0,0.0,4.079,4.079,4.079,4.079,4.079,4.079,4.1158,4.2744,4.3208,4.3711,4.5278,4.5565,4.5399,0.0,4.5588,0.0,0.0,0.0,0.0,0.0,0.0,0.0,0.0,0.0,0.0,0.0,0.0,0.0,0.0,0.0,0.0,0.0,0.0,0.0,4.344,4.3406,4.3051,4.2328,4.2287,4.2287,4.2287,4.249,4.245,4.2187,4.092,4.0048,3.9606,3.9606,3.9224,3.8546,3.8546,3.7091,3.4698,3.4765,3.4817,3.4868,3.4399,3.3728,3.3059,3.2516,3.1779,3.111,0.0,0.0,0.0,0.0,0.0,0.0,0.0,0.0,0.0,0.0,0.0,0.0,0.0,0.0,0.0,0.0,0.0,0.0,0.0,0.0,0.0,0.0,0.0,0.0,0.0,0.0,0.0,0.0,0.0,0.0,0.0,3.3633,3.403,0.0,0.0,0.0,0.0,0.0,0.0,0.0,0.0,0.0,0.0,0.0,0.0,0.0,0.0,0.0,0.0,0.0,0.0,4.079,4.079,0.0,0.0,0.0,4.079,4.079,4.079,4.079,4.1081,4.226,4.2937,4.3614,4.4852,4.5394,4.5574,4.5187,0.0,0.0,0.0,0.0,0.0,0.0,0.0,0.0,0.0,0.0,0.0,0.0,0.0,0.0,0.0,0.0,0.0,0.0,0.0,4.4277,4.3758,4.3508,4.3159,4.2616,4.2391,4.2346,4.2405,4.2548,4.2274,4.163,4.0903,4.0239,3.9748,3.9592,3.8982,3.8023,3.8023,3.6793,3.4698,3.475,3.4817,3.475,3.475,3.452,3.4128,3.2759,3.1997,3.1616,0.0,0.0,0.0,0.0,0.0,0.0,0.0,0.0,0.0,0.0,0.0,0.0,0.0,0.0,0.0,0.0,0.0,0.0,0.0,0.0,0.0,0.0,0.0,0.0,0.0,0.0,0.0,0.0,0.0,0.0,3.4318,3.4591,3.4717,0.0,3.5414,0.0,0.0,0.0,0.0,0.0,0.0,0.0,0.0,0.0,0.0,0.0,0.0,0.0,0.0,0.0,0.0,0.0,0.0,0.0,0.0,0.0,0.0,4.079,4.079,4.079,4.0984,4.1796,4.2667,4.3537,4.4407,0.0,4.5703,0.0,0.0,0.0,0.0,0.0,0.0,0.0,0.0,0.0,0.0,0.0,0.0,0.0,0.0,0.0,0.0,0.0,0.0,0.0,0.0,4.4354,4.4005,4.3627,4.3212,4.281,4.2494,4.2405,4.2503,4.2588,4.2133,4.1087,4.0932,4.0424,3.9624,3.9341,3.8595,3.7515,3.7639,3.6584,3.4765,3.4817,3.4817,3.4698,3.4831,3.469,3.4313,3.2657,3.1904,3.1548,0.0,0.0,0.0,0.0,0.0,0.0,0.0,0.0,0.0,0.0,0.0,0.0,0.0,0.0,0.0,0.0,0.0,0.0,0.0,0.0,0.0,0.0,0.0,0.0,0.0,0.0,0.0,0.0,0.0,0.0,3.4408,3.524,3.5626,3.5626,3.5684,3.5704,3.5704,0.0,0.0,0.0,0.0,0.0,0.0,0.0,0.0,0.0,0.0,0.0,0.0,0.0,0.0,0.0,0.0,0.0,0.0,0.0,0.0,0.0,4.079,4.079,4.0984,4.1796,4.2667,4.3537,4.4407,0.0,4.5737,4.5524,0.0,0.0,0.0,0.0,0.0,0.0,0.0,0.0,0.0,0.0,0.0,0.0,0.0,0.0,0.0,0.0,0.0,0.0,0.0,4.4354,4.4005,4.3627,4.3212,4.281,4.2609,4.2503,4.2503,4.2685,4.2216,4.1087,4.1196,4.0414,3.8854,3.8528,3.7828,3.6984,3.7468,3.6599,3.4868,3.475,3.4698,3.4631,3.4171,3.3157,3.1909,3.1442,3.057,2.9534,0.0,0.0,0.0,0.0,0.0,0.0,0.0,0.0,0.0,0.0,0.0,0.0,0.0,0.0,0.0,0.0,0.0,0.0,0.0,0.0,0.0,0.0,0.0,0.0,0.0,0.0,0.0,0.0,0.0,3.5209,3.524,3.5549,3.5704,3.5704,3.5704,3.5704,3.5723,3.6245,0.0,0.0,0.0,0.0,0.0,0.0,0.0,0.0,0.0,0.0,0.0,0.0,0.0,0.0,0.0,0.0,0.0,0.0,4.1158,4.1448,4.0945,4.1177,4.1525,4.1293,4.226,4.3382,4.3692,4.4813,4.5786,4.5708,0.0,0.0,0.0,0.0,0.0,0.0,0.0,0.0,0.0,0.0,0.0,0.0,0.0,0.0,0.0,0.0,0.0,0.0,0.0,0.0,4.4005,4.3627,4.3266,4.294,4.2649,4.2584,4.2685,4.2512,4.2074,4.1331,4.103,4.0218,3.9044,3.8518,3.7764,3.6906,3.6801,3.6107,3.5082,3.5016,3.52,3.5433,3.5365,3.4879,3.4074,3.306,3.2035,3.0894,0.0,0.0,0.0,0.0,0.0,0.0,0.0,0.0,0.0,0.0,0.0,0.0,0.0,0.0,0.0,0.0,0.0,0.0,0.0,0.0,0.0,0.0,0.0,0.0,0.0,0.0,0.0,0.0,0.0,0.0,0.0,0.0,3.5839,3.6091,3.6091,3.6091,0.0,0.0,0.0,3.787,0.0,0.0,4.001,0.0,0.0,0.0,0.0,0.0,0.0,0.0,0.0,0.0,0.0,0.0,0.0,0.0,0.0,0.0,4.1351,4.139,4.1467,4.0926,4.2067,4.3305,4.3305,4.4601,4.5766,4.5723,0.0,0.0,0.0,0.0,0.0,0.0,0.0,0.0,0.0,0.0,0.0,0.0,0.0,0.0,0.0,0.0,0.0,0.0,0.0,0.0,4.4048,4.366,4.332,4.2939,4.2706,4.2685,4.2842,4.2396,4.1973,4.1481,4.1019,4.0302,3.9435,3.8596,3.7847,3.7071,3.6321,3.5718,3.5294,3.5213,3.54,3.5665,3.5887,3.5459,3.4536,3.3761,3.261,3.1228,0.0,0.0,0.0,0.0,0.0,0.0,0.0,0.0,0.0,0.0,0.0,0.0,0.0,0.0,0.0,0.0,0.0,0.0,0.0,0.0,0.0,0.0,0.0,0.0,0.0,0.0,0.0,0.0,0.0,0.0,0.0,0.0,3.6149,0.0,3.6922,3.6961,3.698,0.0,3.7947,3.9507,0.0,4.0048,4.079,0.0,0.0,0.0,4.079,4.079,0.0,4.079,0.0,0.0,0.0,0.0,0.0,0.0,0.0,0.0,0.0,0.0,0.0,0.0,0.0,0.0,4.3324,0.0,4.5737,4.5543,0.0,0.0,0.0,0.0,0.0,0.0,0.0,0.0,0.0,0.0,0.0,0.0,0.0,0.0,0.0,0.0,0.0,0.0,0.0,4.4383,4.4091,4.3744,4.3356,4.2822,4.2783,4.2842,4.2882,4.2418,4.1931,4.1481,4.1265,4.0741,3.9833,3.8712,3.7987,3.7472,3.6085,3.5504,3.5504,3.5294,3.5228,3.5251,3.5521,3.4606,3.3014,3.3074,3.1947,3.0292,0.0,0.0,0.0,0.0,0.0,0.0,0.0,0.0,0.0,0.0,0.0,0.0,0.0,0.0,0.0,0.0,0.0,0.0,0.0,0.0,0.0,0.0,0.0,0.0,0.0,0.0,0.0,0.0,0.0,0.0,0.0,0.0,0.0,0.0,3.756,3.8199,3.8779,3.8779,0.0,0.0,4.0191,4.0578,0.0,0.0,0.0,0.0,0.0,4.079,4.079,0.0,4.079,4.0887,0.0,0.0,0.0,0.0,0.0,0.0,4.1293,0.0,0.0,0.0,0.0,0.0,0.0,0.0,4.5381,4.5472,0.0,0.0,0.0,0.0,0.0,0.0,0.0,0.0,0.0,0.0,0.0,0.0,0.0,0.0,0.0,0.0,0.0,0.0,4.4074,4.4277,4.3777,4.3286,4.2956,4.2783,4.2842,4.2862,4.2882,4.2098,4.1674,4.1648,4.1007,4.012,3.8978,3.8476,3.7626,3.6554,3.5797,3.5504,3.5504,3.5439,3.5708,3.6201,3.6677,3.5421,3.328,3.3974,3.2266,2.9664,0.0,0.0,0.0,0.0,0.0,0.0,0.0,0.0,0.0,0.0,0.0,0.0,0.0,0.0,0.0,0.0,0.0,0.0,0.0,0.0,0.0,0.0,0.0,0.0,0.0,0.0,0.0,0.0,0.0,0.0,0.0,0.0,0.0,0.0,0.0,0.0,0.0,0.0,0.0,0.0,4.0597,0.0,0.0,4.079,4.079,0.0,0.0,0.0,4.0848,4.1177,4.1293,0.0,0.0,0.0,0.0,0.0,0.0,0.0,0.0,0.0,0.0,0.0,0.0,0.0,4.4423,4.4914,4.5223,0.0,0.0,0.0,0.0,0.0,0.0,0.0,0.0,0.0,0.0,0.0,0.0,0.0,0.0,0.0,0.0,0.0,0.0,4.2996,4.3924,4.4248,4.3679,4.3142,4.2842,4.2842,4.2862,4.2882,4.2882,4.1973,4.1587,4.1709,4.0866,3.9969,3.8945,3.8404,3.7568,3.6399,3.5797,3.5504,3.5504,3.5504,3.5729,3.6133,3.6828,3.5659,3.3675,3.4358,3.2698,3.0159,0.0,0.0,0.0,0.0,0.0,0.0,0.0,0.0,0.0,0.0,0.0,0.0,0.0,0.0,0.0,0.0,0.0,0.0,0.0,0.0,0.0,0.0,0.0,0.0,0.0,0.0,0.0,0.0,0.0,0.0,0.0,0.0,0.0,0.0,0.0,0.0,0.0,0.0,0.0,4.079,4.079,4.079,0.0,0.0,4.079,0.0,4.079,4.079,4.0906,4.1622,4.1932,0.0,0.0,0.0,0.0,0.0,4.2009,0.0,0.0,0.0,0.0,0.0,0.0,0.0,4.4592,4.4919,4.5137,0.0,0.0,0.0,0.0,0.0,0.0,0.0,0.0,0.0,0.0,0.0,0.0,0.0,0.0,0.0,0.0,4.2779,4.2847,4.2866,4.383,4.4151,4.355,4.3123,4.2882,4.2882,4.2882,4.2882,4.2806,4.1913,4.1543,4.1622,4.0884,4.002,3.9143,3.8515,3.761,3.6615,3.5846,3.5439,3.5424,3.5424,3.5424,3.5499,3.6259,3.5423,3.3834,3.4418,3.3078,3.1057,0.0,0.0,0.0,0.0,0.0,0.0,0.0,0.0,0.0,0.0,0.0,0.0,0.0,0.0,0.0,0.0,0.0,0.0,0.0,0.0,0.0,0.0,0.0,0.0,0.0,0.0,0.0,0.0,0.0,0.0,0.0,0.0,0.0,0.0,0.0,0.0,0.0,0.0,0.0,4.079,4.079,0.0,4.079,4.079,4.079,4.079,4.079,4.079,4.081,0.0,4.1467,4.197,0.0,0.0,0.0,0.0,0.0,0.0,0.0,0.0,0.0,0.0,0.0,0.0,4.4881,4.4843,4.4674,0.0,4.4707,0.0,0.0,0.0,0.0,0.0,0.0,0.0,0.0,0.0,0.0,0.0,0.0,0.0,0.0,4.1901,4.1969,4.2034,4.3181,4.3416,4.2404,4.2705,4.2882,4.2882,4.2882,4.2711,4.2338,4.1785,4.141,4.1283,4.0758,3.9783,3.8388,3.8277,3.7291,3.5718,3.5554,3.5198,3.4743,3.4743,3.4743,3.4817,3.5545,3.4484,3.271,3.3544,3.241,3.0515,0.0,0.0,0.0,0.0,0.0,0.0,0.0,0.0,0.0,0.0,0.0,0.0,0.0,0.0,0.0,0.0,0.0,0.0,0.0,0.0,0.0,0.0,0.0,0.0,0.0,0.0,0.0,0.0,0.0,0.0,0.0,0.0,0.0,0.0,0.0,0.0,0.0,0.0,4.079,4.079,4.079,0.0,4.079,4.079,4.079,4.079,4.079,4.1061,4.1332,4.0945,4.1622,0.0,0.0,4.2299,4.2647,0.0,4.2647,4.2634,0.0,0.0,0.0,4.3981,0.0,0.0,0.0,4.4833,4.4578,4.4745,4.4629,4.4515,0.0,0.0,0.0,0.0,0.0,0.0,0.0,0.0,0.0,0.0,0.0,0.0,0.0,4.1659,4.1669,4.1603,4.2915,4.3177,4.2063,4.2559,4.2882,4.2882,4.2882,4.2673,4.2198,4.1803,4.149,4.1192,4.0155,3.9024,3.7883,3.7456,3.6523,3.5202,3.5419,3.5133,3.4595,3.4595,3.4259,3.3825,3.4347,3.3716,3.2457,3.2827,3.1863,3.0448,0.0,0.0,0.0,0.0,0.0,0.0,0.0,0.0,0.0,0.0,0.0,0.0,0.0,0.0,0.0,0.0,0.0,0.0,0.0,0.0,0.0,0.0,0.0,3.8206,0.0,0.0,0.0,0.0,0.0,0.0,0.0,0.0,0.0,0.0,0.0,0.0,0.0,0.0,0.0,4.1035,0.0,4.079,4.079,4.079,4.079,4.079,4.0803,4.1228,4.1712,4.1209,0.0,4.2957,4.2415,4.2725,0.0,0.0,0.0,0.0,0.0,0.0,0.0,0.0,0.0,4.4795,0.0,0.0,0.0,0.0,0.0,0.0,0.0,0.0,0.0,0.0,0.0,0.0,0.0,0.0,0.0,0.0,0.0,0.0,0.0,4.1901,4.1704,4.1126,4.2696,4.3162,4.1976,4.2559,4.2882,4.2882,4.2882,4.2634,4.2074,4.1821,4.149,4.1053,3.9521,3.8387,3.7593,3.6694,3.5801,3.494,3.5175,3.4986,3.4461,3.4327,3.3728,3.2846,3.3171,3.2949,3.2395,3.2259,3.1578,3.0633,3.4212,3.468,0.0,0.0,0.0,0.0,0.0,0.0,0.0,0.0,0.0,0.0,0.0,0.0,0.0,0.0,0.0,0.0,3.7945,0.0,0.0,0.0,0.0,0.0,3.8199,0.0,0.0,0.0,0.0,0.0,0.0,0.0,0.0,0.0,4.079,0.0,0.0,0.0,4.126,0.0,4.1112,4.079,0.0,4.079,4.079,4.0803,4.0808,4.0866,4.104,0.0,4.2085,4.2337,0.0,4.3227,4.3305,0.0,0.0,0.0,0.0,0.0,0.0,0.0,4.4606,0.0,0.0,0.0,4.4515,4.4524,0.0,0.0,0.0,0.0,0.0,0.0,0.0,0.0,0.0,0.0,0.0,0.0,0.0,0.0,0.0,0.0,4.1957,4.0052,4.2187,4.3043,4.1741,4.2428,4.2882,4.2882,4.2882,4.248,4.1569,4.1648,4.1311,4.0566,3.9391,3.8387,3.7593,3.6694,3.5801,3.4878,3.4741,3.4394,3.3851,3.3381,3.2846,3.2314,3.2489,3.2273,3.1888,3.1991,3.1411,3.0683,3.5027,3.5258,0.0,0.0,0.0,0.0,0.0,0.0,0.0,0.0,0.0,0.0,0.0,0.0,0.0,0.0,0.0,3.8839,0.0,0.0,0.0,0.0,0.0,0.0,0.0,0.0,0.0,0.0,4.0616,0.0,0.0,0.0,0.0,0.0,4.079,0.0,4.1524,0.0,4.1299,0.0,0.0,0.0,0.0,4.079,4.1112,4.1543,4.1559,4.1881,4.2431,0.0,4.3582,0.0,0.0,0.0,0.0,0.0,0.0,0.0,0.0,0.0,0.0,0.0,0.0,0.0,4.4524,0.0,4.4515,0.0,0.0,0.0,0.0,0.0,0.0,0.0,0.0,0.0,0.0,0.0,0.0,0.0,0.0,0.0,0.0,0.0,0.0,0.0,0.0,4.2902,4.1573,4.2332,4.288,4.2882,4.2882,4.244,4.1525,4.1692,4.1356,4.0468,3.8688,3.7669,3.7279,3.5823,3.4963,3.4637,3.4614,3.4327,3.3796,3.3255,3.2646,3.2169,3.1716,3.1492,3.1302,3.084,3.0586,3.0411,3.5849,0.0,0.0,0.0,0.0,0.0,0.0,0.0,0.0,0.0,0.0,0.0,3.8358,3.8425,0.0,0.0,3.9412,3.9786,0.0,0.0,4.079,4.079,4.079,0.0,0.0,0.0,0.0,0.0,0.0,0.0,0.0,0.0,0.0,0.0,0.0,4.1144,4.171,0.0,0.0,4.2381,4.1505,4.1156,4.1156,4.1163,4.1698,4.2489,4.2737,4.3233,4.392,4.5037,4.5382,0.0,4.6345,0.0,0.0,0.0,0.0,0.0,4.5244,0.0,0.0,0.0,0.0,0.0,0.0,0.0,0.0,0.0,0.0,0.0,0.0,0.0,0.0,0.0,0.0,0.0,0.0,0.0,0.0,0.0,0.0,0.0,0.0,0.0,0.0,4.0382,4.2168,4.2886,4.1803,4.242,4.2822,4.2862,4.2768,4.2338,4.1587,4.1666,4.1161,3.9997,3.802,3.692,3.6519,3.5068,3.4342,3.4166,3.4301,3.4056,3.352,3.2988,3.2588,3.2096,3.1434,3.1136,3.0924,3.0265,3.0077,3.0124,3.6702,3.6113,0.0,0.0,0.0,0.0,0.0,0.0,0.0,0.0,0.0,0.0,0.0,0.0,0.0,0.0,0.0,4.0752,4.0752,0.0,4.079,4.079,4.079,4.079,0.0,0.0,0.0,0.0,0.0,0.0,0.0,0.0,0.0,0.0,0.0,4.0815,4.0897,4.171,4.2567,4.3269,4.2396,4.2047,4.2067,0.0,4.2606,4.3474,4.4311,0.0,0.0,4.6651,4.7214,0.0,0.0,0.0,0.0,0.0,0.0,0.0,0.0,0.0,0.0,4.4532,0.0,0.0,0.0,0.0,4.4515,0.0,0.0,0.0,0.0,0.0,0.0,0.0,0.0,0.0,0.0,0.0,0.0,0.0,0.0,0.0,0.0,0.0,0.0,4.213,4.2827,4.3087,4.2613,4.2727,4.2783,4.2783,4.2436,4.2032,4.1709,4.1373,4.044,3.8856,3.7686,3.6437,3.5237,3.4638,3.4149,3.3652,3.3775,3.352,3.2988,3.2444,3.2255,3.2169,3.1703,3.1347,3.0976,3.0696,3.0413,3.0023,0.0,0.0,0.0,0.0,0.0,0.0,0.0,3.8967,0.0,0.0,0.0,0.0,0.0,4.0223,4.0391,0.0,0.0,4.079,4.079,4.079,0.0,0.0,0.0,4.079,0.0,0.0,0.0,0.0,0.0,0.0,0.0,0.0,0.0,0.0,0.0,4.1447,0.0,0.0,0.0,0.0,0.0,4.4164,4.4622,0.0,0.0,4.5223,4.6111,4.6802,0.0,4.8627,4.8635,4.8172,4.8319,4.7738,4.6982,4.6831,4.6436,0.0,0.0,0.0,4.5539,4.471,0.0,0.0,0.0,0.0,0.0,0.0,0.0,0.0,0.0,0.0,0.0,0.0,0.0,0.0,0.0,0.0,0.0,0.0,0.0,0.0,0.0,0.0,0.0,4.2044,4.2087,4.2282,0.0,4.2627,4.2706,4.2802,4.2396,4.199,4.1587,4.1265,4.0281,3.864,3.7519,3.6633,3.6007,3.4898,3.4378,3.4346,3.3935,3.352,3.2988,3.2444,3.2182,3.2096,3.1421,3.0563,2.9742,3.0279,2.9827,2.8755,3.8491,0.0,0.0,0.0,0.0,0.0,0.0,0.0,0.0,0.0,4.0668,0.0,4.0668,0.0,4.0733,0.0,4.1029,4.11,4.081,4.1351,0.0,4.1235,4.1525,0.0,0.0,0.0,0.0,0.0,0.0,4.079,0.0,0.0,0.0,0.0,0.0,4.1408,4.2455,0.0,4.3152,0.0,0.0,4.6014,0.0,0.0,4.6647,4.6993,0.0,4.8005,4.8625,4.9406,4.9301,4.8871,4.9032,4.8444,4.7622,4.7184,4.6691,4.6178,4.5803,4.5653,0.0,4.4683,4.4595,0.0,4.4524,0.0,0.0,0.0,0.0,0.0,0.0,0.0,0.0,0.0,0.0,0.0,0.0,0.0,0.0,0.0,0.0,0.0,0.0,0.0,4.2693,4.2393,4.2232,4.228,0.0,0.0,4.2649,4.2802,4.2257,4.1846,4.1587,4.1036,3.9808,3.7986,3.7235,3.653,3.5796,3.4654,3.4288,3.4508,3.3835,3.3185,3.2717,3.2314,3.2182,3.2096,3.1495,3.0271,2.9025,2.9353,2.8322,2.6741,3.9108,0.0,0.0,0.0,3.893,0.0,0.0,0.0,4.079,0.0,4.079,4.079,4.079,4.0778,4.0778,4.079,4.1474,4.159,4.0817,4.2267,0.0,0.0,4.2744,4.2783,4.1951,0.0,0.0,0.0,0.0,0.0,0.0,0.0,0.0,0.0,4.0906,0.0,4.1272,4.3726,4.4766,4.4971,4.7602,4.7559,4.6172,4.8686,0.0,4.8662,4.8474,4.8411,4.8497,4.9141,4.9355,4.949,5.0202,4.9855,4.9007,4.8142,4.7105,4.6049,4.5103,4.4712,4.4571,4.4515,0.0,0.0,0.0,0.0,4.4515,0.0,0.0,0.0,0.0,0.0,0.0,0.0,0.0,0.0,0.0,0.0,0.0,0.0,0.0,0.0,0.0,4.3098,4.3122,4.314,4.3142,4.2957,0.0,0.0,0.0,4.2745,4.1948,4.1543,4.1648,4.0741,3.9177,3.6951,3.6967,3.616,3.4679,3.3992,3.3829,3.4031,3.3306,3.2717,3.2182,3.2182,3.2182,3.2182,3.1716,3.0468,2.87,2.7879,2.61,2.4225,4.0123,4.0331,4.0384,0.0,4.0294,4.0526,0.0,0.0,0.0,0.0,4.066,4.0646,4.079,4.0519,4.0406,4.0569,4.0633,0.0,0.0,0.0,0.0,4.0892,4.1241,4.1332,4.11,4.11,0.0,4.079,0.0,0.0,4.079,0.0,0.0,0.0,0.0,0.0,4.5556,4.5576,4.5551,4.5744,4.8319,4.8578,0.0,0.0,5.0159,5.0021,4.9949,4.9931,4.9969,5.0125,5.0183,5.0106,4.9559,4.9245,4.8834,4.7781,4.7252,4.6807,4.5863,4.5574,4.5387,4.4665,4.4515,4.4515,0.0,0.0,0.0,0.0,0.0,0.0,0.0,0.0,0.0,0.0,0.0,0.0,0.0,0.0,0.0,0.0,0.0,0.0,4.1398,4.1707,4.1977,4.2229,4.2087,4.2152,0.0,0.0,0.0,4.2287,4.1778,4.1366,4.1019,4.0451,3.9277,3.7502,3.764,3.7241,3.6294,3.5045,3.4645,3.4862,3.3559,3.2717,3.2182,3.2182,3.2182,3.2096,3.1434,2.934,2.6464,2.5241,2.4724,2.4437,4.0251,0.0,0.0,4.0539,0.0,0.0,4.066,0.0,0.0,4.066,4.0569,0.0,4.1261,4.1118,4.1197,4.1673,4.1963,0.0,4.1588,0.0,0.0,4.2124,4.2603,4.2483,4.1655,4.1636,0.0,4.066,0.0,0.0,4.1313,0.0,0.0,0.0,0.0,4.4699,4.6157,4.6795,4.7443,4.814,4.9591,0.0,0.0,4.9888,4.9863,4.9182,4.9564,4.9765,4.9752,4.9302,4.9124,4.9045,4.8467,4.8286,4.8109,4.7087,4.6781,4.6566,4.5601,4.5321,4.5199,4.4627,4.4515,4.4515,4.4515,4.4515,4.4515,0.0,0.0,0.0,0.0,0.0,0.0,0.0,0.0,0.0,0.0,0.0,0.0,0.0,4.0621,0.0,4.0922,4.1521,4.1926,4.1988,4.2032,4.2219,0.0,0.0,0.0,4.2151,4.1735,4.1258,4.0802,4.0137,3.9104,3.7711,3.7654,3.729,3.6733,3.511,3.4633,3.5085,3.3353,3.2444,3.2182,3.2182,3.1861,3.1116,2.9173,2.7095,2.5028,2.3471,2.3305,2.3694,3.9916,0.0,0.0,0.0,0.0,0.0,0.0,4.0473,0.0,4.0642,0.0,4.095,4.1967,4.203,4.2324,4.3091,0.0,4.3944,4.3241,4.4568,4.5001,4.4066,4.4776,4.4455,4.2814,4.2757,4.2123,0.0,0.0,0.0,0.0,0.0,0.0,0.0,0.0,0.0,0.0,4.7675,4.9387,5.0494,5.0706,4.999,4.8881,4.9701,4.8909,4.7491,4.8249,4.8631,4.8666,4.7701,4.7397,4.7397,4.7397,4.7397,4.7245,4.6353,4.6081,4.5885,4.4858,4.4578,4.4578,4.4496,4.4515,4.4515,4.4515,4.4515,4.4515,4.4515,4.4515,0.0,0.0,0.0,0.0,0.0,0.0,0.0,0.0,0.0,0.0,0.0,0.0,0.0,0.0,4.1988,4.2308,4.1959,4.2432,4.2691,0.0,0.0,0.0,0.0,4.17,0.0,4.0707,0.0,3.8874,3.7859,3.7459,3.7086,3.6673,3.4785,3.4307,3.4875,3.3017,3.2182,3.2182,3.2182,3.1368,2.9796,2.6356,2.4791,2.4231,2.256,2.2268,2.26,4.012,0.0,0.0,0.0,0.0,4.0196,4.002,4.0286,4.0739,4.1396,4.1208,4.1374,4.2393,4.2202,4.212,4.2455,4.2469,0.0,0.0,0.0,0.0,4.3201,4.3535,4.352,4.3202,4.3076,4.2893,0.0,0.0,0.0,0.0,0.0,0.0,0.0,0.0,0.0,4.7488,4.8677,0.0,4.8369,4.9786,4.9262,4.7777,4.8631,4.832,4.7416,4.7567,4.7631,4.7663,4.746,4.7397,4.7397,4.7397,4.7397,4.7245,4.6353,4.6074,4.5806,4.4877,4.4551,4.4496,4.4515,4.4515,4.4515,4.4515,4.4515,4.4515,4.4515,4.4515,4.4515,4.4515,0.0,0.0,0.0,0.0,0.0,0.0,0.0,0.0,0.0,0.0,0.0,0.0,0.0,0.0,0.0,4.2141,4.2691,0.0,0.0,0.0,0.0,0.0,0.0,0.0,0.0,0.0,3.8608,3.8261,3.7882,3.7451,3.5435,3.4691,3.4875,3.2804,3.2036,3.2182,3.2182,3.1209,2.9356,2.622,2.4791,2.4276,2.3075,2.2903,2.3318,0.0,0.0,0.0,0.0,0.0,0.0,0.0,4.103,0.0,4.138,4.1597,4.2123,4.3155,4.3099,4.3198,4.377,4.3719,4.3715,4.3849,4.3935,4.3978,4.398,4.4518,0.0,4.3426,4.3748,4.3536,4.2757,0.0,0.0,0.0,0.0,0.0,0.0,0.0,4.7031,0.0,0.0,0.0,4.9022,4.9423,4.8977,4.806,4.8041,4.751,4.6771,4.6771,4.6487,4.6165,4.662,4.6771,4.6695,4.6241,4.6108,4.6032,4.5584,4.542,4.5274,4.4799,4.4605,4.4524,4.4515,4.4515,4.4515,4.4515,4.4515,4.4515,4.4515,4.4515,4.4515,4.4542,4.4277,0.0,0.0,0.0,0.0,0.0,0.0,0.0,0.0,0.0,0.0,0.0,0.0,0.0,0.0,0.0,0.0,0.0,0.0,0.0,0.0,0.0,0.0,0.0,0.0,0.0,3.8805,3.8189,3.7419,3.6541,3.5289,3.4464,3.3761,3.2552,3.2109,3.2128,3.0672,2.9658,2.8702,2.5324,2.3918,2.3738,2.3009,2.3166,2.3684,0.0,3.9865,0.0,0.0,4.0788,0.0,4.1321,4.1997,4.2304,4.1707,4.2134,4.2901,4.3923,4.4018,4.4306,4.4992,4.5049,4.5071,4.5096,4.5118,4.5074,4.4985,4.5631,4.5356,4.3947,4.4505,4.4232,0.0,0.0,0.0,0.0,0.0,0.0,0.0,0.0,0.0,0.0,0.0,4.9171,4.9563,4.8934,4.8471,4.8079,4.7397,4.6639,4.5918,4.5918,4.5483,4.5009,4.5691,4.5918,4.5805,4.5122,4.4895,4.4895,4.4895,4.4846,4.4789,4.4738,4.4659,4.4578,4.4515,4.4515,4.4515,4.4515,4.4515,4.4515,4.4515,4.4515,4.4524,4.4605,4.4578,0.0,0.0,0.0,0.0,0.0,0.0,0.0,0.0,0.0,0.0,0.0,0.0,0.0,0.0,0.0,4.245,4.2609,4.2609,0.0,0.0,0.0,4.0984,3.9969,0.0,3.875,0.0,3.786,3.6789,3.5445,3.4927,3.4002,3.2773,3.2299,3.1955,3.1581,2.8848,2.7883,2.7723,2.4499,2.329,2.3422,2.2966,2.3156,2.3615,0.0,0.0,0.0,0.0,0.0,0.0,0.0,4.2697,4.3239,4.335,4.3271,4.3536,4.4344,4.4447,4.4484,4.4578,4.4578,4.4648,4.4843,4.4825,4.4943,4.5243,4.5339,4.532,4.5207,4.5178,4.5071,0.0,0.0,0.0,0.0,0.0,0.0,0.0,0.0,0.0,0.0,4.7568,4.7625,4.7675,4.758,4.71,4.643,4.6335,4.5786,4.5028,4.5028,4.4971,4.4914,4.499,4.5028,4.5009,4.4933,4.4895,4.4895,4.4895,4.4846,4.4789,4.4738,4.4659,4.4578,4.4515,4.4515,4.4515,4.4515,4.4515,4.4515,4.4515,4.457,4.4605,4.4685,4.4738,4.4751,0.0,0.0,0.0,0.0,0.0,0.0,0.0,0.0,0.0,0.0,0.0,0.0,0.0,0.0,4.2706,4.2609,4.2706,4.2374,4.1525,0.0,4.0827,3.947,3.9007,0.0,3.8173,3.7685,3.6789,3.5445,3.4608,3.3691,3.2773,3.2027,3.1203,3.0144,2.7468,2.6529,2.6481,2.4542,2.3947,2.4125,2.3139,2.2908,2.29,0.0,0.0,0.0,0.0,0.0,0.0,0.0,4.3509,4.4054,4.4124,4.4062,4.4139,4.4477,4.4515,4.4515,4.4515,4.4515,4.4524,4.4621,4.4674,4.4777,4.4929,4.5489,4.5574,4.5129,4.5574,4.5523,0.0,0.0,0.0,0.0,0.0,0.0,0.0,0.0,4.7479,4.7397,4.7397,4.7397,4.7359,4.6866,4.6487,4.6146,4.5615,4.5198,4.4895,4.4895,4.4895,4.499,4.5501,4.5331,4.4895,4.4895,4.4895,4.4895,4.4895,4.4846,4.4796,4.4789,4.4685,4.4578,4.4551,4.4542,4.4515,4.4515,4.4515,4.4515,4.4515,4.4551,4.4632,4.4738,4.4764,4.4789,0.0,0.0,0.0,0.0,0.0,0.0,0.0,0.0,4.4484,0.0,0.0,0.0,0.0,0.0,4.2685,4.2786,4.2512,4.211,4.1525,0.0,4.0528,3.9418,3.9007,3.8567,3.8116,3.7685,3.6375,3.4273,3.4366,3.3568,3.2176,3.1221,3.0526,2.998,2.7321,2.6384,2.6492,2.4664,2.4118,2.4321,2.3227,2.2829,2.2696,4.2435,0.0,4.268,0.0,4.3396,4.374,4.3705,4.4139,4.4515,4.4515,4.4515,4.4515,4.4515,4.4515,4.4515,4.4515,4.4515,4.4627,4.4899,4.4973,4.5122,4.5455,4.6093,0.0,4.5653,4.6241,4.6241,4.5634,4.5634,0.0,0.0,0.0,0.0,0.0,4.8106,4.8061,4.7757,4.751,4.7264,4.698,4.6146,4.5824,4.5748,4.5122,4.4895,4.4933,4.5198,4.5274,4.5407,4.6259,4.6146,4.5634,4.5634,4.5634,4.5634,4.5634,4.5609,4.5502,4.5249,4.5096,4.496,4.4689,4.4578,4.4551,4.4551,4.4551,4.4551,4.4578,4.4632,4.4693,4.4815,4.477,4.477,4.487,0.0,0.0,0.0,0.0,0.0,0.0,4.4681,4.4402,4.3943,0.0,0.0,0.0,0.0,0.0,4.2824,4.2374,0.0,0.0,0.0,0.0,0.0,3.8952,3.8528,3.7902,3.7642,3.61,3.3486,3.3412,3.2611,3.1216,3.0012,2.937,2.8908,2.6663,2.5877,2.6069,2.4763,2.4328,2.4352,2.3133,2.2453,2.1979,4.3396,4.3591,4.3812,4.4625,4.4726,4.4667,4.4587,4.4524,4.4515,4.4515,4.4515,4.4515,4.4515,4.4515,4.4515,4.4515,4.4515,4.4899,4.5829,4.5866,4.6307,0.0,0.0,4.7326,4.7359,4.7378,4.7378,4.7359,0.0,0.0,4.7378,0.0,4.8862,4.8731,4.9725,4.9605,4.8628,4.7757,4.6942,4.6146,4.5274,4.4914,4.4914,4.4895,4.4895,4.5009,4.588,4.6184,4.6297,4.7112,4.7378,4.7359,4.7359,4.7359,4.7359,4.7359,4.7359,4.7188,4.6315,4.6081,4.5847,4.4919,4.4712,4.4712,4.4712,4.4712,4.4738,4.477,4.4815,4.484,4.487,4.4895,4.4895,4.4895,0.0,0.0,0.0,0.0,0.0,0.0,4.5192,4.4972,4.4438,0.0,0.0,0.0,0.0,0.0,0.0,0.0,0.0,4.1525,4.1065,0.0,3.8805,3.8805,3.8359,3.7539,3.748,3.61,3.3456,3.1533,3.0411,2.9852,2.8543,2.7408,2.6444,2.5062,2.4646,2.4873,2.4992,2.4769,2.4156,2.2821,2.1561,2.0481,4.4297,4.4492,4.4543,4.4758,4.477,4.4952,4.5458,4.5545,4.5706,4.6196,4.6271,4.6262,4.6204,4.519,4.4515,0.0,4.4524,4.4691,0.0,4.5081,4.5274,4.559,4.5641,4.5666,4.5691,4.5691,4.5691,4.5691,0.0,0.0,0.0,4.8637,4.877,4.8704,4.9036,4.8346,4.698,4.6695,4.6089,4.5293,4.5009,4.4895,4.4952,4.5558,4.5786,4.588,4.6714,4.7018,4.715,4.7984,4.8287,4.8363,4.8932,4.8306,4.7397,4.7397,4.7397,4.734,4.7049,4.6568,4.6025,4.5734,4.5172,4.4712,4.4712,4.4712,4.4738,4.4789,4.4796,4.4821,4.487,4.4895,4.4895,4.4895,0.0,0.0,0.0,0.0,0.0,0.0,4.4448,4.4162,0.0,4.366,0.0,0.0,0.0,0.0,0.0,0.0,0.0,0.0,4.0802,0.0,3.8805,3.8898,3.8455,3.7464,3.6544,3.482,3.2382,3.1335,3.0294,2.9386,2.8499,2.7456,2.6203,2.4978,2.4646,2.479,2.4383,2.4306,2.408,2.2206,2.1348,2.0902,4.4776,4.4895,4.487,4.4796,4.5079,4.5451,4.5946,4.6232,4.6581,4.7043,4.709,4.7051,4.6993,4.6073,0.0,4.5453,4.5482,4.565,4.5979,4.5806,4.5866,4.6214,4.5988,4.5843,4.5843,0.0,0.0,4.6335,4.6866,4.751,4.8211,4.8211,4.8211,4.8211,4.8211,4.7453,4.6203,4.6203,4.588,4.5388,4.5388,4.5577,4.5899,4.643,4.6639,4.6752,4.7586,4.7889,4.8003,4.8856,4.914,4.9235,4.9728,4.9178,4.8325,4.8325,4.8325,4.8268,4.7965,4.7484,4.7004,4.6682,4.5911,4.5262,4.5262,4.5262,4.5356,4.571,4.5521,4.5338,4.5388,4.5122,4.4895,4.4895,0.0,4.4919,4.5014,0.0,0.0,0.0,0.0,0.0,0.0,4.3631,0.0,0.0,0.0,0.0,0.0,0.0,0.0,4.1481,4.0724,0.0,3.8805,3.8936,3.8495,3.7464,3.5612,3.3737,3.1868,3.103,2.9848,2.8505,2.8234,2.7145,2.5648,2.4979,2.4622,2.4394,2.407,2.3727,2.3221,2.1859,2.1103,2.0541,4.487,4.4895,0.0,0.0,4.5552,0.0,4.6172,4.6751,4.7212,4.7288,4.722,4.7181,4.7181,4.7181,4.7181,4.7181,0.0,0.0,0.0,4.7589,4.7569,4.8455,4.778,0.0,4.7397,4.8193,4.8628,4.8685,4.8685,4.8306,4.7567,4.7567,4.7529,4.7491,4.7491,4.7036,4.6278,4.6278,4.6278,4.6278,4.6278,4.6733,4.7397,4.7472,4.7491,4.7605,4.8458,4.8761,4.8894,4.9633,4.9898,4.9898,4.9898,4.9898,4.9898,4.9898,4.9898,4.9728,4.8988,4.8723,4.8496,4.7681,4.6885,4.6278,4.6278,4.6278,4.6487,4.7245,4.679,4.6278,4.6278,4.5615,4.5066,4.4965,4.4965,4.4976,4.4938,0.0,0.0,0.0,0.0,0.0,0.0,4.3918,4.3675,0.0,0.0,0.0,0.0,0.0,4.1481,4.1437,4.0676,3.9764,3.8805,3.8882,3.839,3.7188,3.4683,3.2904,3.174,3.0676,2.9201,2.7437,2.7754,2.6623,2.479,2.4981,2.4599,2.3925,2.3975,2.3084,2.1766,2.168,2.0857,1.9715,0.0,0.0,4.5103,4.5761,4.6019,4.6535,4.7794,4.806,4.8296,4.8945,4.8991,4.8961,4.8961,4.8961,4.901,4.905,4.7881,4.725,4.7438,4.7324,4.7351,4.7531,4.7343,4.7284,4.7311,4.7545,4.7988,4.8685,4.8685,4.8894,4.9311,4.9311,4.8969,4.8382,4.8382,4.7908,4.7112,4.7112,4.7112,4.7112,4.7112,4.7226,4.7472,4.8136,4.8382,4.8496,4.9311,4.9614,4.9633,4.9822,4.9898,4.9898,4.9898,4.9898,4.9898,4.9898,4.9898,4.9841,4.9652,4.9159,4.8647,4.8439,4.7738,4.7112,4.7112,4.7112,4.7169,4.7359,4.7245,4.7112,4.7112,4.6942,4.6531,4.5658,4.5563,4.5084,4.3697,4.3543,0.0,0.0,4.3217,4.3275,4.3513,4.3582,4.3479,0.0,0.0,0.0,0.0,0.0,4.1366,4.0972,4.022,3.947,3.8805,3.859,3.709,3.4425,3.3789,3.2323,3.0164,3.0361,2.9157,2.7046,2.7769,2.6681,2.4574,2.4981,2.4599,2.3852,2.339,2.2649,2.169,2.0944,2.0411,2.0108,4.487,4.4895,4.516,4.6051,4.6455,4.7103,4.8407,4.8815,4.9106,4.9548,4.9593,4.9593,4.9593,4.9623,4.9663,4.975,4.8891,4.8334,4.8334,4.805,4.7888,4.7861,4.7492,4.7311,4.7345,4.7742,4.8204,4.8685,4.8685,4.8704,4.8761,4.8761,4.8515,4.8098,4.8098,4.7832,4.7397,4.7397,4.7624,4.7984,4.7984,4.8211,4.859,4.9064,4.9235,4.9292,4.9728,4.9898,4.9898,4.9898,4.9898,4.9898,4.9898,4.9898,4.9898,4.9898,4.9898,4.9898,4.9898,4.9576,4.9159,4.878,4.8325,4.7984,4.7984,4.7984,4.8098,4.8458,4.8249,4.7984,4.7984,4.7564,4.7022,4.6384,4.5817,4.5088,4.4065,4.3287,0.0,4.2922,4.2734,4.2796,4.3214,4.3358,4.3304,4.3104,0.0,0.0,4.1931,4.1455,4.1065,4.0802,4.0003,3.9348,3.8805,3.7648,3.5861,3.3517,3.2913,3.1591,2.9741,3.0235,2.9206,2.7043,2.7841,2.6904,2.4646,2.5052,2.4515,2.3475,2.3106,2.2209,2.1011,2.0489,2.0186,1.9951,4.487,4.4895,4.5217,4.6203,4.6883,4.7624,4.8607,4.9229,4.9593,4.9593,4.9593,4.9604,4.9604,4.9663,4.975,4.9807,4.9778,4.9721,4.9721,4.9136,4.8785,4.8758,4.8121,4.7749,4.7749,4.8496,4.8875,4.8875,4.8875,4.8496,4.7776,4.7776,4.7776,4.7776,4.7776,4.7776,4.7776,4.7776,4.8193,4.8875,4.8875,4.9273,4.9898,4.9898,4.9898,4.9898,4.9898,4.9898,4.9898,4.9898,4.9898,4.9898,4.9898,4.9898,4.9898,4.9898,4.9898,4.9898,4.9898,4.9898,4.9728,4.9045,4.8875,4.8875,4.8875,4.8875,4.9064,4.9746,4.9349,4.8875,4.8875,4.8041,4.7325,4.7135,4.6102,4.5253,4.492,0.0,4.2577,4.325,4.2741,4.2631,4.332,4.3524,4.3506,4.3299,4.2868,0.0,0.0,4.1088,4.0754,4.0611,3.9851,3.9206,3.8639,3.6531,3.482,3.3502,3.2205,3.0964,2.9837,3.0136,2.9125,2.7165,2.7819,2.6829,2.479,2.504,2.4276,2.2957,2.2809,2.1766,2.0264,2.0186,1.9951,1.9566,4.4914,4.4895,4.5388,4.6942,4.7216,4.773,4.9306,4.9518,4.9521,4.9521,4.9563,4.9604,4.9663,4.975,4.9807,4.9871,4.9871,4.9843,4.9778,4.9693,4.9589,4.9532,4.94,4.9353,4.9409,4.9625,4.9709,4.9709,4.9709,4.9633,4.95,4.95,4.95,4.95,4.95,4.95,4.95,4.95,4.9576,4.9709,4.9709,4.9784,4.9898,4.9898,4.9898,4.9898,4.9898,4.9898,4.9898,4.9898,4.9898,4.9898,4.9898,4.9898,4.9898,4.9898,4.9898,4.9898,4.9898,4.9898,4.986,4.9728,4.9709,4.9709,4.9709,4.9709,4.9746,4.986,4.9784,4.9709,4.9709,4.9391,4.8788,4.7815,4.7228,4.6268,4.4564,0.0,4.4317,4.3896,4.4191,4.4525,4.4768,4.4809,4.4669,4.4232,4.3504,4.2732,4.186,4.1194,4.0466,3.961,3.9152,3.8511,3.77,3.6266,3.482,3.3502,3.2205,3.0964,2.9808,2.9435,2.8484,2.7072,2.6918,2.6062,2.479,2.4311,2.3694,2.2957,2.2059,2.1165,2.0264,1.9872,1.9636,1.9566,4.4895,4.4895,4.5293,4.6544,4.7,4.7636,4.8919,4.937,4.9582,4.9593,4.9682,4.9721,4.975,4.9816,4.9871,4.9898,4.9898,4.9898,4.9843,4.9843,4.9843,4.9816,4.9816,4.9816,4.9843,4.9898,4.9898,4.9898,4.9898,4.9898,4.9898,4.9898,4.9898,4.9898,4.9898,4.9898,4.9898,4.9898,4.9898,4.9898,4.9898,4.9898,4.9898,4.9898,4.9898,4.9898,4.9898,4.9898,4.9898,4.9898,4.9898,4.9898,4.9898,4.9898,4.9898,4.9898,4.9898,4.9898,4.9898,4.9898,4.9898,4.9898,4.9898,4.9898,4.9898,4.9898,4.9898,4.9898,4.9898,4.9852,4.9722,4.9469,4.9089,4.8386,4.7537,0.0,0.0,4.5047,4.4701,4.4319,4.4588,4.4863,4.4923,4.5047,4.4905,4.4432,4.3881,4.305,4.1971,4.1319,4.051,3.9435,3.8772,3.8132,3.7539,3.5444,3.4076,3.3502,3.1547,3.0401,2.9974,2.9609,2.8608,2.7206,2.6942,2.6049,2.4718,2.4154,2.3475,2.2713,2.1832,2.0857,1.9872,1.9715,1.9557,1.939,4.4895,4.4895,4.516,4.6051,4.6781,4.7531,4.8455,4.9183,4.9634,4.9692,4.975,4.9807,4.9807,4.9871,4.9898,4.9898,4.9898,4.9898,4.9898,4.9898,4.9898,4.9898,4.9898,4.9898,4.9898,4.9898,4.9898,4.9898,4.9898,4.9898,4.9898,4.9898,4.9898,4.9898,4.9898,4.9898,4.9898,4.9898,4.9898,4.9898,4.9898,4.9898,4.9898,4.9898,4.9898,4.9898,4.9898,4.9898,4.9898,4.9898,4.9898,4.9898,4.9898,4.9898,4.9898,4.9898,4.9898,4.9898,4.9898,4.9898,4.9898,4.9898,4.9898,4.9898,4.9898,5.005,5.0126,4.9936,5.005,5.0071,4.9596,4.9296,4.9005,4.873,0.0,0.0,0.0,4.5924,4.5333,4.5107,4.5221,4.5308,4.5308,4.5479,4.5358,4.4784,4.4296,4.3463,4.2135,4.1529,4.0624,3.9345,3.8551,3.7902,3.748,3.482,3.3517,3.3441,3.0997,2.9822,2.9865,2.9398,2.8452,2.7152,2.6689,2.5756,2.449,2.379,2.3021,2.2264,2.1385,2.0479,1.9557,1.9557,1.939,1.9301,4.4895,4.4895,4.516,4.6051,4.6807,4.7586,4.8483,4.9211,4.9692,4.9692,4.975,4.9807,4.9807,4.9871,4.9898,4.9898,4.9898,4.9898,4.9898,4.9898,4.9898,4.9898,4.9898,4.9898,4.9898,4.9898,4.9898,4.9898,4.9898,4.9898,4.9898,4.9898,4.9898,4.9898,4.9898,4.9898,4.9898,4.9898,4.9898,4.9898,4.9898,4.9898,4.9898,4.9898,4.9898,4.9898,4.9898,4.9898,4.9898,4.9898,4.9898,4.9898,4.9898,4.9898,4.9898,4.9898,4.9898,4.9898,4.9898,4.9898,4.9898,4.9898,4.9898,4.9898,4.9898,5.0523,5.0884,5.0069,5.0542,5.0762,4.9709,4.9296,4.9005,4.873,0.0,0.0,4.7609,4.7324,4.7052,4.6864,4.6819,4.6819,4.6819,4.6955,4.6664,4.5763,4.5065,4.4086,4.2533,4.1784,4.066,3.9061,3.8439,3.7902,3.748,3.482,3.3517,3.3441,3.0997,2.9574,2.9162,2.8222,2.7324,2.6433,2.5431,2.4452,2.3593,2.267,2.1983,2.1461,2.0255,1.9715,1.9566,1.939,1.9301,1.9301,4.4895,4.4895,4.5009,4.5331,4.6448,4.7424,4.7799,4.8937,4.9778,4.9816,4.9843,4.9871,4.9871,4.9898,4.9898,4.9898,4.9898,4.9898,4.9898,4.9898,4.9898,4.9898,4.9898,4.9898,4.9898,4.9898,4.9898,4.9898,4.9898,4.9898,4.9898,4.9898,4.9898,4.9898,4.9898,4.9898,4.9898,4.9898,4.9898,4.9898,4.9898,4.9898,4.9898,4.9898,4.9898,4.9898,4.9898,4.9898,4.9974,5.0523,5.0713,5.0789,5.1282,5.1452,5.1452,5.1452,5.1111,5.0827,5.1319,5.0694,4.9898,4.9898,5.0315,5.0713,5.0713,5.1357,5.1717,5.0884,5.0828,5.0595,4.9446,4.9038,4.8765,4.8514,0.0,4.7929,4.7741,4.7468,4.7232,4.7025,4.6998,4.7043,4.7133,4.6934,4.659,4.5988,4.5422,4.4509,4.3139,4.1385,3.9842,3.8511,3.796,3.7243,3.6269,3.4425,3.3139,3.2433,3.0791,2.9713,2.9198,2.8505,2.7564,2.6364,2.5511,2.4455,2.335,2.2435,2.168,2.1001,2.002,1.9557,1.939,1.9301,1.9301,1.9222,4.4895,4.4895,4.4895,4.4895,4.6247,4.7363,4.7397,4.8764,4.9843,4.9879,4.9898,4.9898,4.9898,4.9898,4.9898,4.9898,4.9898,4.9898,4.9898,4.9898,4.9898,4.9898,4.9898,4.9898,4.9898,4.9898,4.9898,4.9898,4.9898,4.9898,4.9898,4.9898,4.9898,4.9898,4.9898,4.9898,4.9898,4.9898,4.9898,4.9898,4.9898,4.9898,4.9898,4.9898,4.9898,4.9898,4.9898,4.9898,5.0031,5.0921,5.1206,5.1357,5.2153,5.24,5.24,5.24,5.2021,5.1698,5.2267,5.1566,5.0694,5.0694,5.113,5.1585,5.1585,5.2229,5.2466,5.1281,5.1096,5.0723,4.921,4.88,4.8605,4.8267,4.8072,4.7911,4.7597,4.7407,4.7232,4.7025,4.6998,4.7043,4.7196,4.6842,4.6429,4.602,4.5528,4.4626,4.3006,4.1034,3.9397,3.823,3.7743,3.6651,3.4926,3.394,3.2959,3.1789,3.0643,2.9713,2.898,2.8505,2.7511,2.6045,2.5382,2.4299,2.2883,2.2285,2.1375,2.0391,1.9784,1.939,1.9301,1.9301,1.9301,1.9222,4.4895,4.4895,4.4895,4.4895,4.6278,4.7397,4.7397,4.8818,4.9898,4.9898,4.9898,4.9898,4.9898,4.9898,4.9898,4.9898,4.9898,4.9898,4.9898,4.9898,4.9898,4.9898,4.9898,4.9898,4.9898,4.9898,4.9898,4.9898,4.9898,4.9898,4.9898,4.9898,4.9898,4.9898,4.9898,4.9898,4.9898,4.9898,4.9898,4.9898,4.9898,4.9898,4.9898,4.9898,4.9898,4.9898,4.9898,4.9898,5.0031,5.0921,5.1225,5.1357,5.2172,5.2419,5.2419,5.2419,5.2419,5.2419,5.2419,5.2419,5.2419,5.24,5.2419,5.2419,5.2419,5.3082,5.3127,5.1036,5.1337,5.1316,4.9027,4.8641,4.855,4.8072,4.7992,4.7811,4.7345,4.7302,4.7232,4.7025,4.6998,4.7043,4.7178,4.6842,4.6411,4.5918,4.5511,4.428,4.1992,4.0768,3.9565,3.8311,3.7786,3.6206,3.3532,3.3517,3.2944,3.1775,3.0643,2.9463,2.8287,2.8065,2.6989,2.5312,2.4921,2.3801,2.2059,2.1832,2.0934,1.9566,1.9381,1.9301,1.9301,1.9301,1.9301,1.9222,4.4895,4.4895,4.4895,4.4895,4.6278,4.7397,4.7397,4.8818,4.9898,4.9898,4.9898,4.9898,4.9898,4.9898,4.9898,4.9898,4.9898,4.9898,4.9898,4.9898,4.9898,4.9898,4.9898,4.9898,4.9898,4.9898,4.9898,4.9898,4.9898,4.9898,4.9898,4.9898,4.9898,4.9898,4.9898,4.9898,4.9898,4.9898,4.9898,4.9898,4.9898,4.9898,4.9898,4.9898,4.9898,4.9898,4.9898,4.9898,5.0107,5.1566,5.204,5.2305,5.3707,5.4162,5.4162,5.4162,5.3745,5.3442,5.401,5.3745,5.3177,5.2551,5.2873,5.3309,5.3309,5.3954,5.3959,5.1933,5.1603,5.1099,4.8992,4.8514,4.8326,4.8032,4.7888,4.7681,4.7363,4.7187,4.707,4.6998,4.7088,4.7043,4.6778,4.6447,4.597,4.5511,4.5035,4.3748,4.1418,4.091,3.9821,3.7833,3.6664,3.5231,3.3532,3.3653,3.269,3.0614,2.9845,2.917,2.8441,2.7591,2.6514,2.5241,2.4276,2.3095,2.1832,2.1145,2.0313,1.9381,1.9301,1.9301,1.9301,1.9301,1.9152,1.8843,4.4895,4.4895,4.4895,4.4895,4.6278,4.7397,4.7397,4.8818,4.9898,4.9898,4.9898,4.9898,4.9898,4.9898,4.9898,4.9898,4.9898,4.9898,4.9898,4.9898,4.9898,4.9898,4.9898,4.9898,4.9898,4.9898,4.9898,4.9898,4.9898,4.9898,4.9898,4.9898,4.9898,4.9898,4.9925,4.9952,4.9952,4.9952,4.9952,4.9952,4.9925,4.9898,4.9898,4.9898,4.9898,4.9898,4.9898,4.9898,5.0107,5.1471,5.2381,5.3101,5.4105,5.4636,5.4901,5.4901,5.456,5.4276,5.4769,5.4541,5.4048,5.3518,5.3783,5.4181,5.4181,5.4235,5.3799,5.209,5.1327,5.0449,4.8753,4.8306,4.8111,4.7911,4.7681,4.7468,4.7232,4.707,4.6934,4.6795,4.6842,4.6731,4.6363,4.592,4.5529,4.5035,4.4669,4.3411,4.1132,4.0834,3.9715,3.7571,3.6222,3.485,3.3532,3.3231,3.2106,3.0111,2.9574,2.903,2.8492,2.7378,2.6252,2.5087,2.3963,2.2787,2.1614,2.0847,2.0001,1.9301,1.9301,1.9301,1.9301,1.9152,1.8922,1.862,4.4895,4.4895,4.4895,4.4895,4.6278,4.7397,4.7397,4.8818,4.9898,4.9898,4.9898,4.9898,4.9898,4.9898,4.9898,4.9898,4.9898,4.9898,4.9898,4.9898,4.9898,4.9898,4.9898,4.9898,4.9898,4.9898,4.9898,4.9898,4.9898,4.9898,4.9898,4.9925,4.9925,4.9906,4.9978,5.0005,5.0005,5.0005,5.0005,5.0005,4.9952,4.9925,4.9925,4.9879,4.9898,4.9898,4.9898,4.9898,5.0031,5.0921,5.2267,5.3613,5.3688,5.42,5.4806,5.4882,5.4901,5.4901,5.4901,5.4901,5.4901,5.4901,5.4852,5.4803,5.4776,5.4018,5.2921,5.1705,5.0673,4.964,4.8556,4.8141,4.7947,4.7808,4.7504,4.7232,4.7025,4.698,4.6795,4.6429,4.6381,4.6217,4.5868,4.5407,4.4978,4.457,4.4266,4.318,4.1074,4.0475,3.937,3.7587,3.61,3.4714,3.3532,3.2481,3.1331,3.0111,2.9512,2.8967,2.8427,2.7311,2.6102,2.4933,2.3818,2.2638,2.1461,2.0692,2.0001,1.9301,1.9301,1.9301,1.9231,1.8851,1.862,1.8451,4.4895,4.4895,4.4895,4.4895,4.6278,4.7397,4.7397,4.8818,4.9898,4.9898,4.9898,4.9898,4.9898,4.9898,4.9898,4.9898,4.9898,4.9898,4.9898,4.9898,4.9898,4.9898,4.9898,4.9898,4.9898,4.9898,4.9898,4.9898,4.9898,4.9898,4.9898,4.9933,4.9978,4.9978,5.0057,5.0082,5.0082,5.0082,5.0082,5.0082,5.0005,4.9978,4.9978,4.9925,4.9898,4.9898,4.9898,4.9898,5.0031,5.0921,5.1869,5.2798,5.348,5.3821,5.4086,5.4731,5.4901,5.4901,5.4901,5.4901,5.4901,5.4901,5.4578,5.4176,5.3742,5.3478,5.2855,5.1192,5.0398,4.9897,4.9604,4.8683,4.807,4.8279,4.7777,4.7232,4.7025,4.6731,4.6495,4.6381,4.6235,4.587,4.5424,4.4978,4.4497,4.4006,4.3413,4.2336,4.0529,3.9812,3.8825,3.7571,3.5185,3.3864,3.3729,3.1643,3.0362,3.0111,2.9107,2.862,2.8427,2.6501,2.5429,2.4862,2.3021,2.1907,2.1385,2.007,1.946,1.9301,1.9301,1.9073,1.8851,1.87,1.829,1.7635,4.4895,4.4895,4.4895,4.4895,4.6278,4.7397,4.7397,4.8818,4.9898,4.9898,4.9898,4.9898,4.9898,4.9898,4.9898,4.9898,4.9898,4.9898,4.9898,4.9898,4.9898,4.9898,4.9898,4.9898,4.9898,4.9898,4.9898,4.9898,4.9898,4.9925,4.9952,4.9978,5.0031,5.0057,5.0133,5.0158,5.0158,5.0158,5.0158,5.0158,5.0082,5.0057,5.0057,5.0005,4.9978,4.9952,4.9952,4.9925,4.9955,5.0429,5.1149,5.1926,5.2362,5.3063,5.3783,5.42,5.4598,5.4901,5.4901,5.4901,5.4871,5.4791,5.443,5.4024,5.3752,5.3099,5.2289,5.1375,5.056,4.9994,4.9963,4.9014,4.8283,4.8479,4.7752,4.7053,4.6731,4.6525,4.6235,4.5887,4.5684,4.5424,4.4978,4.4592,4.4236,4.3831,4.2824,4.1688,4.0349,3.9386,3.8166,3.6635,3.4546,3.3321,3.284,3.1,2.9974,2.9713,2.8903,2.8298,2.7986,2.6032,2.4862,2.4337,2.2424,2.1385,2.0779,1.9766,1.9301,1.9301,1.9301,1.9073,1.87,1.8451,1.7797,1.7066,4.4895,4.4895,4.4895,4.4895,4.6165,4.7245,4.7378,4.8704,4.9728,4.9879,4.9898,4.9898,4.9898,4.9898,4.9898,4.9898,4.9898,4.9898,4.9898,4.9898,4.9898,4.9898,4.9898,4.9898,4.9898,4.9898,4.9898,4.9898,4.9906,4.9952,5.0005,5.0012,5.0038,5.0133,5.0207,5.0231,5.0231,5.0231,5.0231,5.0212,5.0139,5.0133,5.0108,5.0108,5.0057,5.0031,5.0031,5.0073,5.018,5.0331,5.0835,5.1442,5.1442,5.239,5.3528,5.365,5.4181,5.4731,5.4863,5.4901,5.4822,5.4578,5.4225,5.3941,5.385,5.2705,5.1682,5.1572,5.0737,5.0081,5.0263,4.9316,4.8542,4.8641,4.766,4.6795,4.6447,4.6284,4.5938,4.5283,4.514,4.4995,4.4626,4.435,4.4013,4.3697,4.2277,4.1063,4.0212,3.9004,3.7492,3.5536,3.4243,3.2974,3.1865,3.0704,2.9837,2.917,2.8698,2.8182,2.7404,2.5767,2.4564,2.3745,2.2199,2.1001,2.0167,1.9539,1.9301,1.9301,1.9222,1.8922,1.8531,1.7959,1.7302,1.673,4.4895,4.4895,4.4895,4.4895,4.571,4.6601,4.7283,4.823,4.9102,4.9803,4.9898,4.9898,4.9898,4.9898,4.9898,4.9898,4.9898,4.9898,4.9898,4.9898,4.9898,4.9898,4.9898,4.9898,4.9898,4.9898,4.9898,4.9898,4.9952,5.0005,5.0005,5.0114,5.0163,5.0188,5.0255,5.0278,5.0278,5.0278,5.0278,5.0278,5.0212,5.0207,5.0163,5.0133,5.0108,5.0082,5.0082,5.0558,5.1281,5.1984,5.2308,5.2403,5.2341,5.2465,5.2807,5.3509,5.3783,5.401,5.4712,5.4901,5.4773,5.4292,5.3777,5.3274,5.2816,5.2206,5.1572,5.1112,5.048,5.0272,5.1316,4.984,4.8631,4.9097,4.769,4.6447,4.6381,4.5786,4.5336,4.523,4.4886,4.4682,4.4643,4.4138,4.3638,4.3235,4.1492,4.0216,3.9628,3.8362,3.699,3.5521,3.4394,3.3231,3.2062,3.0872,2.9732,2.8634,2.8556,2.8182,2.7404,2.5767,2.4564,2.3745,2.2199,2.1001,2.0167,1.9539,1.9301,1.9301,1.8931,1.8523,1.804,1.7139,1.6812,1.673,4.4895,4.4895,4.4895,4.4895,4.5615,4.6468,4.7283,4.8136,4.8988,4.9784,4.9898,4.9898,4.9898,4.9898,4.9898,4.9898,4.9898,4.9898,4.9898,4.9898,4.9898,4.9898,4.9952,4.9952,4.9952,5.0005,5.0005,5.0005,4.9986,5.0057,5.0114,5.0163,5.0212,5.0255,5.0278,5.0302,5.0302,5.0302,5.0302,5.0302,5.0278,5.0255,5.0255,5.0231,5.0182,5.0215,5.0666,5.1059,5.1523,5.2315,5.2582,5.2582,5.2574,5.287,5.3346,5.3717,5.4107,5.4486,5.4847,5.4481,5.3937,5.3587,5.2939,5.232,5.1988,5.1792,5.1651,5.1418,5.1131,5.1095,5.1615,5.0199,4.8954,4.8937,4.7501,4.6235,4.5786,4.5424,4.514,4.4886,4.4737,4.4457,4.4196,4.3713,4.3218,4.2743,4.0922,3.9752,3.9503,3.7526,3.5749,3.4425,3.3276,3.2165,3.1003,3.0135,2.9345,2.8492,2.8117,2.7391,2.6414,2.5358,2.412,2.2776,2.1756,2.0692,1.9696,1.9381,1.9301,1.9222,1.8851,1.829,1.7554,1.6976,1.673,1.673]},{"header":{"parameterUnit":"m.s-1","parameterCategory":1,"la1":30.6,"la2":28.766,"lo1":-90.7593,"lo2":-88.6598,"dx":0.0162,"dy":0.0183,"nx":116,"ny":114,"refTime":"2023-01-31T18:00:00:Z","depth":0,"parameterNumber":3,"parameterNumberName":"V-component_of_WINDS"},"data":[0.0,0.0,0.0,0.0,0.0,0.0,0.0,0.0,0.0,0.0,0.0,0.0,0.0,0.0,0.0,0.0,0.0,0.0,0.0,0.0,0.0,0.0,0.0,0.0,0.0,0.0,0.0,0.0,0.0,0.0,0.0,0.0,0.0,0.0,0.0,0.0,0.0,0.0,0.0,0.0,0.0,0.0,0.0,0.0,0.0,0.0,0.0,0.0,0.0,0.0,0.0,0.0,0.0,0.0,0.0,0.0,0.0,0.0,0.0,0.0,0.0,0.0,0.0,0.0,0.0,0.0,0.0,0.0,0.0,0.0,0.0,0.0,0.0,0.0,0.0,0.0,0.0,0.0,0.0,0.0,0.0,0.0,0.0,0.0,0.0,0.0,0.0,0.0,0.0,0.0,0.0,0.0,0.0,0.0,0.0,0.0,0.0,0.0,0.0,0.0,0.0,0.0,0.0,0.0,0.0,0.0,0.0,0.0,0.0,0.0,0.0,0.0,0.0,0.0,0.0,0.0,0.0,0.0,0.0,0.0,0.0,0.0,0.0,0.0,0.0,0.0,0.0,0.0,0.0,0.0,0.0,0.0,0.0,0.0,0.0,0.0,0.0,0.0,0.0,0.0,0.0,0.0,0.0,0.0,0.0,0.0,0.0,0.0,0.0,0.0,0.0,0.0,0.0,0.0,0.0,0.0,0.0,0.0,0.0,0.0,0.0,0.0,0.0,0.0,0.0,0.0,0.0,0.0,0.0,0.0,0.0,0.0,0.0,0.0,0.0,0.0,0.0,0.0,0.0,0.0,0.0,0.0,0.0,0.0,0.0,0.0,0.0,0.0,0.0,0.0,0.0,0.0,0.0,0.0,0.0,0.0,0.0,0.0,0.0,0.0,0.0,0.0,0.0,0.0,0.0,0.0,0.0,0.0,0.0,0.0,0.0,0.0,0.0,0.0,0.0,0.0,0.0,0.0,0.0,0.0,0.0,0.0,0.0,0.0,0.0,0.0,0.0,0.0,0.0,0.0,0.0,0.0,0.0,0.0,0.0,0.0,0.0,0.0,0.0,0.0,0.0,0.0,0.0,0.0,0.0,0.0,0.0,0.0,0.0,0.0,0.0,0.0,0.0,0.0,0.0,0.0,0.0,0.0,0.0,0.0,0.0,0.0,0.0,0.0,0.0,0.0,0.0,0.0,0.0,0.0,0.0,0.0,0.0,0.0,0.0,0.0,0.0,0.0,0.0,0.0,0.0,0.0,0.0,0.0,0.0,0.0,0.0,0.0,0.0,0.0,0.0,0.0,0.0,0.0,0.0,0.0,0.0,0.0,0.0,0.0,0.0,0.0,0.0,0.0,0.0,0.0,0.0,0.0,0.0,0.0,0.0,0.0,0.0,0.0,0.0,0.0,0.0,0.0,0.0,0.0,0.0,0.0,0.0,0.0,0.0,0.0,0.0,0.0,0.0,0.0,0.0,0.0,0.0,0.0,0.0,0.0,0.0,0.0,0.0,0.0,0.0,0.0,0.0,0.0,0.0,0.0,0.0,0.0,0.0,0.0,0.0,0.0,0.0,0.0,0.0,0.0,0.0,0.0,0.0,0.0,0.0,0.0,0.0,0.0,0.0,0.0,0.0,0.0,0.0,0.0,0.0,0.0,0.0,0.0,0.0,0.0,0.0,0.0,0.0,0.0,0.0,0.0,0.0,0.0,0.0,0.0,0.0,0.0,0.0,0.0,0.0,0.0,0.0,0.0,0.0,0.0,0.0,0.0,0.0,0.0,0.0,0.0,0.0,0.0,0.0,0.0,0.0,0.0,0.0,0.0,0.0,0.0,0.0,0.0,0.0,0.0,0.0,0.0,0.0,0.0,0.0,0.0,0.0,0.0,0.0,0.0,0.0,0.0,0.0,0.0,0.0,0.0,0.0,0.0,0.0,0.0,0.0,0.0,0.0,0.0,0.0,0.0,0.0,0.0,0.0,0.0,0.0,0.0,0.0,0.0,0.0,0.0,0.0,0.0,0.0,0.0,0.0,0.0,0.0,0.0,0.0,0.0,0.0,0.0,0.0,0.0,0.0,0.0,0.0,0.0,0.0,0.0,0.0,0.0,0.0,0.0,0.0,0.0,0.0,0.0,0.0,0.0,0.0,0.0,0.0,0.0,0.0,0.0,0.0,0.0,0.0,0.0,0.0,0.0,0.0,0.0,0.0,0.0,0.0,0.0,0.0,0.0,0.0,0.0,0.0,0.0,0.0,0.0,0.0,0.0,0.0,0.0,0.0,0.0,0.0,0.0,0.0,0.0,0.0,0.0,0.0,0.0,0.0,0.0,0.0,0.0,0.0,0.0,0.0,0.0,0.0,0.0,0.0,0.0,0.0,0.0,0.0,0.0,0.0,0.0,0.0,0.0,0.0,0.0,0.0,0.0,0.0,0.0,0.0,0.0,0.0,0.0,0.0,0.0,0.0,0.0,0.0,0.0,0.0,0.0,0.0,0.0,0.0,0.0,0.0,0.0,0.0,0.0,0.0,0.0,0.0,0.0,0.0,0.0,0.0,0.0,0.0,0.0,0.0,0.0,0.0,0.0,0.0,0.0,0.0,0.0,0.0,0.0,0.0,0.0,0.0,0.0,0.0,0.0,0.0,0.0,0.0,0.0,0.0,0.0,0.0,0.0,0.0,0.0,0.0,0.0,0.0,0.0,0.0,0.0,0.0,0.0,0.0,0.0,0.0,0.0,0.0,0.0,0.0,0.0,0.0,0.0,0.0,0.0,0.0,0.0,0.0,0.0,0.0,0.0,0.0,0.0,0.0,0.0,0.0,0.0,0.0,0.0,0.0,0.0,0.0,0.0,0.0,0.0,0.0,0.0,0.0,0.0,0.0,0.0,0.0,0.0,0.0,0.0,0.0,0.0,0.0,0.0,0.0,0.0,0.0,0.0,0.0,0.0,0.0,0.0,0.0,0.0,0.0,0.0,0.0,0.0,0.0,0.0,0.0,0.0,0.0,0.0,0.0,0.0,0.0,0.0,0.0,0.0,0.0,0.0,0.0,0.0,0.0,0.0,0.0,0.0,0.0,0.0,0.0,0.0,0.0,0.0,0.0,0.0,0.0,0.0,0.0,0.0,0.0,0.0,0.0,0.0,0.0,0.0,0.0,0.0,0.0,0.0,0.0,0.0,0.0,0.0,0.0,0.0,0.0,0.0,0.0,0.0,0.0,0.0,0.0,0.0,0.0,0.0,0.0,0.0,0.0,0.0,0.0,0.0,0.0,0.0,0.0,0.0,0.0,0.0,0.0,0.0,0.0,0.0,0.0,0.0,0.0,0.0,0.0,0.0,0.0,0.0,0.0,0.0,0.0,0.0,0.0,0.0,0.0,0.0,0.0,0.0,0.0,0.0,0.0,0.0,0.0,0.0,0.0,0.0,0.0,0.0,0.0,0.0,0.0,0.0,0.0,0.0,0.0,0.0,0.0,0.0,0.0,0.0,0.0,0.0,0.0,0.0,0.0,0.0,0.0,0.0,0.0,0.0,0.0,0.0,0.0,0.0,0.0,0.0,0.0,0.0,0.0,0.0,0.0,0.0,0.0,0.0,0.0,0.0,0.0,0.0,0.0,0.0,0.0,0.0,0.0,0.0,0.0,0.0,0.0,0.0,0.0,0.0,0.0,0.0,0.0,0.0,0.0,0.0,0.0,0.0,0.0,0.0,0.0,0.0,0.0,0.0,0.0,0.0,0.0,0.0,0.0,0.0,0.0,0.0,0.0,0.0,0.0,0.0,0.0,0.0,0.0,0.0,0.0,0.0,0.0,0.0,0.0,0.0,0.0,0.0,0.0,0.0,0.0,0.0,0.0,0.0,0.0,0.0,0.0,0.0,0.0,0.0,0.0,0.0,0.0,0.0,0.0,0.0,0.0,0.0,0.0,0.0,0.0,0.0,0.0,0.0,0.0,0.0,0.0,0.0,0.0,0.0,0.0,0.0,0.0,0.0,0.0,0.0,0.0,0.0,0.0,0.0,0.0,0.0,0.0,0.0,0.0,0.0,0.0,0.0,0.0,0.0,0.0,0.0,0.0,0.0,0.0,0.0,0.0,0.0,0.0,0.0,0.0,0.0,0.0,0.0,0.0,0.0,0.0,0.0,0.0,0.0,0.0,0.0,0.0,0.0,0.0,0.0,0.0,0.0,0.0,0.0,0.0,0.0,0.0,0.0,0.0,0.0,0.0,0.0,0.0,0.0,0.0,0.0,0.0,0.0,0.0,0.0,0.0,0.0,0.0,0.0,0.0,0.0,0.0,0.0,0.0,0.0,0.0,0.0,0.0,0.0,0.0,0.0,0.0,0.0,0.0,0.0,0.0,0.0,0.0,0.0,0.0,0.0,0.0,0.0,0.0,0.0,0.0,0.0,0.0,0.0,0.0,0.0,0.0,0.0,0.0,0.0,0.0,0.0,0.0,0.0,0.0,0.0,0.0,0.0,0.0,0.0,0.0,0.0,0.0,0.0,0.0,0.0,0.0,0.0,0.0,0.0,0.0,0.0,0.0,0.0,0.0,0.0,0.0,0.0,0.0,0.0,0.0,0.0,0.0,0.0,0.0,0.0,0.0,0.0,0.0,0.0,0.0,0.0,0.0,0.0,0.0,0.0,0.0,0.0,0.0,0.0,0.0,0.0,0.0,0.0,0.0,0.0,0.0,0.0,0.0,0.0,0.0,0.0,0.0,0.0,0.0,0.0,0.0,0.0,0.0,0.0,0.0,0.0,0.0,0.0,0.0,0.0,0.0,0.0,0.0,0.0,0.0,0.0,0.0,0.0,0.0,0.0,0.0,0.0,0.0,0.0,0.0,0.0,0.0,0.0,0.0,0.0,0.0,0.0,0.0,0.0,0.0,0.0,0.0,0.0,0.0,0.0,0.0,0.0,0.0,0.0,0.0,0.0,0.0,0.0,0.0,0.0,0.0,0.0,0.0,0.0,0.0,0.0,0.0,0.0,0.0,0.0,0.0,0.0,0.0,0.0,0.0,0.0,0.0,0.0,0.0,0.0,0.0,0.0,0.0,0.0,0.0,0.0,0.0,0.0,0.0,0.0,0.0,0.0,0.0,0.0,0.0,0.0,0.0,0.0,0.0,0.0,0.0,0.0,0.0,0.0,0.0,0.0,0.0,0.0,0.0,0.0,0.0,0.0,0.0,0.0,0.0,0.0,0.0,0.0,0.0,0.0,0.0,0.0,0.0,0.0,0.0,0.0,0.0,0.0,0.0,0.0,0.0,0.0,0.0,0.0,0.0,0.0,0.0,0.0,0.0,0.0,0.0,0.0,0.0,0.0,0.0,0.0,0.0,0.0,0.0,0.0,0.0,0.0,0.0,0.0,0.0,0.0,0.0,0.0,0.0,0.0,0.0,0.0,0.0,0.0,0.0,0.0,0.0,0.0,0.0,0.0,0.0,0.0,0.0,0.0,0.0,0.0,0.0,0.0,0.0,0.0,0.0,0.0,0.0,0.0,0.0,0.0,0.0,0.0,0.0,0.0,0.0,0.0,0.0,0.0,0.0,0.0,0.0,0.0,0.0,0.0,0.0,0.0,0.0,0.0,0.0,0.0,0.0,0.0,0.0,0.0,0.0,0.0,0.0,0.0,0.0,0.0,0.0,0.0,0.0,0.0,0.0,0.0,0.0,0.0,0.0,0.0,0.0,0.0,0.0,0.0,0.0,0.0,0.0,0.0,0.0,0.0,0.0,0.0,0.0,0.0,0.0,0.0,0.0,0.0,0.0,0.0,0.0,0.0,0.0,0.0,0.0,0.0,0.0,0.0,0.0,0.0,0.0,0.0,0.0,0.0,0.0,0.0,0.0,0.0,0.0,0.0,0.0,0.0,0.0,0.0,0.0,0.0,0.0,0.0,0.0,0.0,0.0,0.0,0.0,0.0,0.0,0.0,0.0,0.0,0.0,0.0,0.0,0.0,0.0,0.0,0.0,0.0,0.0,0.0,0.0,0.0,0.0,0.0,0.0,0.0,0.0,0.0,0.0,0.0,0.0,0.0,0.0,0.0,0.0,0.0,0.0,0.0,0.0,0.0,0.0,0.0,0.0,0.0,0.0,0.0,0.0,0.0,1.8595,0.0,0.0,0.0,0.0,0.0,0.0,0.0,0.0,0.0,0.0,0.0,0.0,0.0,0.0,0.0,0.0,0.0,0.0,0.0,0.0,0.0,0.0,0.0,0.0,0.0,0.0,0.0,0.0,0.0,0.0,0.0,0.0,0.0,0.0,0.0,0.0,0.0,0.0,0.0,0.0,0.0,0.0,0.0,0.0,0.0,0.0,0.0,0.0,0.0,0.0,0.0,0.0,0.0,0.0,0.0,0.0,0.0,0.0,0.0,0.0,0.0,0.0,0.0,0.0,0.0,0.0,0.0,0.0,0.0,0.0,0.0,0.0,0.0,0.0,0.0,0.0,0.0,0.0,0.0,0.0,0.0,0.0,0.0,0.0,0.0,0.0,0.0,0.0,0.0,0.0,0.0,0.0,0.0,0.0,0.0,0.0,0.0,0.0,0.0,0.0,0.0,0.0,0.0,0.0,0.0,0.0,0.0,0.0,0.0,0.0,0.0,0.0,0.0,0.0,0.0,0.0,1.9055,0.0,0.0,0.0,0.0,0.0,0.0,0.0,0.0,0.0,0.0,0.0,0.0,0.0,0.0,0.0,0.0,0.0,0.0,0.0,0.0,0.0,0.0,0.0,0.0,0.0,0.0,0.0,0.0,0.0,0.0,0.0,0.0,0.0,0.0,0.0,0.0,0.0,0.0,0.0,0.0,0.0,0.0,0.0,0.0,0.0,0.0,0.0,0.0,0.0,0.0,0.0,0.0,0.0,0.0,0.0,0.0,0.0,0.0,0.0,0.0,0.0,0.0,0.0,0.0,0.0,0.0,0.0,0.0,0.0,0.0,0.0,0.0,0.0,0.0,0.0,0.0,0.0,0.0,0.0,0.0,0.0,0.0,0.0,0.0,0.0,0.0,0.0,0.0,0.0,0.0,0.0,0.0,0.0,0.0,0.0,0.0,0.0,0.0,0.0,0.0,0.0,0.0,0.0,0.0,0.0,0.0,0.0,0.0,0.0,1.9327,1.9467,1.9323,1.9498,1.9849,1.9572,1.9596,1.9799,0.0,0.0,0.0,0.0,0.0,0.0,0.0,0.0,0.0,0.0,0.0,0.0,0.0,0.0,0.0,0.0,0.0,0.0,0.0,0.0,0.0,0.0,0.0,0.0,0.0,0.0,0.0,0.0,0.0,0.0,0.0,0.0,0.0,0.0,0.0,0.0,0.0,0.0,0.0,0.5873,0.6086,0.6176,0.6147,0.6436,0.0,0.0,0.0,0.0,0.0,0.0,0.0,0.0,0.0,0.0,0.0,0.0,0.0,0.0,0.0,0.0,0.0,0.0,0.0,0.0,0.0,0.0,0.0,0.0,0.0,0.0,0.0,0.0,0.0,0.0,0.0,0.0,0.0,0.0,0.0,0.0,0.0,0.0,0.0,0.0,0.0,0.0,0.0,1.1066,1.1474,0.0,0.0,0.0,0.0,0.0,0.0,0.0,0.0,0.0,0.0,0.0,0.0,0.0,0.0,1.9378,1.9257,1.9288,1.9341,1.9208,1.9416,2.0007,2.0007,2.0355,2.1075,2.1005,0.0,2.0762,2.0896,0.0,0.0,0.0,0.0,0.0,0.0,0.0,0.0,0.0,0.0,0.0,0.0,0.0,0.0,0.0,0.0,0.0,0.0,0.0,0.0,0.0,0.0,0.0,0.0,0.0,0.0,0.0,0.0,0.0,0.0,0.0,0.0,0.0,0.0,0.0,0.0,0.5877,0.6091,0.6091,0.6131,0.6178,0.6232,0.6337,0.644,0.644,0.649,0.0,0.0,0.0,0.0,0.0,0.0,0.0,0.0,0.0,0.0,0.0,0.0,0.0,0.0,0.0,0.0,0.0,0.0,0.0,0.0,0.0,0.0,0.0,0.0,0.0,0.0,0.0,0.0,0.0,0.0,0.0,0.0,0.0,0.0,0.0,0.0,0.0,0.0,0.0,1.1001,1.1596,1.1942,1.2967,1.3745,0.0,0.0,0.0,0.0,0.0,0.0,0.0,0.0,0.0,1.6994,1.7752,1.8527,1.9341,1.9469,1.9594,1.9604,1.9775,2.0004,2.0271,2.0271,2.0737,2.1501,2.1501,2.1812,2.2273,2.1638,2.1901,2.2616,0.0,0.0,0.0,0.0,0.0,2.6549,0.0,0.0,0.0,0.0,0.0,0.0,0.0,0.0,0.0,0.0,0.0,0.0,0.0,0.0,0.0,0.1254,0.0,0.0,0.0,0.0,0.0,0.0,0.0,0.0,0.0,0.0,0.0,0.0,0.6199,0.6308,0.6253,0.6309,0.6332,0.6332,0.6332,0.6276,0.6178,0.6114,0.6059,0.0,0.0,0.0,0.0,0.0,0.0,0.0,0.0,0.0,0.0,0.0,0.0,0.0,0.0,0.0,0.0,0.0,0.0,0.0,0.0,0.0,0.0,0.0,0.0,0.0,0.0,0.0,0.0,0.0,0.0,0.0,0.0,0.0,0.0,0.0,0.0,0.0,0.0,1.1152,1.1779,1.2255,1.3153,1.3894,0.0,0.0,0.0,0.0,0.0,0.0,1.4894,1.6441,1.7332,1.7297,1.8486,1.9235,1.9417,1.9758,1.9934,1.9934,2.0389,2.0596,2.0679,2.0918,2.1405,2.2035,2.2155,2.2831,2.3792,2.2833,2.296,2.3815,2.4274,2.5003,2.5948,2.6674,2.7258,2.7595,0.0,0.0,0.0,0.0,0.0,0.0,0.0,0.0,0.0,0.0,0.0,0.0,0.0,0.0,0.0314,0.0895,0.1389,0.1971,0.0,0.0,0.0,0.0,0.0,0.0,0.0,0.0,0.0,0.5814,0.6463,0.6682,0.6463,0.667,0.6763,0.6763,0.6763,0.6543,0.6178,0.6178,0.6178,0.6178,0.0,0.0,0.0,0.0,0.0,0.0,0.0,0.0,0.0,0.0,0.0,0.0,0.0,0.0,0.0,0.0,0.0,0.0,0.0,0.0,0.0,0.0,0.0,0.0,0.0,0.0,0.0,0.0,0.0,0.0,0.0,0.0,0.0,0.0,0.0,0.0,0.0,0.0,0.0,1.1995,1.274,0.0,0.0,0.0,0.0,1.5745,1.5762,1.57,1.548,1.6026,1.6827,1.7726,1.8373,1.9274,2.0348,2.0379,2.0389,2.04,2.0855,2.1156,2.1397,2.2289,2.2917,2.3254,2.3654,2.4408,2.5157,2.4812,2.4897,2.5368,2.6938,2.7472,2.7459,2.8038,2.8143,2.8039,0.0,0.0,0.0,0.0,0.0,0.0,0.0,0.0,0.0,0.0,0.0,0.0,0.0,-0.0276,0.0093,0.0279,0.0763,0.1197,0.1586,0.0,0.0,0.0,0.0,0.0,0.0,0.0,0.483,0.5849,0.6035,0.637,0.6679,0.6759,0.6791,0.6791,0.6791,0.6712,0.6562,0.6426,0.6365,0.6356,0.6229,0.6495,0.0,0.0,0.0,0.0,0.0,0.0,0.0,0.0,0.0,0.0,0.0,0.0,0.0,0.0,0.0,0.0,0.0,0.0,0.0,0.0,0.0,0.0,0.0,0.0,0.0,0.0,0.0,0.0,0.0,0.0,0.0,0.0,0.0,0.0,0.0,0.0,0.0,1.2692,1.3956,0.0,1.5338,1.5655,1.5805,1.5805,1.5655,1.5891,1.6393,1.6973,1.7726,1.8716,1.9453,1.9971,2.042,2.0721,2.0866,2.0876,2.1342,2.1988,2.278,2.313,2.3852,2.4921,2.5111,2.5444,2.6057,2.638,2.662,2.6731,2.7229,2.763,2.8026,2.796,2.7987,2.7855,0.0,0.0,0.0,0.0,0.0,0.0,0.0,0.0,0.0,0.0,0.0,-0.09,-0.0824,-0.0469,-0.0239,-0.0291,0.0348,0.0848,0.1117,0.0,0.0,0.0,0.0,0.0,0.0,0.4174,0.4707,0.5927,0.6053,0.6393,0.696,0.7097,0.7168,0.7168,0.7234,0.7229,0.7154,0.6941,0.6771,0.6571,0.644,0.6672,0.7049,0.0,0.0,0.0,0.0,0.0,0.0,0.0,0.0,0.0,0.0,0.0,0.0,0.0,0.0,0.0,0.0,0.0,0.0,0.0,0.0,0.0,0.0,0.0,0.0,0.0,0.0,0.0,0.0,0.0,0.0,0.0,0.0,0.0,0.0,0.0,1.3077,1.3219,1.4482,1.5505,1.5797,1.5917,1.6036,1.6012,1.6237,1.661,1.7273,1.797,1.8745,1.9527,2.0286,2.0731,2.0886,2.1197,2.1352,2.1352,2.1818,2.253,2.3379,2.3713,2.4492,2.5615,2.581,2.6148,2.662,2.7149,2.7497,2.7696,2.763,2.7894,2.8287,2.7908,2.7776,2.7789,0.0,0.0,0.0,0.0,0.0,0.0,0.0,0.0,0.0,0.0,-0.1299,-0.132,-0.147,-0.1048,-0.0727,-0.0805,0.0152,0.0909,0.1359,0.2351,0.0,0.0,0.0,0.0,0.4391,0.452,0.5063,0.6001,0.6378,0.6795,0.725,0.7598,0.7792,0.7796,0.799,0.7971,0.7777,0.7584,0.7267,0.6829,0.6805,0.6851,0.7027,0.0,0.0,0.0,0.0,0.0,0.0,0.0,0.0,0.0,0.0,0.0,0.0,0.0,0.0,0.0,0.0,0.0,0.0,0.0,0.0,0.0,0.0,0.0,0.0,0.0,0.0,0.0,0.0,0.0,0.0,0.0,0.0,0.0,1.1409,1.215,1.2813,1.3462,1.4186,1.4991,1.5743,1.6148,1.6442,1.648,1.7353,1.7916,1.7821,1.8984,1.9786,2.0053,2.0754,2.1352,2.1797,2.1807,2.1807,2.1807,2.2263,2.2741,2.3327,2.4205,2.4876,2.5429,2.5901,2.6482,2.7066,2.7079,2.7509,2.8132,2.8249,2.8287,2.8222,2.7908,2.7789,2.7881,0.0,0.0,0.0,0.0,0.0,0.0,0.0,0.0,0.0,0.0,-0.1164,-0.1137,-0.1089,-0.1221,-0.116,-0.0785,0.0645,0.1565,0.1677,0.0,0.0,0.0,0.0,0.0,0.3984,0.3928,0.4472,0.5759,0.5978,0.6589,0.7617,0.7877,0.7999,0.7999,0.8056,0.8051,0.7995,0.7938,0.7848,0.7688,0.703,0.6818,0.6889,0.0,0.0,0.0,0.0,0.0,0.0,0.0,0.0,0.0,0.0,0.0,0.0,0.0,0.0,0.0,0.0,0.0,0.0,0.0,0.0,0.0,0.0,0.0,0.0,0.0,0.0,0.0,0.0,0.0,0.0,0.0,0.0,1.1632,1.2157,1.2813,1.3528,1.4178,1.5202,1.5956,1.6199,1.6542,1.6723,1.659,1.7278,1.7965,1.8641,1.9476,2.0297,2.1288,2.146,2.1673,2.1807,2.1807,2.2025,2.2478,2.2606,2.3535,2.511,2.5326,2.621,2.7497,2.8098,2.8405,2.8651,2.9076,2.9262,2.9251,2.8319,2.7908,2.7908,2.7656,2.8066,2.8705,0.0,0.0,0.0,0.0,0.0,0.0,0.0,0.0,0.0,0.0,-0.1031,-0.1047,-0.1138,-0.1331,-0.128,-0.0796,0.0825,0.1781,0.1794,0.0,0.0,0.0,0.0,0.3572,0.3724,0.3668,0.4358,0.5712,0.5823,0.6567,0.791,0.8118,0.8212,0.8217,0.8302,0.8292,0.8212,0.8212,0.816,0.8037,0.756,0.7262,0.7116,0.7385,0.7453,0.7511,0.8077,0.8543,0.8899,0.9339,0.0,0.0,0.0,0.0,0.0,0.0,0.0,0.0,0.0,0.0,0.0,0.0,0.0,0.0,0.0,0.0,0.0,0.0,0.0,0.0,0.0,0.0,0.0,0.0,1.1433,1.1884,1.3007,1.352,1.3881,1.4321,1.5667,1.6584,1.6584,1.686,1.6987,1.6896,1.7828,1.8683,1.9303,2.0254,2.1065,2.1797,2.1807,2.1824,2.1932,2.2129,2.23,2.26,2.3308,2.4471,2.5961,2.6547,2.7557,0.0,2.9362,2.951,2.9536,2.9885,2.9894,0.0,0.0,0.0,0.0,0.0,2.893,2.9646,0.0,0.0,0.0,0.0,0.0,0.0,0.0,0.0,0.0,0.0,0.0,-0.105,-0.1423,-0.1327,-0.1172,-0.0849,0.0767,0.1845,0.0,0.0,0.0,0.3807,0.3607,0.3537,0.3606,0.3756,0.4452,0.5714,0.588,0.6736,0.8122,0.8335,0.8439,0.8444,0.8623,0.86,0.8439,0.8439,0.8325,0.8151,0.8151,0.79,0.7617,0.774,0.7598,0.7407,0.776,0.8035,0.828,0.8772,0.0,0.0,0.0,0.0,0.0,0.0,0.0,0.0,0.0,0.0,0.0,0.0,0.0,0.0,0.0,0.0,0.0,0.0,0.0,0.0,0.0,0.0,0.0,0.0,1.1591,1.215,1.3598,1.4008,1.416,1.4313,1.5826,1.6911,1.6902,1.7096,1.7204,1.7269,1.8727,1.9696,1.9842,0.0,0.0,0.0,0.0,2.1994,2.2158,2.2534,2.2745,2.2829,2.4271,2.5489,2.6479,2.7631,2.8769,2.9894,2.9961,2.9987,2.9987,2.9984,2.9883,2.9658,2.9526,2.9487,2.9473,2.9714,3.0046,0.0,0.0,0.0,0.0,0.0,0.0,0.0,0.0,0.0,0.0,-0.1119,-0.0988,-0.0959,-0.1138,-0.1486,-0.1388,-0.0582,0.0911,0.2235,0.0,0.0,0.3729,0.3809,0.3638,0.3629,0.3729,0.3835,0.4557,0.5841,0.6312,0.7192,0.8344,0.8548,0.8642,0.8642,0.8685,0.868,0.8642,0.8642,0.8618,0.8581,0.8581,0.833,0.7962,0.8004,0.808,0.8151,0.8202,0.8492,0.8801,0.8832,0.8926,0.9085,0.9105,0.0,0.0,0.0,0.0,0.0,0.0,0.0,0.0,0.0,0.0,0.0,0.0,0.0,0.0,0.0,0.0,0.0,0.0,0.0,0.0,1.1812,1.2153,1.2494,1.2644,1.4056,1.54,1.6016,1.6757,1.7061,1.681,1.715,1.7317,1.7131,1.8647,1.9696,1.9933,2.1511,0.0,2.2574,2.2584,2.2544,2.2392,2.2463,2.3207,2.4535,0.0,0.0,2.7974,2.8205,2.8795,2.957,3.0117,3.0315,3.0355,3.0671,3.0572,3.017,2.9555,2.9216,2.9145,2.9473,3.0047,3.073,0.0,0.0,0.0,0.0,0.0,0.0,0.0,0.0,0.0,0.0,-0.1033,-0.1041,-0.1245,-0.1246,-0.1046,-0.0568,0.1178,0.0,0.0,0.3639,0.3725,0.3841,0.371,0.3723,0.4025,0.3932,0.4669,0.6154,0.6386,0.7257,0.8552,0.8656,0.8703,0.8703,0.8703,0.8703,0.8703,0.8703,0.8703,0.8703,0.8703,0.8576,0.8382,0.8278,0.8389,0.8519,0.8487,0.8867,0.9259,0.8843,0.8923,0.9148,0.8972,0.9037,0.936,0.0,0.0,0.0,0.0,0.0,0.0,0.0,0.0,0.0,0.0,0.0,0.0,0.0,0.0,1.186,0.0,0.0,1.2456,1.2345,1.2508,1.2931,1.3585,1.4629,1.5375,1.5599,1.673,1.7359,1.7111,1.736,1.749,1.7325,1.9035,2.0042,1.987,2.159,2.2515,2.2412,2.2422,2.2473,2.2679,2.2951,2.3696,2.4772,2.5949,2.7215,2.8561,2.941,3.0111,3.0599,3.0877,3.101,3.1037,3.1093,3.1143,3.1047,3.0703,3.0325,3.0064,3.0487,3.0949,3.1492,0.0,0.0,0.0,0.0,0.0,0.0,0.0,0.0,0.0,0.0,0.0,-0.1081,-0.1269,-0.0865,-0.0502,0.0,0.0,0.0,0.0,0.3606,0.3657,0.387,0.3761,0.3794,0.4196,0.4009,0.4753,0.6396,0.6428,0.7262,0.8703,0.8703,0.8703,0.8703,0.8703,0.8703,0.8703,0.8703,0.8703,0.8703,0.8703,0.8703,0.8685,0.8599,0.8651,0.8781,0.8735,0.9043,0.9383,0.8942,0.8969,0.9164,0.9017,0.9234,0.9673,1.0459,1.0784,0.0,0.0,0.0,0.0,0.0,0.0,0.0,0.0,0.0,1.2019,1.1795,1.2075,1.2317,1.2317,1.2569,1.2831,1.2804,1.282,1.3376,1.4726,1.5113,1.5209,1.5063,1.6561,1.7564,1.7417,1.7579,1.7613,1.7613,1.9463,2.0328,1.9925,2.1719,2.26,2.2351,2.2352,2.2583,2.2958,2.3598,2.4187,2.4829,2.7023,2.8317,2.8954,3.0482,3.1286,3.1461,3.1567,3.1686,3.1717,3.154,3.1651,3.185,3.185,3.1718,3.1465,3.1814,3.2213,3.2595,0.0,0.0,0.0,0.0,0.0,0.0,0.0,0.0,0.0,0.0,0.0,0.0,0.0,0.0,0.0,0.0,0.0,0.0,0.354,0.3738,0.3861,0.3872,0.3828,0.3934,0.4196,0.4153,0.4843,0.6396,0.6688,0.7456,0.8703,0.8703,0.8703,0.8703,0.8703,0.8703,0.8703,0.8703,0.8703,0.8703,0.8703,0.8703,0.8699,0.8841,0.8974,0.9,0.894,0.8959,0.9034,0.9203,0.9179,0.9097,0.9628,0.9838,1.008,1.0988,1.1301,1.1462,1.2105,1.2258,1.2265,1.2291,1.2305,1.2224,0.0,0.0,1.2337,1.1954,1.2447,1.2889,1.2644,1.306,1.3259,1.3082,1.3224,1.3586,1.4109,1.5196,1.5951,1.6082,1.7007,1.7535,1.7299,1.7602,1.7802,1.7802,1.9443,2.0457,2.0411,2.2296,2.3286,2.3046,2.3418,2.3584,2.3424,2.4299,2.5157,2.6019,2.7394,2.8603,2.9614,3.0444,3.0849,3.1088,3.1599,3.1967,3.2278,3.2278,3.2225,3.2104,3.2104,3.2463,3.3101,3.3319,3.3576,3.3819,0.0,0.0,0.0,0.0,0.0,0.0,0.0,0.0,0.0,0.0,0.0,0.0,0.0,0.0,0.0,0.0,0.0,0.0,0.303,0.3566,0.386,0.387,0.3842,0.401,0.4399,0.4101,0.464,0.6023,0.6464,0.7147,0.8165,0.8551,0.8703,0.8703,0.8703,0.8703,0.8703,0.8703,0.8703,0.8703,0.8703,0.878,0.8851,0.8731,0.8832,0.904,0.9243,0.9574,0.0,0.0,0.9349,0.9512,0.9612,0.9736,0.9944,1.1016,1.1269,1.1414,1.2124,1.2305,1.2305,1.2305,1.2432,1.249,1.2194,1.2428,1.268,1.2603,1.2946,1.3226,1.3142,1.3416,1.3611,0.0,1.3636,1.4125,1.4913,1.5682,1.6458,1.7117,1.7652,1.7874,1.7588,1.7874,1.8081,1.8081,2.0009,2.1003,2.068,2.2467,2.3439,2.3197,2.3368,2.3503,2.3667,2.4423,2.5432,2.6577,2.7695,2.89,3.0114,3.0748,3.1245,3.1662,3.2084,3.2319,3.2393,3.254,3.2655,3.2872,3.3182,3.3874,3.4552,3.3697,3.3842,3.4403,0.0,0.0,0.0,0.0,0.0,0.0,0.0,0.0,0.0,0.0,0.0,0.0,0.0,0.0,0.0,0.0,0.0,0.0,0.0,0.3287,0.3674,0.3879,0.3843,0.4014,0.442,0.4109,0.4643,0.5962,0.6257,0.6908,0.793,0.8305,0.8562,0.8694,0.8694,0.8722,0.8856,0.8856,0.8856,0.8851,0.8718,0.8774,0.8905,0.8543,0.8607,0.8892,0.9331,0.979,0.0,0.0,0.9639,0.9857,0.9753,0.9856,1.0243,1.1106,1.1334,1.1558,1.215,1.2305,1.2318,1.233,1.2516,1.2645,1.2661,1.2922,1.3101,1.3137,1.3464,1.3687,1.3439,1.3674,1.3702,1.3404,1.3805,1.4482,1.5402,1.6104,1.6942,1.7802,1.8232,1.8343,1.8089,1.8295,1.8446,1.8446,2.0373,2.1344,2.077,2.2588,2.3476,2.3281,2.3402,2.3614,2.3927,2.469,2.5684,2.6812,2.7936,2.9221,3.0663,3.1441,3.2064,3.2489,3.283,3.2945,3.2927,3.3088,3.3323,3.3619,3.4204,3.4942,3.5615,3.451,3.4653,3.528,0.0,0.0,0.0,0.0,0.0,0.0,0.0,0.0,0.0,0.0,0.0,0.0,0.0,0.0,0.0,0.0,0.0,0.0,0.0,0.2945,0.3348,0.3759,0.3799,0.3978,0.4303,0.4214,0.4886,0.6384,0.6384,0.6956,0.8099,0.8099,0.8351,0.87,0.87,0.8891,0.9246,0.9246,0.9246,0.9226,0.8857,0.87,0.8675,0.847,0.8392,0.8457,0.9011,0.0,0.0,0.0,1.0146,1.0019,1.0118,1.0719,0.0,1.1175,1.1626,0.0,1.2298,1.2305,1.2304,1.2368,1.2376,1.2525,1.2913,1.3342,1.3626,1.3464,1.3993,1.4391,1.3667,1.3542,1.3379,1.3121,1.3717,1.4489,1.5189,1.6418,1.7545,1.819,1.8597,1.8804,0.0,1.8804,1.8812,1.8812,2.0339,2.1246,2.1021,2.2785,2.3715,2.3533,2.3951,2.4186,2.4206,2.5031,2.5935,2.6812,2.8187,2.9655,3.1228,3.2437,3.3199,3.3535,3.3561,3.3862,3.4345,3.4345,3.4358,3.4371,3.4881,3.5304,3.571,3.6191,3.6559,3.6922,0.0,0.0,0.0,0.0,0.0,0.0,0.0,0.0,0.0,0.0,0.0,0.0,0.0,0.0,0.0,0.0,0.0,0.0,0.0,0.277,0.3213,0.3751,0.3771,0.387,0.4056,0.3911,0.4257,0.516,0.5996,0.6671,0.7265,0.807,0.8471,0.8408,0.8332,0.837,0.851,0.851,0.851,0.8505,0.8356,0.8403,0.846,0.824,0.8221,0.8407,0.0,0.0,0.0,0.0,0.0,0.0,1.0885,0.0,0.0,1.1459,1.1855,1.2305,1.2305,1.2445,1.2619,1.2649,1.3121,1.353,1.3464,1.373,1.3989,1.3907,1.3856,1.3831,1.3561,1.3521,1.3527,1.3515,1.4455,1.5402,1.6191,1.7285,1.8112,1.8621,1.8756,0.0,0.0,0.0,0.0,1.972,2.0889,2.163,2.1933,2.3308,2.3953,2.3715,2.4029,2.4292,2.4368,2.5041,2.5852,2.6823,2.9107,3.0749,3.1836,3.2909,3.3553,3.3844,3.4048,3.4228,3.4397,3.4397,3.4564,3.4908,3.5318,3.5804,3.6232,3.6615,3.6915,3.6978,0.0,0.0,0.0,0.0,0.0,0.0,0.0,0.0,0.0,0.0,0.0,0.0,0.0,0.0,0.0,0.0,0.0,0.0,0.0,0.0,0.3105,0.3857,0.3848,0.391,0.3928,0.3856,0.4072,0.461,0.574,0.6427,0.6781,0.7989,0.8497,0.8448,0.8517,0.8591,0.8737,0.8737,0.8737,0.8722,0.8563,0.8649,0.8759,0.8243,0.8189,0.0,0.0,0.0,0.0,0.0,0.0,0.0,0.0,0.0,0.0,1.1781,1.2077,1.2325,1.2432,1.2679,1.2959,1.3008,1.3408,1.3796,1.3739,1.3847,1.395,1.3945,1.3755,1.3423,1.3244,1.3373,1.3586,1.3509,1.4885,1.613,1.6506,1.7717,1.8573,1.8804,1.8827,1.8827,0.0,0.0,0.0,2.0249,2.0979,2.1784,2.2482,2.3484,2.3937,2.3937,2.411,2.4292,2.454,2.4956,2.6012,2.7731,3.0146,3.1757,3.2646,3.3618,3.4052,3.4052,3.4337,3.4397,3.4397,3.4397,3.4564,3.4908,3.5467,3.5884,3.6218,3.6758,3.6978,3.6978,0.0,0.0,0.0,0.0,0.0,0.0,0.0,0.0,0.0,0.0,0.0,0.0,0.0,0.0,0.0,0.0,0.0,0.0,0.0,0.0,0.0,0.3968,0.3972,0.3981,0.3981,0.3977,0.4224,0.4861,0.5691,0.6293,0.6675,0.7803,0.8422,0.8704,0.9047,0.9416,0.9793,0.9793,0.9798,0.9766,0.9373,0.9324,0.9414,0.8536,0.0,0.0,0.0,0.0,0.0,0.0,0.0,1.1435,1.1624,1.1706,1.1781,1.2157,1.2311,1.2392,1.2768,1.3006,1.3307,1.3348,1.3417,1.349,1.3835,1.3653,1.3542,1.3454,1.3442,1.3268,0.0,0.0,1.3611,1.3254,1.5211,1.6684,1.6337,1.7766,1.8827,0.0,0.0,0.0,0.0,0.0,0.0,2.0249,0.0,2.1535,2.2696,2.3232,2.3677,2.412,2.4206,2.4282,2.454,2.5062,2.6596,2.9289,3.1203,3.2542,3.3519,3.4423,3.466,3.4397,3.4397,3.4397,3.4397,3.4397,3.4397,3.4564,3.5386,3.571,3.5871,3.6665,3.6978,3.6978,0.0,0.0,0.0,0.0,0.0,0.0,0.0,0.0,0.0,0.0,0.0,0.0,0.0,0.0,0.0,0.0,0.0,0.0,0.0,0.0,0.0,0.0,0.0,0.0,0.0,0.0,0.0,0.0,0.0,0.6799,0.6535,0.7875,0.8462,0.8348,0.8343,0.8492,0.8703,0.8703,0.8805,0.9016,0.0,0.9021,0.9056,0.0,0.0,0.0,0.0,0.0,0.0,1.1121,1.1657,1.2058,1.2131,1.215,1.215,1.2305,1.2458,1.2699,1.3013,1.3474,1.3818,1.3698,1.397,1.4179,1.3667,1.351,1.3461,1.3203,1.3039,1.2869,1.2717,0.0,0.0,1.4609,1.584,0.0,1.7681,1.8323,0.0,1.8827,0.0,1.8827,1.8827,1.8827,0.0,0.0,2.0889,2.1733,2.2848,2.3389,2.3677,2.3677,2.4024,2.4368,2.4786,2.6127,2.729,2.8314,3.0601,3.1981,3.2548,3.3874,3.4481,3.4397,3.4397,3.4397,3.4397,3.4397,3.4812,3.5386,3.5629,3.6111,3.6665,3.69,3.6978,3.6978,0.0,0.0,0.0,0.0,0.0,0.0,0.0,0.0,0.0,0.0,0.0,0.0,0.0,0.0,0.0,0.0,0.0,0.0,0.0,0.0,0.0,0.0,0.0,0.0,0.0,0.0,0.0,0.0,0.0,0.0,0.0,0.7875,0.8317,0.8256,0.8364,0.8533,0.8739,0.8739,0.0,0.0,0.0,0.0,0.0,0.0,0.0,0.0,0.0,0.0,0.0,1.1499,1.1872,1.2003,1.2003,1.2157,1.2325,1.2458,1.2712,1.3046,1.348,1.3928,1.4216,1.3989,1.4076,1.4091,1.3498,1.3193,1.3108,1.294,1.2813,1.2705,1.2705,1.3473,1.4239,0.0,0.0,0.0,1.7956,1.8517,1.8827,0.0,1.8827,0.0,1.8827,1.8827,1.9132,0.0,2.0811,2.1616,2.2645,2.3164,2.358,2.3667,2.3851,2.4444,2.5295,2.6354,2.7453,2.8579,3.0081,3.1198,3.1933,3.3195,3.3784,3.3784,0.0,3.4397,3.4397,3.4397,3.4812,3.548,3.5642,3.6111,3.6772,3.6915,3.6915,3.6892,0.0,0.0,0.0,0.0,0.0,0.0,0.0,0.0,0.0,0.0,0.0,0.0,0.0,0.0,0.0,0.0,0.0,0.0,0.0,0.0,0.0,0.0,0.0,0.0,0.0,0.0,0.0,0.0,0.0,0.0,0.0,0.0,0.0,0.0,0.0,0.0,0.0,0.0,0.0,0.0,0.0,0.0,0.0,0.0,0.0,0.0,0.0,0.0,0.0,1.2003,1.2077,1.1781,1.1781,1.2003,1.2365,1.2735,1.2993,1.3387,1.3941,1.4329,1.4535,1.4206,1.3983,1.3711,1.3161,1.288,1.2705,1.2705,1.2705,1.2705,1.2705,1.3698,1.4606,1.4774,0.0,1.7675,1.7795,1.8357,1.8827,1.8827,1.8827,1.8843,1.8899,1.8899,1.9169,1.9812,2.0653,2.1446,2.2288,2.2832,2.3406,2.3841,2.3927,2.4636,2.5994,2.6399,2.7453,2.9285,2.9712,3.0443,3.1488,3.255,3.298,3.3079,0.0,0.0,3.4397,3.4397,3.4647,3.5154,3.5562,3.5978,3.647,3.6758,3.6906,3.6902,0.0,0.0,0.0,0.0,0.0,0.0,0.0,0.0,0.0,0.0,0.0,0.0,0.0,0.0,0.0,0.0,0.0,0.0,0.0,0.0,0.0,0.0,0.0,0.0,0.0,0.0,0.0,0.0,0.0,0.0,0.0,0.0,0.0,0.0,0.0,0.0,0.0,0.0,0.0,0.0,0.0,0.0,0.0,0.0,0.0,0.0,0.0,0.0,0.0,0.0,1.2231,1.2224,1.2224,1.2224,1.2365,1.2735,1.314,1.3647,1.3995,1.4476,1.4747,1.4014,1.3843,1.366,1.2911,1.2741,1.2705,1.2705,1.2705,1.2705,1.2705,1.3248,1.4116,1.5363,1.6267,1.7201,1.8434,1.8735,1.8827,0.0,1.8827,1.8947,1.9248,1.928,0.0,0.0,0.0,2.1609,2.2004,2.2971,2.3677,2.411,2.4529,2.5296,2.6463,2.7314,2.8152,2.8801,3.0082,3.0629,3.0519,3.219,3.298,3.3079,0.0,0.0,3.4397,3.4397,3.4812,3.5318,3.5399,3.5817,3.6405,3.647,3.6934,3.7446,0.0,0.0,0.0,0.0,0.0,0.0,0.0,0.0,0.0,0.0,0.0,0.0,0.0,0.0,0.0,0.0,0.0,0.0,0.0,0.0,0.0,0.0,0.0,0.0,0.0,0.0,0.0,0.0,0.0,0.0,0.0,0.0,0.0,0.0,0.0,0.0,0.0,0.0,0.0,0.0,0.0,0.0,0.0,0.0,0.0,0.0,0.0,0.0,0.0,0.0,1.2157,1.2305,1.2305,1.2305,1.2392,1.2852,1.3407,1.3941,1.4235,1.4629,1.4801,1.4145,1.379,1.3471,1.2991,1.279,1.2705,1.2705,1.2705,1.2705,1.2705,1.3095,1.3799,1.4979,1.5896,1.693,1.8018,1.8542,1.8827,1.8827,1.8827,1.897,1.9336,1.9376,1.9582,0.0,0.0,2.1755,2.1933,2.321,2.3937,2.4206,2.4767,2.5592,2.6583,2.7315,2.8065,2.8668,2.9421,2.9646,2.9555,3.0866,3.184,3.2277,3.325,0.0,3.4397,3.4397,3.4812,3.5399,3.5399,3.5817,3.6405,3.6563,3.673,3.7143,0.0,0.0,0.0,0.0,0.0,0.0,0.0,0.0,0.0,0.0,0.0,0.0,0.0,0.0,0.0,0.0,0.0,0.0,0.0,0.0,0.0,0.0,0.0,0.0,0.0,0.0,0.0,0.0,0.0,0.0,0.0,0.0,0.0,0.0,0.0,0.0,0.0,0.0,0.0,0.0,0.0,0.0,0.0,0.0,0.0,0.0,0.0,0.0,1.1037,1.1558,1.1855,1.2077,1.215,1.215,1.2276,1.3033,1.3546,1.405,1.4362,1.4689,1.4877,1.4248,1.3735,1.3313,1.3137,1.2875,1.2705,1.2705,1.2705,1.2705,1.2705,1.3016,1.3652,1.4417,1.5487,1.6538,1.7524,1.8233,1.8721,1.8743,1.8827,0.0,1.9431,1.9479,0.0,0.0,0.0,0.0,2.2381,2.3496,2.4206,2.4292,2.4908,2.5704,2.6736,2.714,2.7887,2.8914,2.8848,2.885,2.8839,2.9726,3.0699,3.1665,3.2636,0.0,0.0,3.4397,3.4729,3.5318,3.5318,3.5737,3.6325,3.6484,3.6633,3.6882,0.0,0.0,0.0,0.0,0.0,0.0,0.0,0.0,0.0,0.0,0.0,0.0,0.0,0.0,0.0,0.0,0.0,0.0,0.0,0.0,0.0,0.0,0.0,0.0,0.0,0.0,0.0,0.0,0.0,0.0,0.0,0.0,0.0,0.0,0.0,0.0,0.0,0.0,0.0,0.0,0.0,0.0,0.0,0.0,0.0,0.0,0.0,0.0,1.0663,1.1409,1.1484,1.126,1.1632,1.1781,1.1971,1.2955,1.3382,1.3665,1.403,1.4536,1.483,1.3999,1.3587,1.3313,1.3137,1.2875,1.2705,1.2705,1.2705,1.2705,1.2705,1.2916,1.3447,1.4449,1.5107,1.6028,1.749,1.7961,1.8335,1.8775,1.8827,0.0,1.9757,1.982,0.0,0.0,0.0,0.0,2.3951,2.414,2.4282,2.4454,2.4995,2.5851,2.7316,2.7583,2.8254,2.9418,2.9198,2.8943,2.8839,2.9726,3.0699,3.1665,0.0,0.0,0.0,3.4397,3.4647,3.5168,3.5168,3.5575,3.6166,3.6166,3.6723,3.7515,0.0,0.0,0.0,0.0,0.0,0.0,0.0,0.0,0.0,0.0,0.0,0.0,0.0,0.0,0.0,0.0,0.0,0.0,0.0,0.0,0.0,0.0,0.0,0.0,0.0,0.0,0.0,0.0,0.0,0.0,0.0,0.0,0.0,0.0,0.0,0.0,0.0,0.0,0.0,0.0,0.0,0.0,0.0,0.0,0.0,0.0,0.0,0.0,1.0513,1.0887,1.1037,1.1111,1.126,1.1301,1.1514,1.2772,1.3176,1.3355,1.3951,1.4382,1.4508,1.3835,1.3568,1.3313,1.3137,1.2875,1.2705,1.2705,1.2705,1.2705,1.2705,1.2709,1.2925,1.3801,1.4917,1.6078,1.6922,1.8258,1.9073,1.8798,1.9026,1.9344,0.0,0.0,0.0,0.0,0.0,0.0,2.3906,2.421,2.4464,2.454,2.5244,2.6146,2.7127,2.7613,2.8375,2.922,2.9035,2.885,2.885,2.9198,2.9909,3.0789,0.0,0.0,0.0,3.4134,3.466,3.5086,3.5236,3.5656,3.6166,3.6405,3.6702,3.7111,0.0,0.0,0.0,0.0,0.0,0.0,0.0,0.0,0.0,0.0,0.0,0.0,0.0,0.0,0.0,0.0,0.0,0.0,0.0,0.0,0.0,0.0,0.0,0.0,0.0,0.0,0.0,0.0,0.0,0.0,0.0,0.0,0.0,0.0,0.0,0.0,0.0,0.0,0.0,0.0,0.0,0.0,0.0,0.0,0.0,0.0,0.0,0.0,0.0,0.0,0.0,1.0887,1.0887,1.0848,1.1042,1.2726,1.3069,1.315,1.386,1.421,1.4182,1.3894,1.3483,1.3222,1.3222,1.2966,1.2705,1.2705,1.2705,1.2705,1.2705,1.2619,1.2736,1.3532,1.4673,1.5732,1.632,1.7884,1.8814,1.8635,0.0,1.9208,0.0,1.9963,0.0,0.0,0.0,0.0,0.0,2.3998,2.4398,2.4671,2.5375,2.6219,2.7076,2.7547,2.8233,2.9128,2.8943,2.8757,2.8757,2.8757,2.9463,3.0609,0.0,0.0,0.0,3.4134,3.466,3.5086,3.5318,3.5737,3.6246,3.6563,3.6721,3.6777,0.0,0.0,0.0,0.0,0.0,0.0,0.0,0.0,0.0,0.0,0.0,0.0,0.0,0.0,0.0,0.0,0.0,0.0,0.0,0.0,0.0,0.0,0.0,0.0,0.0,0.0,0.0,0.0,0.0,0.0,0.0,0.0,0.0,0.0,0.0,0.0,0.0,0.0,0.0,0.0,0.0,0.0,0.0,0.0,0.0,0.0,0.0,0.0,0.0,0.0,0.0,0.0,0.0,1.0395,1.0651,1.2647,1.3041,1.2966,1.3828,1.3946,1.3828,1.407,1.3398,1.279,1.3307,1.3045,1.2705,1.2705,1.2705,1.2705,1.2705,1.2705,1.2964,1.3773,1.4123,1.4673,1.5708,1.6343,1.7021,1.8115,1.8103,1.8616,1.9731,2.0178,0.0,0.0,0.0,0.0,0.0,2.3439,2.4283,2.5057,2.5341,2.6103,2.7274,2.7285,2.7899,2.9128,2.8943,2.8757,2.8757,2.8757,2.9818,0.0,0.0,0.0,0.0,3.4397,3.466,3.5086,3.5318,3.5817,3.6405,3.6642,3.6721,3.6721,0.0,0.0,0.0,0.0,0.0,0.0,0.0,0.0,0.0,0.0,0.0,0.0,0.0,0.0,0.0,0.0,0.0,0.0,0.0,0.0,0.0,0.0,0.0,0.0,0.0,0.0,0.0,0.0,0.0,0.0,0.0,0.0,0.0,0.0,0.0,0.0,0.0,0.0,0.0,0.0,0.0,0.0,0.0,0.0,0.0,0.0,0.0,0.0,0.0,0.0,0.0,0.0,0.0,0.0,0.0,1.1976,1.2419,1.2655,1.3432,1.3547,1.3506,1.3417,1.32,1.294,1.2753,1.2856,1.2934,1.2741,1.2705,1.2705,1.2705,1.2705,1.2964,1.3773,1.4603,1.5364,1.572,1.7429,1.8599,1.8251,1.8889,1.945,0.0,0.0,0.0,0.0,0.0,0.0,0.0,2.2545,2.3175,2.4229,2.5532,2.6516,2.702,2.7387,2.7839,2.8357,2.8265,2.8265,2.8276,2.8604,0.0,0.0,0.0,0.0,0.0,3.4134,3.4729,3.5318,3.5562,3.5978,3.6642,3.685,3.7116,3.7334,0.0,0.0,0.0,0.0,0.0,0.0,0.0,0.0,0.0,0.0,0.0,0.0,0.0,0.0,0.0,0.0,0.0,0.0,0.0,0.0,0.0,0.0,0.0,0.0,0.0,0.0,0.0,0.0,0.0,0.0,0.0,0.0,0.0,0.0,0.0,0.0,0.0,0.0,0.0,0.0,0.0,0.0,0.7172,0.0,0.0,0.0,0.0,0.0,0.0,0.0,0.0,0.0,0.0,0.0,0.0,0.0,1.177,1.2416,1.3178,1.3137,1.2966,1.3137,1.3009,1.2815,1.273,1.2913,1.3073,1.2898,1.2777,1.2705,1.2705,1.2875,1.3209,1.3924,1.4854,1.5458,1.5505,1.7133,1.8184,1.7967,0.0,0.0,0.0,0.0,0.0,0.0,0.0,0.0,0.0,2.1928,2.2395,2.3172,2.5075,2.6351,2.7004,2.7483,2.7763,2.8036,2.8036,2.7938,2.7785,2.8265,0.0,0.0,0.0,0.0,0.0,3.4134,3.4812,3.5399,3.5642,3.6138,3.6749,3.7116,3.7358,3.7493,0.0,0.0,0.0,0.0,0.0,0.0,0.0,0.0,0.0,0.0,0.0,0.0,0.0,0.0,0.0,0.0,0.0,0.0,0.0,0.0,0.0,0.0,0.0,0.0,0.0,0.0,0.0,0.0,0.0,0.0,0.0,0.0,0.0,0.0,0.0,0.0,0.0,0.0,0.0,0.0,0.0,0.0,0.0,0.0,0.0,0.0,0.0,0.0,0.0,0.0,0.0,0.0,0.0,0.0,0.0,0.0,0.0,0.0,0.0,1.2619,1.2186,1.3052,1.2829,1.2503,1.2945,1.3033,0.0,1.3121,1.2898,1.2705,1.2705,1.3182,1.3721,1.4165,1.4716,1.5075,1.5039,1.5571,0.0,0.0,1.907,0.0,0.0,0.0,0.0,0.0,0.0,0.0,0.0,2.1623,2.2021,2.2123,2.4031,2.5654,2.7125,2.7405,2.772,2.7992,2.796,2.7697,2.7282,2.7774,0.0,0.0,0.0,0.0,0.0,3.4384,3.4812,3.5399,3.5642,3.6058,3.6712,3.7404,3.7493,3.7359,0.0,0.0,0.0,0.0,0.0,0.0,0.0,0.0,0.0,0.0,0.0,0.0,0.0,0.0,0.0,0.0,0.0,0.0,0.0,0.0,0.0,0.0,0.0,0.0,0.0,0.0,0.0,0.0,0.0,0.0,0.0,0.0,0.0,0.0,0.0,0.0,0.0,0.0,0.0,0.0,0.0,0.0,0.0,0.0,0.0,0.0,0.6117,0.6417,0.0,0.0,0.0,0.0,0.0,0.0,0.0,0.0,1.1196,0.0,0.0,0.0,1.2015,1.2272,1.2127,1.1965,0.0,1.2586,1.268,1.3033,1.3077,1.2966,1.2705,1.3182,1.3721,1.4165,1.443,1.4684,1.5264,1.5891,0.0,1.7061,1.8354,1.9029,0.0,0.0,0.0,0.0,0.0,0.0,0.0,2.1121,2.142,2.2123,2.3879,2.5334,2.6224,2.671,2.7044,2.7479,2.713,2.69,2.6802,2.7272,0.0,0.0,0.0,0.0,3.3809,3.4228,3.4729,3.5236,3.5562,3.5884,3.6273,3.7229,3.7661,3.7785,0.0,0.0,0.0,0.0,0.0,0.0,0.0,0.0,0.0,0.0,0.0,0.0,0.0,0.0,0.0,0.0,0.0,0.0,0.0,0.0,0.0,0.0,0.0,0.0,0.0,0.0,0.0,0.0,0.0,0.0,0.0,0.0,0.0,0.0,0.0,0.0,0.0,0.0,0.0,0.0,0.0,0.0,0.0,0.0,0.0,0.0,0.5454,0.5797,0.0,0.6777,0.7698,0.8737,0.0,0.0,0.0,0.0,1.0815,0.0,0.0,1.1682,1.1768,1.1929,1.1865,1.1815,1.2467,1.2494,1.262,1.3278,1.3163,1.2881,1.2875,1.3293,1.3791,1.4189,1.4532,0.0,0.0,0.0,1.6166,1.6445,1.7858,0.0,0.0,0.0,0.0,0.0,0.0,0.0,0.0,2.0925,2.1121,2.1522,2.3475,2.4944,2.6031,2.6804,2.7266,2.7304,2.6846,2.6507,2.631,2.678,0.0,0.0,0.0,0.0,3.3014,3.3641,3.4327,3.4977,3.5386,3.571,3.5952,3.6973,3.7483,3.7907,0.0,0.0,0.0,0.0,0.0,0.0,0.0,0.0,0.0,0.0,0.0,0.0,0.0,0.0,0.0,0.0,0.0,0.0,0.0,0.0,0.0,0.0,0.0,0.0,0.0,0.0,0.0,0.0,0.0,0.0,0.0,0.0,0.0,0.0,0.0,0.0,0.0,0.0,0.0,0.0,0.0,0.0,0.0,0.0,0.0,0.0,0.0,0.0,0.0,0.6163,0.718,0.824,0.7799,0.0,0.0,0.0,0.0,0.0,1.1262,1.1176,1.1257,1.1763,1.175,1.1798,1.2485,1.2529,1.2514,1.3405,1.3142,1.279,1.2881,1.3453,1.4001,0.0,0.0,0.0,1.5304,1.5557,1.5694,1.5524,1.7353,0.0,0.0,0.0,0.0,0.0,0.0,0.0,0.0,2.0925,2.0925,2.0925,2.2902,2.4641,2.573,2.7115,2.763,2.7304,2.6769,2.6299,2.5917,2.6332,0.0,0.0,0.0,0.0,3.2047,3.2898,3.3753,3.4515,3.5114,3.5386,3.5616,3.6539,3.7221,3.7836,0.0,0.0,0.0,0.0,0.0,0.0,0.0,0.0,0.0,0.0,0.0,0.0,0.0,0.0,0.0,0.0,0.0,0.0,0.0,0.0,0.0,0.0,0.0,0.0,0.0,0.0,0.0,0.0,0.0,0.0,0.0,0.0,0.0,0.0,0.0,0.0,0.0,0.0,0.0,0.0,0.0,0.0,0.0,0.0,0.0,0.0,0.0,0.0,0.0,0.5935,0.6482,0.6857,0.7655,0.0,0.0,0.0,0.0,0.0,1.1089,1.0733,1.0299,1.117,1.1289,1.1292,1.206,1.2003,1.1891,1.2326,1.2754,1.2875,1.2272,1.3237,1.4155,0.0,0.0,1.5234,0.0,0.0,1.4677,1.4202,0.0,0.0,0.0,0.0,0.0,0.0,0.0,0.0,0.0,0.0,2.0925,2.0925,2.2802,2.41,2.4688,2.6084,2.6947,2.7304,2.6431,2.5972,2.5895,2.5983,2.6496,0.0,0.0,2.9646,3.071,3.2319,3.3014,3.3307,3.4627,3.5072,3.503,3.6375,3.7152,3.7677,0.0,0.0,0.0,0.0,0.0,0.0,0.0,0.0,0.0,0.0,0.0,0.0,0.0,0.0,0.0,0.0,0.0,0.0,0.0,0.0,0.0,0.0,0.0,0.0,0.0,0.0,0.0,0.0,0.0,0.0,0.0,0.0,0.0,0.0,0.0,0.0,0.0,0.0,0.0,0.0,0.0,0.0,0.0,0.0,0.0,0.0,0.0,0.0,0.0,0.0,0.5956,0.6414,0.6558,0.0,0.0,0.0,0.0,0.0,0.9772,0.9859,1.0033,1.0472,1.0651,1.106,1.1733,1.151,1.131,1.1993,1.2284,1.249,1.2452,0.0,1.3975,1.4261,0.0,1.5332,1.4718,1.452,0.0,0.0,0.0,0.0,0.0,0.0,0.0,0.0,0.0,0.0,0.0,0.0,2.0925,2.0925,2.2512,2.3581,2.3883,2.531,2.6397,2.7085,2.6308,2.5895,2.5895,2.5895,2.6146,2.655,0.0,2.8898,2.9687,3.1339,3.2329,3.2988,3.4068,3.4534,3.4865,3.621,3.7069,3.7663,0.0,0.0,0.0,0.0,0.0,0.0,0.0,0.0,0.0,0.0,0.0,0.0,0.0,0.0,0.0,0.0,0.0,0.0,0.0,0.0,0.0,0.0,0.0,0.0,0.0,0.0,0.0,0.0,0.0,0.0,0.0,0.0,0.0,0.0,0.0,0.0,0.0,0.0,0.0,0.0,0.0,0.0,0.0,0.0,0.0,0.0,0.0,0.0,0.0,0.0,0.0,0.0,0.0,0.0,0.0,0.0,0.8105,0.9157,0.8632,0.8982,0.9593,0.9859,1.0381,1.0952,1.1398,1.1118,1.0942,1.1558,1.1936,1.2169,1.2445,1.3105,0.0,1.4618,1.5106,1.5225,0.0,0.0,0.0,0.0,0.0,0.0,0.0,0.0,0.0,0.0,0.0,0.0,0.0,0.0,2.0885,2.0798,2.2107,2.2921,2.3108,2.4552,2.577,2.665,2.6168,2.5895,2.5895,2.5895,2.5895,2.5979,2.7418,2.8277,2.8807,3.0428,3.1567,3.2439,3.343,3.4283,3.5043,3.621,3.6999,3.7623,0.0,0.0,0.0,0.0,0.0,0.0,0.0,0.0,0.0,0.0,0.0,0.0,0.0,0.0,0.0,0.0,0.0,0.0,0.0,0.0,0.0,0.0,0.0,0.0,0.0,0.0,0.0,0.0,0.0,0.0,0.0,0.0,0.0,0.0,0.0,0.0,0.0,0.0,0.0,0.0,0.0,0.0,0.0,0.0,0.0,0.0,0.0,0.0,0.0,0.0,0.0,0.0,0.0,0.0,0.0,0.0,0.7228,0.7492,0.8281,0.8544,0.8807,0.9685,1.0559,1.1181,1.1116,1.1176,1.1073,1.0574,0.0,0.0,0.0,1.2894,1.413,1.498,1.5071,1.4915,0.0,0.0,0.0,0.0,0.0,0.0,0.0,0.0,0.0,0.0,0.0,0.0,0.0,0.0,0.0,2.044,2.1395,2.2179,2.247,2.3793,2.4954,2.5882,2.5894,2.5895,2.5895,2.5895,2.5895,2.5979,2.7255,2.7822,2.8054,2.9893,3.0658,3.0994,3.2888,3.4459,3.571,3.6375,3.6999,3.7623,0.0,0.0,0.0,0.0,0.0,0.0,0.0,0.0,0.0,0.0,0.0,0.0,0.0,0.0,0.0,0.0,0.0,0.0,0.0,0.0,0.0,0.0,0.0,0.0,0.0,0.0,0.0,0.0,0.0,0.0,0.0,0.0,0.0,0.0,0.0,0.0,0.0,0.0,0.0,0.0,0.0,0.0,0.0,0.0,0.0,0.0,0.0,0.0,0.0,0.0,0.5233,0.0,0.0,0.0,0.0,0.0,0.6612,0.7051,0.6789,0.7228,0.7753,0.8105,0.9331,1.0472,1.0733,1.0289,0.9887,1.021,1.0929,0.0,0.0,0.0,1.434,1.4813,1.4825,0.0,0.0,0.0,0.0,0.0,0.0,0.0,0.0,0.0,0.0,0.0,0.0,0.0,0.0,0.0,0.0,2.0075,2.0531,2.1038,2.1624,2.2903,2.3959,2.4814,2.555,2.5895,2.5895,2.5895,2.5975,2.6151,2.7463,2.7987,2.8187,2.9633,3.0451,3.1026,3.301,3.4313,3.5235,3.5832,3.6429,3.7039,0.0,0.0,0.0,0.0,0.0,0.0,0.0,0.0,0.0,0.0,0.0,0.0,0.0,0.0,0.0,0.0,0.0,0.0,0.0,0.0,0.0,0.0,0.0,0.0,0.0,0.0,0.0,0.0,0.0,0.0,0.0,0.0,0.0,0.0,0.0,0.0,0.0,0.0,0.0,0.0,0.0,0.0,0.0,0.0,0.0,0.0,0.0,0.0,0.0,0.0,0.5268,0.0,0.0,0.0,0.0,0.0,0.0,0.6523,0.5908,0.6349,0.7139,0.7492,0.8544,0.9699,1.0732,1.0221,0.973,1.0244,1.0975,1.1944,1.3019,0.0,0.0,0.0,0.0,0.0,0.0,0.0,0.0,0.0,0.0,0.0,0.0,0.0,0.0,0.0,0.0,0.0,0.0,0.0,0.0,0.0,1.9947,2.0293,2.0802,2.2035,2.307,2.3986,2.501,2.5633,2.5895,2.5895,2.5988,2.6314,2.7462,2.8104,2.8291,2.9497,3.0417,3.1146,3.2698,3.386,3.4711,3.5209,3.5927,3.6659,0.0,0.0,0.0,0.0,0.0,0.0,0.0,0.0,0.0,0.0,0.0,0.0,0.0,0.0,0.0,0.0,0.0,0.0,0.0,0.0,0.0,0.0,0.0,0.0,0.0,0.0,0.0,0.0,0.0,0.0,0.0,0.0,0.0,0.0,0.0,0.0,0.0,0.0,0.0,0.0,0.0,0.0,0.0,0.0,0.0,0.0,0.0,0.0,0.0,0.0,0.5271,0.0,0.0,0.0,0.0,0.0,0.5733,0.5733,0.5733,0.6349,0.7316,0.8281,0.8456,0.9029,1.0934,1.1169,1.09,1.0367,1.1614,1.2958,1.3443,1.4143,0.0,0.0,0.0,0.0,0.0,0.0,0.0,0.0,0.0,0.0,0.0,0.0,0.0,0.0,0.0,0.0,0.0,0.0,0.0,0.0,0.0,0.0,1.986,2.1094,2.227,2.3411,2.4115,2.502,2.5895,2.5906,2.5999,2.6228,2.7309,2.7941,2.8291,2.9352,3.0417,3.1318,3.1759,3.2829,3.4233,3.4657,3.5574,3.6757,0.0,0.0,0.0,0.0,0.0,0.0,0.0,0.0,0.0,0.0,0.0,0.0,0.0,0.0,0.0,0.0,0.0,0.0,0.0,0.0,0.0,0.0,0.0,0.0,0.0,0.0,0.0,0.0,0.0,0.0,0.0,0.0,0.0,0.0,0.0,0.0,0.0,0.0,0.0,0.0,0.0,0.0,0.0,0.0,0.0,0.0,0.0,0.0,0.0,0.0,0.0,0.0,0.0,0.0,0.0,0.5733,0.5733,0.5733,0.5733,0.5911,0.6349,0.7316,0.8017,0.8677,0.9127,0.9804,1.0519,0.0,1.221,1.2958,1.3443,0.0,0.0,0.0,0.0,0.0,0.0,0.0,0.0,0.0,0.0,0.0,0.0,0.0,0.0,0.0,0.0,0.0,0.0,0.0,0.0,0.0,0.0,0.0,2.0459,2.1003,2.2161,2.3977,2.4301,2.502,2.5917,2.6256,2.6411,2.6547,2.7752,2.83,2.8526,2.942,3.0112,3.074,3.1602,3.2592,3.3686,3.4522,3.562,3.6879,0.0,0.0,0.0,0.0,0.0,0.0,0.0,0.0,0.0,0.0,0.0,0.0,0.0,0.0,0.0,0.0,0.0,0.0,0.0,0.0,0.0,0.0,0.0,0.0,0.0,0.0,0.0,0.0,0.0,0.0,0.0,0.0,0.0,0.0,0.0,0.0,0.0,0.0,0.0,0.0,0.0,0.0,0.0,0.0,0.0,0.0,0.0,0.0,0.0,0.0,0.0,0.0,0.5695,0.0,0.5733,0.5733,0.5733,0.5733,0.5733,0.5733,0.5908,0.6877,0.7492,0.8078,0.8584,0.0,0.0,0.0,1.2309,1.3177,1.3477,0.0,0.0,0.0,0.0,0.0,0.0,0.0,0.0,0.0,0.0,0.0,0.0,0.0,0.0,0.0,0.0,0.0,0.0,0.0,0.0,0.0,0.0,0.0,1.995,2.0298,2.1463,2.3543,2.3771,2.4669,2.5917,2.6409,2.6628,2.6783,2.8111,2.8833,2.9023,2.9559,2.9934,3.0267,3.1213,3.199,3.2879,3.4012,3.5155,3.6281,0.0,0.0,0.0,0.0,0.0,0.0,0.0,0.0,0.0,0.0,0.0,0.0,0.0,0.0,0.0,0.0,0.0,0.0,0.0,0.0,0.0,0.0,0.0,0.0,0.0,0.0,0.0,0.0,0.0,0.0,0.0,0.0,0.0,0.0,0.0,0.0,0.0,0.0,0.0,0.0,0.0,0.0,0.0,0.0,0.0,0.0,0.0,0.0,0.0,0.0,0.0,0.0,0.5697,0.5733,0.5733,0.5733,0.5733,0.5733,0.5733,0.5733,0.5908,0.6877,0.716,0.7434,0.8652,0.9337,0.9807,1.0476,0.0,1.3494,1.3562,0.0,0.0,0.0,0.0,0.0,0.0,0.0,0.0,0.0,0.0,0.0,0.0,0.0,0.0,0.0,0.0,0.0,0.0,0.0,0.0,0.0,0.0,0.0,1.8948,1.9382,2.0554,0.0,2.284,2.3973,2.5833,2.6367,2.6846,2.7259,2.843,2.9284,2.9869,2.9869,2.9792,2.9869,3.0685,3.1339,3.2056,3.3356,3.4349,3.5274,0.0,0.0,0.0,0.0,0.0,0.0,0.0,0.0,0.0,0.0,0.0,0.0,0.0,0.0,0.0,0.0,0.0,0.0,0.0,0.0,0.0,0.0,0.0,0.0,0.0,0.0,0.0,0.0,0.0,0.0,0.0,0.0,0.0,0.0,0.0,0.0,0.0,0.0,0.0,0.0,0.0,0.0,0.0,0.0,0.0,0.0,0.0,0.0,0.0,0.0,0.0,0.0,0.5725,0.5733,0.5733,0.5733,0.5733,0.5733,0.5733,0.5733,0.5908,0.6877,0.7225,0.7436,0.7614,0.8549,0.9797,1.1567,1.2799,1.3657,1.4353,0.0,0.0,0.0,0.0,0.0,0.0,0.0,0.0,0.0,0.0,0.0,0.0,0.0,0.0,0.0,0.0,0.0,0.0,0.0,0.0,0.0,0.0,1.9087,1.9636,1.9188,1.9996,0.0,2.2387,2.3337,2.4871,2.6411,2.7819,2.9032,2.9083,2.9506,3.0011,3.0011,2.9934,2.9869,3.0685,3.1339,3.2003,3.2898,3.4696,3.673,0.0,0.0,0.0,0.0,0.0,0.0,0.0,0.0,0.0,0.0,0.0,0.0,0.0,0.0,0.0,0.0,0.0,0.0,0.0,0.0,0.0,0.0,0.0,0.0,0.0,0.0,0.0,0.0,0.0,0.0,0.0,0.0,0.0,0.0,0.0,0.0,0.0,0.0,0.0,0.0,0.0,0.0,0.0,0.0,0.0,0.0,0.0,0.0,0.0,0.0,0.0,0.0,0.0,0.0,0.5733,0.5733,0.5733,0.5733,0.5733,0.5733,0.5836,0.6424,0.6682,0.6868,0.681,0.7723,0.9256,1.1425,1.2589,1.3474,0.0,0.0,0.0,0.0,0.0,0.0,0.0,0.0,0.0,0.0,0.0,0.0,0.0,0.0,0.0,0.0,0.0,0.0,0.0,1.6264,1.7304,0.0,1.8827,1.9015,1.9293,1.9015,1.9545,2.1072,2.2017,2.3632,2.587,2.6812,2.817,2.9616,2.9435,2.9752,3.0228,3.0152,3.0011,3.0011,3.0533,3.1005,3.1609,3.284,3.4329,3.5899,0.0,0.0,0.0,0.0,0.0,0.0,0.0,0.0,0.0,0.0,0.0,0.0,0.0,0.0,0.0,0.0,0.0,0.0,0.0,0.0,0.0,0.0,0.0,0.0,0.0,0.0,0.0,0.0,0.0,0.0,0.0,0.0,0.0,0.0,0.0,0.0,0.0,0.0,0.0,0.0,0.0,0.0,0.0,0.0,0.0,0.0,0.0,0.0,0.0,0.57,0.0,0.0,0.0,0.0,0.5733,0.5733,0.5733,0.5733,0.5733,0.5733,0.5765,0.5901,0.601,0.6121,0.6265,0.7156,0.8549,1.0671,1.1854,1.3044,0.0,0.0,0.0,0.0,0.0,0.0,0.0,0.0,0.0,0.0,0.0,0.0,0.0,0.0,0.0,0.0,0.0,0.0,1.5704,1.5798,1.6741,1.8735,1.8827,1.8827,1.8827,1.8735,1.9088,1.9968,2.1649,2.4095,2.7195,2.7195,2.8091,2.9616,2.9616,2.9927,3.0444,3.0305,3.0152,3.0152,3.0444,3.081,3.1386,3.2923,3.3898,3.4783,0.0,0.0,0.0,0.0,0.0,0.0,0.0,0.0,0.0,0.0,0.0,0.0,0.0,0.0,0.0,0.0,0.0,0.0,0.0,0.0,0.0,0.0,0.0,0.0,0.0,0.0,0.0,0.0,0.0,0.0,0.0,0.0,0.0,0.0,0.0,0.0,0.0,0.0,0.0,0.0,0.0,0.0,0.0,0.0,0.0,0.0,0.0,0.0,0.0,0.0,0.5733,0.0,0.0,0.0,0.5733,0.5733,0.5733,0.5733,0.5733,0.5733,0.5784,0.6007,0.6072,0.6143,0.6363,0.7217,0.8517,0.0,1.1155,0.0,0.0,0.0,0.0,0.0,0.0,0.0,0.0,0.0,0.0,0.0,0.0,0.0,0.0,0.0,0.0,0.0,0.0,0.0,1.5704,1.5798,1.6741,1.8735,1.8827,1.8827,1.8827,1.8365,1.8458,1.9004,2.1302,2.3944,2.6715,2.6715,2.7849,2.9846,2.9846,3.017,3.0698,3.0622,3.0533,3.0444,3.0973,3.1589,3.2205,3.2945,3.4378,3.5946,0.0,0.0,0.0,0.0,0.0,0.0,0.0,0.0,0.0,0.0,0.0,0.0,0.0,0.0,0.0,0.0,0.0,0.0,0.0,0.0,0.0,0.0,0.0,0.0,0.0,0.0,0.0,0.0,0.0,0.0,0.0,0.4876,0.4858,0.0,0.0,0.0,0.0,0.0,0.0,0.0,0.0,0.0,0.0,0.0,0.0,0.0,0.0,0.0,0.0,0.0,0.0,0.5733,0.5733,0.0,0.0,0.0,0.5733,0.5733,0.5733,0.5733,0.5773,0.5939,0.6034,0.613,0.6304,0.6784,0.7524,0.9193,0.0,0.0,0.0,0.0,0.0,0.0,0.0,0.0,0.0,0.0,0.0,0.0,0.0,0.0,0.0,0.0,0.0,0.0,0.0,1.3431,1.4854,1.5514,1.6459,1.787,1.8542,1.8743,1.8658,1.828,1.8711,1.9968,2.1293,2.3467,2.6184,2.6455,2.755,2.9308,2.9308,2.9794,3.0698,3.0609,3.0533,3.0609,3.0609,3.1219,3.2104,3.2759,3.4014,3.5423,0.0,0.0,0.0,0.0,0.0,0.0,0.0,0.0,0.0,0.0,0.0,0.0,0.0,0.0,0.0,0.0,0.0,0.0,0.0,0.0,0.0,0.0,0.0,0.0,0.0,0.0,0.0,0.0,0.0,0.0,0.5052,0.4938,0.4879,0.0,0.4977,0.0,0.0,0.0,0.0,0.0,0.0,0.0,0.0,0.0,0.0,0.0,0.0,0.0,0.0,0.0,0.0,0.0,0.0,0.0,0.0,0.0,0.0,0.5733,0.5733,0.5733,0.576,0.5874,0.5996,0.6119,0.6241,0.0,0.683,0.0,0.0,0.0,0.0,0.0,0.0,0.0,0.0,0.0,0.0,0.0,0.0,0.0,0.0,0.0,0.0,0.0,0.0,0.0,0.0,1.3244,1.4298,1.5235,1.6264,1.7296,1.8257,1.8658,1.8481,1.8187,1.898,2.0935,2.1194,2.2871,2.5732,2.6163,2.715,2.8527,2.8751,2.9493,3.0622,3.0533,3.0533,3.0698,3.0546,3.1235,3.2278,3.2943,3.3915,3.5038,0.0,0.0,0.0,0.0,0.0,0.0,0.0,0.0,0.0,0.0,0.0,0.0,0.0,0.0,0.0,0.0,0.0,0.0,0.0,0.0,0.0,0.0,0.0,0.0,0.0,0.0,0.0,0.0,0.0,0.0,0.4836,0.4953,0.5007,0.5007,0.5015,0.5018,0.5018,0.0,0.0,0.0,0.0,0.0,0.0,0.0,0.0,0.0,0.0,0.0,0.0,0.0,0.0,0.0,0.0,0.0,0.0,0.0,0.0,0.0,0.5733,0.5733,0.576,0.5874,0.5996,0.6119,0.6241,0.0,0.6734,0.7822,0.0,0.0,0.0,0.0,0.0,0.0,0.0,0.0,0.0,0.0,0.0,0.0,0.0,0.0,0.0,0.0,0.0,0.0,0.0,1.3244,1.4298,1.5235,1.6264,1.7296,1.8087,1.8481,1.8481,1.8009,1.8796,2.0935,2.0764,2.2287,2.5232,2.5622,2.661,2.7869,2.862,2.9506,3.0444,3.0609,3.0698,3.0773,3.1312,3.23,3.3479,3.3865,3.4706,3.5668,0.0,0.0,0.0,0.0,0.0,0.0,0.0,0.0,0.0,0.0,0.0,0.0,0.0,0.0,0.0,0.0,0.0,0.0,0.0,0.0,0.0,0.0,0.0,0.0,0.0,0.0,0.0,0.0,0.0,0.5027,0.4953,0.4996,0.5018,0.5018,0.5018,0.5018,0.5021,0.5094,0.0,0.0,0.0,0.0,0.0,0.0,0.0,0.0,0.0,0.0,0.0,0.0,0.0,0.0,0.0,0.0,0.0,0.0,0.5784,0.5825,0.5754,0.5787,0.5836,0.5803,0.5939,0.6097,0.614,0.6298,0.6537,0.6933,0.0,0.0,0.0,0.0,0.0,0.0,0.0,0.0,0.0,0.0,0.0,0.0,0.0,0.0,0.0,0.0,0.0,0.0,0.0,0.0,1.4298,1.5235,1.6177,1.7023,1.7994,1.8295,1.8009,1.8265,1.9063,2.0494,2.1132,2.2639,2.4754,2.5495,2.6565,2.781,2.8494,2.9369,3.0228,3.0305,3.0599,3.1074,3.1151,3.2101,3.3485,3.3642,3.4354,3.5383,0.0,0.0,0.0,0.0,0.0,0.0,0.0,0.0,0.0,0.0,0.0,0.0,0.0,0.0,0.0,0.0,0.0,0.0,0.0,0.0,0.0,0.0,0.0,0.0,0.0,0.0,0.0,0.0,0.0,0.0,0.0,0.0,0.5037,0.5072,0.5072,0.5072,0.0,0.0,0.0,0.5322,0.0,0.0,0.5534,0.0,0.0,0.0,0.0,0.0,0.0,0.0,0.0,0.0,0.0,0.0,0.0,0.0,0.0,0.0,0.5812,0.5817,0.5828,0.5752,0.5912,0.6086,0.6086,0.6268,0.6534,0.6833,0.0,0.0,0.0,0.0,0.0,0.0,0.0,0.0,0.0,0.0,0.0,0.0,0.0,0.0,0.0,0.0,0.0,0.0,0.0,0.0,1.41,1.514,1.6089,1.7131,1.7908,1.8009,1.7527,1.8434,1.9239,2.0232,2.1239,2.257,2.4166,2.5305,2.6378,2.7557,2.8633,2.9443,3.0011,3.0075,3.0368,3.0867,3.1059,3.1927,3.3206,3.3468,3.4214,3.5142,0.0,0.0,0.0,0.0,0.0,0.0,0.0,0.0,0.0,0.0,0.0,0.0,0.0,0.0,0.0,0.0,0.0,0.0,0.0,0.0,0.0,0.0,0.0,0.0,0.0,0.0,0.0,0.0,0.0,0.0,0.0,0.0,0.508,0.0,0.5189,0.5195,0.5197,0.0,0.5333,0.5464,0.0,0.5539,0.5733,0.0,0.0,0.0,0.5733,0.5733,0.0,0.5733,0.0,0.0,0.0,0.0,0.0,0.0,0.0,0.0,0.0,0.0,0.0,0.0,0.0,0.0,0.6089,0.0,0.6734,0.7826,0.0,0.0,0.0,0.0,0.0,0.0,0.0,0.0,0.0,0.0,0.0,0.0,0.0,0.0,0.0,0.0,0.0,0.0,0.0,1.3147,1.3902,1.4956,1.6103,1.7628,1.7721,1.7527,1.7326,1.8334,1.933,2.0232,2.0799,2.1891,2.358,2.502,2.6108,2.6976,2.8961,2.9792,2.9792,3.0011,3.0088,3.0241,3.1151,3.1849,3.2585,3.3656,3.4409,3.5001,0.0,0.0,0.0,0.0,0.0,0.0,0.0,0.0,0.0,0.0,0.0,0.0,0.0,0.0,0.0,0.0,0.0,0.0,0.0,0.0,0.0,0.0,0.0,0.0,0.0,0.0,0.0,0.0,0.0,0.0,0.0,0.0,0.0,0.0,0.5279,0.5368,0.545,0.545,0.0,0.0,0.5648,0.5703,0.0,0.0,0.0,0.0,0.0,0.5733,0.5733,0.0,0.5733,0.5746,0.0,0.0,0.0,0.0,0.0,0.0,0.5803,0.0,0.0,0.0,0.0,0.0,0.0,0.0,0.8616,0.812,0.0,0.0,0.0,0.0,0.0,0.0,0.0,0.0,0.0,0.0,0.0,0.0,0.0,0.0,0.0,0.0,0.0,0.0,1.2951,1.3431,1.486,1.6292,1.7246,1.7721,1.7527,1.7426,1.7326,1.8964,1.9877,1.9977,2.1347,2.2931,2.4713,2.5346,2.6591,2.8303,2.9378,2.9792,2.9792,2.9869,3.0096,3.0511,3.1187,3.2174,3.3425,3.3974,3.4753,3.5509,0.0,0.0,0.0,0.0,0.0,0.0,0.0,0.0,0.0,0.0,0.0,0.0,0.0,0.0,0.0,0.0,0.0,0.0,0.0,0.0,0.0,0.0,0.0,0.0,0.0,0.0,0.0,0.0,0.0,0.0,0.0,0.0,0.0,0.0,0.0,0.0,0.0,0.0,0.0,0.0,0.5706,0.0,0.0,0.5733,0.5733,0.0,0.0,0.0,0.5741,0.5787,0.5803,0.0,0.0,0.0,0.0,0.0,0.0,0.0,0.0,0.0,0.0,0.0,0.0,0.0,0.654,0.8021,0.9406,0.0,0.0,0.0,0.0,0.0,0.0,0.0,0.0,0.0,0.0,0.0,0.0,0.0,0.0,0.0,0.0,0.0,0.0,1.3145,1.2907,1.3528,1.5146,1.6669,1.7527,1.7527,1.7426,1.7326,1.7326,1.9239,2.0059,1.9894,2.1615,2.3193,2.4692,2.5419,2.6673,2.8438,2.9378,2.9792,2.9792,2.9792,2.998,3.0319,3.0766,3.1967,3.3528,3.4059,3.4911,3.5783,0.0,0.0,0.0,0.0,0.0,0.0,0.0,0.0,0.0,0.0,0.0,0.0,0.0,0.0,0.0,0.0,0.0,0.0,0.0,0.0,0.0,0.0,0.0,0.0,0.0,0.0,0.0,0.0,0.0,0.0,0.0,0.0,0.0,0.0,0.0,0.0,0.0,0.0,0.0,0.5733,0.5733,0.5733,0.0,0.0,0.5733,0.0,0.5733,0.5733,0.5749,0.585,0.5893,0.0,0.0,0.0,0.0,0.0,0.5904,0.0,0.0,0.0,0.0,0.0,0.0,0.0,0.6863,0.8325,0.9903,0.0,0.0,0.0,0.0,0.0,0.0,0.0,0.0,0.0,0.0,0.0,0.0,0.0,0.0,0.0,0.0,1.3386,1.31,1.3105,1.3087,1.3709,1.5102,1.6553,1.7326,1.7326,1.7326,1.7326,1.7512,1.9322,2.015,2.0076,2.1624,2.3105,2.4341,2.5251,2.658,2.8096,2.9287,2.9869,2.9856,2.9856,2.9856,2.9919,3.029,3.1616,3.3394,3.3971,3.5009,3.6043,0.0,0.0,0.0,0.0,0.0,0.0,0.0,0.0,0.0,0.0,0.0,0.0,0.0,0.0,0.0,0.0,0.0,0.0,0.0,0.0,0.0,0.0,0.0,0.0,0.0,0.0,0.0,0.0,0.0,0.0,0.0,0.0,0.0,0.0,0.0,0.0,0.0,0.0,0.0,0.5733,0.5733,0.0,0.5733,0.5733,0.5733,0.5733,0.5733,0.5733,0.5735,0.0,0.5828,0.5899,0.0,0.0,0.0,0.0,0.0,0.0,0.0,0.0,0.0,0.0,0.0,0.0,0.9131,1.0663,1.197,0.0,1.177,0.0,0.0,0.0,0.0,0.0,0.0,0.0,0.0,0.0,0.0,0.0,0.0,0.0,0.0,1.3312,1.3032,1.2751,1.3926,1.4949,1.5749,1.6714,1.7326,1.7326,1.7326,1.7692,1.8519,1.9596,2.0421,2.0808,2.19,2.3434,2.5408,2.5576,2.7093,2.9443,2.9702,3.0062,3.0469,3.0469,3.0469,3.0533,3.1035,3.2581,3.4469,3.4888,3.5681,3.6528,0.0,0.0,0.0,0.0,0.0,0.0,0.0,0.0,0.0,0.0,0.0,0.0,0.0,0.0,0.0,0.0,0.0,0.0,0.0,0.0,0.0,0.0,0.0,0.0,0.0,0.0,0.0,0.0,0.0,0.0,0.0,0.0,0.0,0.0,0.0,0.0,0.0,0.0,0.5733,0.5733,0.5733,0.0,0.5733,0.5733,0.5733,0.5733,0.5733,0.5771,0.5809,0.5754,0.585,0.0,0.0,0.5945,0.5994,0.0,0.5994,0.6087,0.0,0.0,0.0,0.8449,0.0,0.0,0.0,1.1282,1.2467,1.1468,1.2063,1.2764,0.0,0.0,0.0,0.0,0.0,0.0,0.0,0.0,0.0,0.0,0.0,0.0,0.0,1.3235,1.3138,1.3217,1.4359,1.5396,1.5936,1.6872,1.7326,1.7326,1.7326,1.7785,1.8788,1.9604,2.0348,2.0988,2.203,2.3448,2.5074,2.5743,2.7149,2.9148,2.9589,3.0139,3.0607,3.0607,3.0983,3.1542,3.1611,3.2845,3.4654,3.4896,3.57,3.661,0.0,0.0,0.0,0.0,0.0,0.0,0.0,0.0,0.0,0.0,0.0,0.0,0.0,0.0,0.0,0.0,0.0,0.0,0.0,0.0,0.0,0.0,0.0,0.5455,0.0,0.0,0.0,0.0,0.0,0.0,0.0,0.0,0.0,0.0,0.0,0.0,0.0,0.0,0.0,0.5676,0.0,0.5733,0.5733,0.5733,0.5733,0.5733,0.5644,0.5703,0.5769,0.57,0.0,0.6037,0.5961,0.6005,0.0,0.0,0.0,0.0,0.0,0.0,0.0,0.0,0.0,1.1272,0.0,0.0,0.0,0.0,0.0,0.0,0.0,0.0,0.0,0.0,0.0,0.0,0.0,0.0,0.0,0.0,0.0,0.0,0.0,1.3312,1.335,1.386,1.4701,1.5497,1.6218,1.6872,1.7326,1.7326,1.7326,1.7878,1.9063,1.9613,2.0348,2.1257,2.2246,2.3294,2.4413,2.5813,2.7101,2.842,2.9515,3.0279,3.0758,3.0908,3.1589,3.2561,3.2173,3.3093,3.4739,3.5051,3.5692,3.6507,0.5956,0.6115,0.0,0.0,0.0,0.0,0.0,0.0,0.0,0.0,0.0,0.0,0.0,0.0,0.0,0.0,0.0,0.0,0.601,0.0,0.0,0.0,0.0,0.0,0.5368,0.0,0.0,0.0,0.0,0.0,0.0,0.0,0.0,0.0,0.5733,0.0,0.0,0.0,0.5615,0.0,0.5687,0.5733,0.0,0.5733,0.5733,0.5644,0.5463,0.5471,0.5494,0.0,0.5634,0.5668,0.0,0.6075,0.6086,0.0,0.0,0.0,0.0,0.0,0.0,0.0,1.1848,0.0,0.0,0.0,1.2764,1.2662,0.0,0.0,0.0,0.0,0.0,0.0,0.0,0.0,0.0,0.0,0.0,0.0,0.0,0.0,0.0,0.0,1.3835,1.4677,1.5147,1.5879,1.697,1.725,1.7326,1.7326,1.7326,1.8141,2.0051,1.9977,2.0709,2.2255,2.2514,2.3294,2.4413,2.5813,2.7101,2.8496,2.9935,3.0833,3.1429,3.1955,3.2561,3.3171,3.2917,3.3861,3.5415,3.6318,3.6615,3.6567,0.594,0.5979,0.0,0.0,0.0,0.0,0.0,0.0,0.0,0.0,0.0,0.0,0.0,0.0,0.0,0.0,0.0,0.5978,0.0,0.0,0.0,0.0,0.0,0.0,0.0,0.0,0.0,0.0,0.5708,0.0,0.0,0.0,0.0,0.0,0.5733,0.0,0.5559,0.0,0.5621,0.0,0.0,0.0,0.0,0.5733,0.5687,0.5562,0.5287,0.5235,0.5398,0.0,0.5641,0.0,0.0,0.0,0.0,0.0,0.0,0.0,0.0,0.0,0.0,0.0,0.0,0.0,1.2662,0.0,1.2764,0.0,0.0,0.0,0.0,0.0,0.0,0.0,0.0,0.0,0.0,0.0,0.0,0.0,0.0,0.0,0.0,0.0,0.0,0.0,0.0,1.6147,1.7326,1.7535,1.7434,1.7326,1.7326,1.8234,2.0141,1.9886,2.0619,2.2432,2.2676,2.3084,2.3635,2.5789,2.7071,2.7675,2.9694,3.0908,3.1516,3.2114,3.2789,3.3312,3.3716,3.4218,3.4918,3.5792,3.629,3.6565,0.5758,0.0,0.0,0.0,0.0,0.0,0.0,0.0,0.0,0.0,0.0,0.0,0.6505,0.6344,0.0,0.0,0.5978,0.5857,0.0,0.0,0.5733,0.5733,0.5733,0.0,0.0,0.0,0.0,0.0,0.0,0.0,0.0,0.0,0.0,0.0,0.0,0.5599,0.5491,0.0,0.0,0.5485,0.5556,0.551,0.551,0.5602,0.5582,0.5405,0.5153,0.5117,0.5295,0.533,0.5572,0.0,0.5896,0.0,0.0,0.0,0.0,0.0,0.9308,0.0,0.0,0.0,0.0,0.0,0.0,0.0,0.0,0.0,0.0,0.0,0.0,0.0,0.0,0.0,0.0,0.0,0.0,0.0,0.0,0.0,0.0,0.0,0.0,0.0,0.0,1.53,1.5766,1.6462,1.7637,1.768,1.7628,1.7426,1.7606,1.8519,2.0059,1.9985,2.0747,2.2514,2.2845,2.307,2.3265,2.5831,2.7073,2.7421,2.9817,3.1206,3.1809,3.2417,3.2874,3.3382,3.4005,3.4278,3.4496,3.5436,3.6004,3.622,0.5485,0.5962,0.0,0.0,0.0,0.0,0.0,0.0,0.0,0.0,0.0,0.0,0.0,0.0,0.0,0.0,0.0,0.5727,0.5727,0.0,0.5733,0.5733,0.5733,0.5733,0.0,0.0,0.0,0.0,0.0,0.0,0.0,0.0,0.0,0.0,0.0,0.5555,0.5384,0.5491,0.5415,0.5313,0.5206,0.5163,0.5165,0.0,0.542,0.5242,0.5147,0.0,0.0,0.5315,0.5379,0.0,0.0,0.0,0.0,0.0,0.0,0.0,0.0,0.0,0.0,1.2559,0.0,0.0,0.0,0.0,1.2764,0.0,0.0,0.0,0.0,0.0,0.0,0.0,0.0,0.0,0.0,0.0,0.0,0.0,0.0,0.0,0.0,0.0,0.0,1.5647,1.6012,1.6756,1.7978,1.7807,1.7721,1.7721,1.8342,1.9155,1.9894,2.0628,2.1502,2.266,2.2869,2.3213,2.3656,2.5983,2.7285,2.7988,3.0411,3.1809,3.2417,3.3016,3.3255,3.3312,3.3701,3.4059,3.4554,3.5941,3.5926,3.5309,0.0,0.0,0.0,0.0,0.0,0.0,0.0,0.6172,0.0,0.0,0.0,0.0,0.0,0.6101,0.6036,0.0,0.0,0.5733,0.5733,0.5733,0.0,0.0,0.0,0.5733,0.0,0.0,0.0,0.0,0.0,0.0,0.0,0.0,0.0,0.0,0.0,0.5549,0.0,0.0,0.0,0.0,0.0,0.5227,0.5183,0.0,0.0,0.5253,0.505,0.5022,0.0,0.5218,0.5326,0.5595,0.6469,0.6815,0.7126,0.7942,0.8921,0.0,0.0,0.0,1.1354,1.2504,0.0,0.0,0.0,0.0,0.0,0.0,0.0,0.0,0.0,0.0,0.0,0.0,0.0,0.0,0.0,0.0,0.0,0.0,0.0,0.0,0.0,0.0,0.0,1.5929,1.6578,1.7298,0.0,1.8094,1.7908,1.7729,1.8434,1.9247,2.0059,2.0799,2.1757,2.2988,2.3104,2.345,2.3946,2.606,2.7468,2.8313,3.0555,3.1809,3.2417,3.3016,3.3326,3.3382,3.3991,3.4243,3.4366,3.5141,3.5704,3.615,0.6182,0.0,0.0,0.0,0.0,0.0,0.0,0.0,0.0,0.0,0.6169,0.0,0.6169,0.0,0.5997,0.0,0.5858,0.5776,0.5735,0.5812,0.0,0.5795,0.5836,0.0,0.0,0.0,0.0,0.0,0.0,0.5733,0.0,0.0,0.0,0.0,0.0,0.5543,0.5213,0.0,0.5298,0.0,0.0,0.5548,0.0,0.0,0.5521,0.525,0.0,0.5682,0.5755,0.6285,0.6491,0.676,0.7547,0.789,0.8183,0.8958,0.9925,1.0874,1.1102,1.1383,0.0,1.2602,1.2262,0.0,1.2662,0.0,0.0,0.0,0.0,0.0,0.0,0.0,0.0,0.0,0.0,0.0,0.0,0.0,0.0,0.0,0.0,0.0,0.0,0.0,1.4285,1.6167,1.6742,1.7405,0.0,0.0,1.7994,1.7729,1.8703,1.9513,2.0059,2.1248,2.2293,2.3164,2.3267,2.361,2.4259,2.6352,2.7766,2.87,3.0869,3.2187,3.2717,3.3171,3.3326,3.3382,3.3922,3.4215,3.4286,3.4827,3.5446,3.5974,0.6984,0.0,0.0,0.0,0.5905,0.0,0.0,0.0,0.5733,0.0,0.5733,0.5733,0.5733,0.5822,0.5822,0.5733,0.5921,0.5938,0.5827,0.6034,0.0,0.0,0.6007,0.6013,0.5896,0.0,0.0,0.0,0.0,0.0,0.0,0.0,0.0,0.0,0.5749,0.0,0.5068,0.5272,0.5298,0.5223,0.5424,0.5945,0.6592,0.6951,0.0,0.5437,0.6489,0.6804,0.7032,0.8223,0.8592,0.8615,0.8852,0.9128,0.9304,0.9358,1.0228,1.1162,1.1246,1.198,1.278,1.2764,0.0,0.0,0.0,0.0,1.2764,0.0,0.0,0.0,0.0,0.0,0.0,0.0,0.0,0.0,0.0,0.0,0.0,0.0,0.0,0.0,0.0,1.246,1.3596,1.6344,1.656,1.7138,0.0,0.0,0.0,1.7815,1.9338,2.015,1.9977,2.1891,2.2962,2.3314,2.3325,2.382,2.4737,2.6918,2.8386,2.9323,3.1468,3.2717,3.3326,3.3326,3.3326,3.3326,3.3716,3.3987,3.4355,3.5049,3.5112,3.492,0.7075,0.6298,0.5676,0.0,0.5753,0.5786,0.0,0.0,0.0,0.0,0.6349,0.6438,0.5733,0.6962,0.7489,0.6789,0.7439,0.0,0.0,0.0,0.0,0.6751,0.6164,0.5809,0.5776,0.5776,0.0,0.5733,0.0,0.0,0.5733,0.0,0.0,0.0,0.0,0.0,0.5594,0.5596,0.5795,0.6124,0.6469,0.7152,0.0,0.0,0.8169,0.7923,0.8247,0.8356,0.8362,0.8726,0.8849,0.8948,0.9745,1.0019,1.0269,1.1141,1.1672,1.1996,1.2289,1.2532,1.2694,1.2807,1.2764,1.2764,0.0,0.0,0.0,0.0,0.0,0.0,0.0,0.0,0.0,0.0,0.0,0.0,0.0,0.0,0.0,0.0,0.0,0.0,1.1871,1.2751,1.4147,1.6104,1.6791,1.746,0.0,0.0,0.0,1.8827,1.9704,2.0512,2.1239,2.2422,2.3368,2.4122,2.3979,2.4416,2.5532,2.738,2.8687,2.9644,3.1569,3.2717,3.3326,3.3326,3.3326,3.3382,3.4005,3.4505,3.4961,3.5062,3.531,3.5556,0.8281,0.0,0.0,0.6966,0.0,0.0,0.6349,0.0,0.0,0.6349,0.6789,0.0,0.5891,0.6697,0.7171,0.6694,0.7211,0.0,0.7427,0.0,0.0,0.7428,0.6938,0.6824,0.7158,0.7154,0.0,0.6349,0.0,0.0,0.5806,0.0,0.0,0.0,0.0,0.5984,0.5667,0.5435,0.593,0.6766,0.697,0.0,0.0,0.9584,0.9918,1.023,1.0309,1.0012,0.9671,1.0031,1.0218,1.0313,1.0856,1.1037,1.1107,1.1849,1.2098,1.2151,1.2432,1.2569,1.2641,1.2797,1.2764,1.2764,1.2764,1.2764,1.2764,0.0,0.0,0.0,0.0,0.0,0.0,0.0,0.0,0.0,0.0,0.0,0.0,0.0,1.117,0.0,1.1253,1.2893,1.4539,1.5803,1.6875,1.7704,0.0,0.0,0.0,1.8988,1.9795,2.0683,2.1695,2.294,2.3846,2.4373,2.457,2.5153,2.596,2.7928,2.9189,2.9834,3.1928,3.3016,3.3326,3.3326,3.3282,3.3368,3.4006,3.4524,3.4927,3.4961,3.5377,3.5798,0.9767,0.0,0.0,0.0,0.0,0.0,0.0,0.7228,0.0,0.7166,0.0,0.7221,0.6459,0.6563,0.6703,0.6729,0.0,0.696,0.6655,0.676,0.7027,0.777,0.7794,0.8039,0.8711,0.8796,0.8283,0.0,0.0,0.0,0.0,0.0,0.0,0.0,0.0,0.0,0.0,0.5643,0.6283,0.7546,0.7578,0.8815,1.0613,1.0791,1.1291,1.1841,1.203,1.1451,1.0678,1.1562,1.1817,1.1817,1.1817,1.1817,1.1779,1.188,1.1917,1.1974,1.2335,1.2467,1.2467,1.2759,1.2764,1.2764,1.2764,1.2764,1.2764,1.2764,1.2764,0.0,0.0,0.0,0.0,0.0,0.0,0.0,0.0,0.0,0.0,0.0,0.0,0.0,0.0,1.2837,1.4568,1.5376,1.6821,1.7792,0.0,0.0,0.0,0.0,1.9778,0.0,2.1872,0.0,2.4291,2.4469,2.5147,2.5728,2.628,2.8548,2.9691,3.005,3.2304,3.3326,3.3326,3.3326,3.3346,3.3383,3.3887,3.4279,3.4606,3.4906,3.5463,3.5993,0.8894,0.0,0.0,0.0,0.0,0.8544,0.9331,0.8105,0.7183,0.7392,0.8759,0.9457,0.8721,1.0035,1.0697,0.9899,1.0589,0.0,0.0,0.0,0.0,0.7617,0.6798,0.6504,0.6649,0.7305,0.7563,0.0,0.0,0.0,0.0,0.0,0.0,0.0,0.0,0.0,0.816,0.8037,0.0,0.9621,0.9903,1.0696,1.158,1.1787,1.1824,1.1822,1.186,1.1765,1.1553,1.1723,1.1817,1.1817,1.1817,1.1817,1.1779,1.188,1.2023,1.2274,1.234,1.2565,1.2759,1.2764,1.2764,1.2764,1.2764,1.2764,1.2764,1.2764,1.2764,1.2764,1.2764,0.0,0.0,0.0,0.0,0.0,0.0,0.0,0.0,0.0,0.0,0.0,0.0,0.0,0.0,0.0,1.66,1.7792,0.0,0.0,0.0,0.0,0.0,0.0,0.0,0.0,0.0,2.5072,2.5565,2.6157,2.6837,2.908,3.0024,3.005,3.2519,3.3466,3.3326,3.3326,3.3468,3.377,3.4017,3.4279,3.467,3.5364,3.6125,3.6602,0.0,0.0,0.0,0.0,0.0,0.0,0.0,0.9473,0.0,0.8984,0.9795,1.0113,0.937,1.0148,1.057,1.0105,1.0496,1.0596,1.0023,0.964,0.9348,0.9248,0.8855,0.0,0.8934,0.9399,0.9453,0.8796,0.0,0.0,0.0,0.0,0.0,0.0,0.0,0.8717,0.0,0.0,0.0,1.042,1.0505,1.1082,1.1983,1.1978,1.1846,1.1661,1.1661,1.159,1.151,1.1624,1.1661,1.1642,1.1529,1.1496,1.1477,1.1577,1.1746,1.192,1.2109,1.237,1.2662,1.2764,1.2764,1.2764,1.2764,1.2764,1.2764,1.2764,1.2764,1.2764,1.2667,1.2383,0.0,0.0,0.0,0.0,0.0,0.0,0.0,0.0,0.0,0.0,0.0,0.0,0.0,0.0,0.0,0.0,0.0,0.0,0.0,0.0,0.0,0.0,0.0,0.0,0.0,2.52,2.6124,2.6814,2.7287,2.9349,3.0224,3.0398,3.2552,3.3396,3.3269,3.3327,3.3375,3.3458,3.3912,3.4158,3.4378,3.543,3.6189,3.6645,0.0,1.1337,0.0,0.0,1.0929,0.0,1.059,1.0861,1.0842,1.0496,1.0799,1.0796,1.014,1.0162,1.0127,1.0284,1.0297,1.0199,0.9998,0.9899,1.0096,1.0489,1.064,1.0785,1.0957,1.1303,1.1028,0.0,0.0,0.0,0.0,0.0,0.0,0.0,0.0,0.0,0.0,0.0,0.9892,1.0874,1.0736,1.119,1.1987,1.1817,1.1628,1.1449,1.1449,1.134,1.1222,1.1392,1.1449,1.142,1.125,1.1194,1.1194,1.1194,1.1389,1.1688,1.1883,1.2175,1.2467,1.2764,1.2764,1.2764,1.2764,1.2764,1.2764,1.2764,1.2764,1.2662,1.237,1.2467,0.0,0.0,0.0,0.0,0.0,0.0,0.0,0.0,0.0,0.0,0.0,0.0,0.0,0.0,0.0,1.8458,1.8087,1.8087,0.0,0.0,0.0,2.1221,2.3309,0.0,2.5285,0.0,2.6633,2.7347,2.7693,2.9568,3.0481,3.0695,3.2582,3.3381,3.3279,3.3332,3.323,3.3186,3.3719,3.4046,3.4239,3.5365,3.6172,3.6713,0.0,0.0,0.0,0.0,0.0,0.0,0.0,1.1941,1.189,1.101,1.1696,1.2278,1.2506,1.2431,1.2441,1.2467,1.2467,1.2068,1.1077,1.1072,1.0583,0.941,0.9327,0.9324,0.9095,0.9809,1.0199,0.0,0.0,0.0,0.0,0.0,0.0,0.0,0.0,0.0,0.0,1.153,1.1544,1.1666,1.1643,1.1634,1.1576,1.1553,1.1416,1.1227,1.1227,1.1212,1.1198,1.1217,1.1227,1.1222,1.1203,1.1194,1.1194,1.1194,1.1389,1.1688,1.1883,1.2175,1.2467,1.2764,1.2764,1.2764,1.2764,1.2764,1.2764,1.2764,1.257,1.237,1.2078,1.1883,1.1678,0.0,0.0,0.0,0.0,0.0,0.0,0.0,0.0,0.0,0.0,0.0,0.0,0.0,0.0,1.7908,1.8087,1.7908,1.8535,2.0141,0.0,2.148,2.4069,2.485,0.0,2.6113,2.688,2.7347,2.7693,2.982,3.0737,3.0695,3.2877,3.3607,3.3332,3.3321,3.3203,3.3142,3.3471,3.4042,3.4775,3.5462,3.6307,3.7186,0.0,0.0,0.0,0.0,0.0,0.0,0.0,1.2373,1.2528,1.2133,1.2427,1.2657,1.2754,1.2764,1.2764,1.2764,1.2764,1.2662,1.2165,1.197,1.158,1.089,1.0816,1.0626,1.0212,1.0626,1.0929,0.0,0.0,0.0,0.0,0.0,0.0,0.0,0.0,1.1399,1.1817,1.1817,1.1817,1.1808,1.1685,1.159,1.1505,1.1373,1.1269,1.1194,1.1194,1.1194,1.1217,1.1345,1.1302,1.1194,1.1194,1.1194,1.1194,1.1194,1.1389,1.1585,1.1688,1.2078,1.2467,1.2565,1.2667,1.2764,1.2764,1.2764,1.2764,1.2764,1.2565,1.2273,1.1883,1.1785,1.1688,0.0,0.0,0.0,0.0,0.0,0.0,0.0,0.0,1.2441,0.0,0.0,0.0,0.0,0.0,1.8009,1.7613,1.8265,1.908,2.0141,0.0,2.212,2.4155,2.485,2.5527,2.6196,2.688,2.7411,2.7878,2.9742,3.1303,3.2458,3.3189,3.346,3.3296,3.3291,3.3169,3.3008,3.3332,3.3969,3.4734,3.5428,3.6357,3.7219,1.1271,0.0,1.1336,0.0,1.1831,1.213,1.2326,1.2657,1.2764,1.2764,1.2764,1.2764,1.2764,1.2764,1.2764,1.2764,1.2764,1.2797,1.2769,1.2578,1.2407,1.2073,1.2028,0.0,1.1383,1.1529,1.1529,1.1378,1.1378,0.0,0.0,0.0,0.0,0.0,1.1549,1.1649,1.1907,1.1846,1.1784,1.1713,1.1505,1.1425,1.1406,1.125,1.1194,1.1203,1.1269,1.1288,1.1321,1.1534,1.1505,1.1378,1.1378,1.1378,1.1378,1.1378,1.1477,1.1662,1.1702,1.1978,1.2258,1.2288,1.2467,1.2565,1.2565,1.2565,1.2565,1.2467,1.2273,1.1975,1.159,1.1683,1.1683,1.1292,0.0,0.0,0.0,0.0,0.0,0.0,1.1868,1.2732,1.4172,0.0,0.0,0.0,0.0,0.0,1.752,1.8535,0.0,0.0,0.0,0.0,0.0,2.4935,2.5622,2.6539,2.6974,2.7451,2.7974,2.9822,3.1768,3.3622,3.3478,3.3343,3.3254,3.3221,3.3121,3.292,3.3161,3.3794,3.4617,3.5116,3.6108,3.7127,1.1223,1.1172,1.1331,1.1541,1.1775,1.2073,1.2365,1.2662,1.2764,1.2764,1.2764,1.2764,1.2764,1.2764,1.2764,1.2764,1.2764,1.2769,1.2709,1.272,1.2516,0.0,0.0,1.2019,1.1808,1.1813,1.1813,1.1808,0.0,0.0,1.1813,0.0,1.1056,1.2037,1.1138,1.1225,1.2124,1.1907,1.1704,1.1505,1.1288,1.1198,1.1198,1.1194,1.1194,1.1222,1.1439,1.1515,1.1543,1.1746,1.1813,1.1808,1.1808,1.1808,1.1808,1.1808,1.1808,1.1765,1.187,1.1917,1.1964,1.2036,1.198,1.198,1.198,1.198,1.1883,1.1683,1.159,1.1492,1.1292,1.1194,1.1194,1.1194,0.0,0.0,0.0,0.0,0.0,0.0,1.0019,1.0797,1.2533,0.0,0.0,0.0,0.0,0.0,0.0,0.0,0.0,2.0141,2.115,0.0,2.52,2.52,2.5874,2.7149,2.7231,2.7451,2.7949,3.0186,3.2047,3.3594,3.3568,3.3396,3.3096,3.3107,3.3005,3.2858,3.2718,3.3473,3.4659,3.4479,3.5532,3.6949,1.125,1.1196,1.1312,1.1575,1.1683,1.1835,1.2287,1.2417,1.2568,1.292,1.2941,1.3047,1.3249,1.2958,1.2764,0.0,1.2662,1.2499,0.0,1.2185,1.192,1.179,1.1591,1.1492,1.1392,1.1392,1.1392,1.1392,0.0,0.0,0.0,1.1677,1.1709,1.2143,1.1773,1.1718,1.1713,1.1642,1.1491,1.1293,1.1222,1.1194,1.1208,1.1359,1.1416,1.1439,1.1647,1.1723,1.1756,1.1964,1.2039,1.2058,1.22,1.2044,1.1817,1.1817,1.1817,1.1803,1.184,1.1827,1.1903,1.1934,1.1998,1.198,1.198,1.198,1.1883,1.1688,1.1585,1.1487,1.1292,1.1194,1.1194,1.1194,0.0,0.0,0.0,0.0,0.0,0.0,1.264,1.3607,0.0,1.514,0.0,0.0,0.0,0.0,0.0,0.0,0.0,0.0,2.1695,0.0,2.52,2.502,2.5695,2.7219,2.7413,2.8071,2.9157,3.0392,3.1646,3.278,3.322,3.3306,3.3238,3.3146,3.3005,3.2897,3.3102,3.3763,3.4711,3.4856,3.5706,3.6758,1.1268,1.1194,1.1292,1.1585,1.1658,1.186,1.2204,1.2496,1.2699,1.2936,1.3059,1.327,1.3475,1.3211,0.0,1.3034,1.2934,1.2767,1.2751,1.2274,1.1969,1.1952,1.1573,1.143,1.143,0.0,0.0,1.1553,1.1685,1.1846,1.202,1.202,1.202,1.202,1.202,1.1831,1.152,1.152,1.1439,1.1316,1.1316,1.1364,1.1444,1.1576,1.1628,1.1657,1.1865,1.194,1.1968,1.2181,1.2252,1.2276,1.2398,1.2261,1.2049,1.2049,1.2049,1.2035,1.1959,1.1949,1.1937,1.1856,1.1873,1.1811,1.1811,1.1811,1.1836,1.1715,1.1667,1.1514,1.1316,1.125,1.1194,1.1194,0.0,1.1096,1.0703,0.0,0.0,0.0,0.0,0.0,0.0,1.5343,0.0,0.0,0.0,0.0,0.0,0.0,0.0,2.0232,2.1882,0.0,2.52,2.4925,2.56,2.7219,2.7574,2.8434,2.9717,3.0228,3.118,3.2361,3.2623,3.293,3.3125,3.2998,3.2973,3.3118,3.3282,3.3886,3.4753,3.4982,3.5648,3.6491,1.1292,1.1194,0.0,0.0,1.1781,0.0,1.2264,1.2746,1.2982,1.3003,1.3318,1.3529,1.3529,1.3529,1.3529,1.3529,0.0,0.0,0.0,1.2863,1.2635,1.2644,1.2135,0.0,1.1817,1.2016,1.2124,1.2139,1.2139,1.2044,1.186,1.186,1.185,1.1841,1.1841,1.1728,1.1539,1.1539,1.1539,1.1539,1.1539,1.1652,1.1817,1.1836,1.1841,1.1869,1.2082,1.2157,1.2191,1.2375,1.2441,1.2441,1.2441,1.2441,1.2441,1.2441,1.2441,1.2398,1.2214,1.2148,1.2091,1.1888,1.169,1.1539,1.1539,1.1539,1.159,1.1779,1.1666,1.1539,1.1539,1.1373,1.1236,1.1315,1.1315,1.111,1.0685,0.0,0.0,0.0,0.0,0.0,0.0,1.4376,1.5038,0.0,0.0,0.0,0.0,0.0,2.0232,2.0322,2.1971,2.3657,2.52,2.5009,2.5652,2.7267,2.7712,2.8477,2.9598,2.9753,3.0637,3.2124,3.1928,3.2297,3.2897,3.2703,3.2942,3.3387,3.3303,3.3903,3.4833,3.4864,3.5407,3.6122,0.0,0.0,1.1246,1.1516,1.1687,1.2035,1.2472,1.2765,1.3167,1.3459,1.3586,1.3693,1.3693,1.3693,1.3592,1.3372,1.3054,1.2771,1.2822,1.257,1.2467,1.2625,1.2575,1.2339,1.2235,1.2185,1.2187,1.2139,1.2139,1.2191,1.2295,1.2295,1.2209,1.2063,1.2063,1.1945,1.1746,1.1746,1.1746,1.1746,1.1746,1.1775,1.1836,1.2002,1.2063,1.2091,1.2295,1.237,1.2375,1.2422,1.2441,1.2441,1.2441,1.2441,1.2441,1.2441,1.2441,1.2427,1.238,1.2257,1.2129,1.2077,1.1902,1.1746,1.1746,1.1746,1.1761,1.1808,1.1779,1.1746,1.1746,1.1704,1.1817,1.2448,1.2422,1.2397,1.2427,1.3625,0.0,0.0,1.4565,1.5644,1.573,1.554,1.5825,0.0,0.0,0.0,0.0,0.0,2.0512,2.1329,2.2755,2.4069,2.52,2.5421,2.6334,2.7753,2.7853,2.8222,2.8876,2.9319,3.0193,3.125,3.1526,3.2223,3.3058,3.2703,3.2942,3.3439,3.3716,3.4219,3.488,3.5379,3.5711,3.5905,1.1292,1.1194,1.126,1.1482,1.1798,1.2182,1.2519,1.2966,1.3388,1.3624,1.3753,1.3753,1.3753,1.3645,1.3423,1.3098,1.2986,1.2951,1.2951,1.2651,1.2496,1.2601,1.2393,1.2235,1.2024,1.2125,1.213,1.2139,1.2139,1.2143,1.2157,1.2157,1.2096,1.1992,1.1992,1.1926,1.1817,1.1817,1.1874,1.1964,1.1964,1.202,1.2115,1.2233,1.2276,1.229,1.2398,1.2441,1.2441,1.2441,1.2441,1.2441,1.2441,1.2441,1.2441,1.2441,1.2441,1.2441,1.2441,1.2361,1.2257,1.2162,1.2049,1.1964,1.1964,1.1964,1.1992,1.2082,1.203,1.1964,1.1964,1.219,1.249,1.2972,1.3463,1.3785,1.3788,1.4905,0.0,1.4884,1.5871,1.6535,1.6588,1.6211,1.6298,1.6979,0.0,0.0,1.933,2.0331,2.115,2.1695,2.3096,2.4231,2.52,2.6117,2.7023,2.7875,2.7986,2.8196,2.8471,2.9197,2.9981,3.0837,3.1331,3.2063,3.3005,3.2648,3.298,3.3681,3.3935,3.4529,3.5316,3.5667,3.5861,3.5993,1.1292,1.1194,1.1274,1.152,1.2016,1.2427,1.2684,1.3306,1.3753,1.3753,1.3753,1.364,1.364,1.3423,1.3098,1.2881,1.2989,1.3207,1.3207,1.2822,1.2617,1.2723,1.2221,1.2016,1.2016,1.2091,1.2186,1.2186,1.2186,1.2091,1.1912,1.1912,1.1912,1.1912,1.1912,1.1912,1.1912,1.1912,1.2016,1.2186,1.2186,1.2285,1.2441,1.2441,1.2441,1.2441,1.2441,1.2441,1.2441,1.2441,1.2441,1.2441,1.2441,1.2441,1.2441,1.2441,1.2441,1.2441,1.2441,1.2441,1.2398,1.2228,1.2186,1.2186,1.2186,1.2186,1.2233,1.2403,1.2304,1.2186,1.2186,1.276,1.3236,1.3404,1.4536,1.5251,1.5139,0.0,1.6557,1.6386,1.6729,1.7008,1.7283,1.6816,1.6809,1.7494,1.7976,0.0,0.0,2.1275,2.1784,2.205,2.3357,2.4498,2.5454,2.6908,2.7697,2.7863,2.8119,2.8249,2.8314,2.9102,2.9897,3.0704,3.1168,3.1973,3.2897,3.2633,3.3108,3.4036,3.4136,3.4833,3.5817,3.5861,3.5993,3.6225,1.1198,1.1194,1.1316,1.1704,1.2211,1.2789,1.3096,1.3732,1.4083,1.4083,1.3862,1.364,1.3423,1.3098,1.2881,1.255,1.255,1.2659,1.2989,1.2852,1.294,1.3156,1.3121,1.2994,1.2778,1.2488,1.2394,1.2394,1.2394,1.2375,1.2342,1.2342,1.2342,1.2342,1.2342,1.2342,1.2342,1.2342,1.2361,1.2394,1.2394,1.2413,1.2441,1.2441,1.2441,1.2441,1.2441,1.2441,1.2441,1.2441,1.2441,1.2441,1.2441,1.2441,1.2441,1.2441,1.2441,1.2441,1.2441,1.2441,1.2432,1.2398,1.2394,1.2394,1.2394,1.2394,1.2403,1.2432,1.2413,1.2394,1.2394,1.3004,1.3875,1.4619,1.5688,1.6612,1.6995,0.0,1.8357,1.7735,1.8304,1.8671,1.8544,1.8446,1.8731,1.9693,1.9597,2.0154,2.1907,2.1788,2.2315,2.38,2.4584,2.5611,2.6891,2.7328,2.7697,2.7863,2.8119,2.8249,2.8287,2.8926,2.9755,3.0734,3.1102,3.1898,3.2897,3.3156,3.3527,3.4036,3.4625,3.5224,3.5817,3.6036,3.6165,3.6225,1.1194,1.1194,1.1293,1.1605,1.2265,1.2764,1.2879,1.346,1.3867,1.3753,1.3428,1.3207,1.3098,1.2767,1.255,1.2441,1.2441,1.2441,1.2659,1.2659,1.2659,1.2767,1.2767,1.2767,1.2659,1.2441,1.2441,1.2441,1.2441,1.2441,1.2441,1.2441,1.2441,1.2441,1.2441,1.2441,1.2441,1.2441,1.2441,1.2441,1.2441,1.2441,1.2441,1.2441,1.2441,1.2441,1.2441,1.2441,1.2441,1.2441,1.2441,1.2441,1.2441,1.2441,1.2441,1.2441,1.2441,1.2441,1.2441,1.2441,1.2441,1.2441,1.2441,1.2441,1.2441,1.2441,1.2441,1.2441,1.2441,1.2545,1.2975,1.3835,1.4657,1.5605,1.6717,0.0,0.0,1.889,1.9205,1.9155,1.9272,1.9275,1.9184,1.889,1.9177,2.0249,2.0462,2.1113,2.2199,2.2668,2.3271,2.4166,2.5179,2.6207,2.7149,2.7567,2.7841,2.7863,2.8157,2.8226,2.8197,2.9224,3.0015,3.0616,3.1545,3.2311,3.2951,3.3245,3.3681,3.4153,3.4769,3.5407,3.6036,3.6122,3.6208,3.6276,1.1194,1.1194,1.126,1.1482,1.2098,1.2625,1.2644,1.3179,1.3532,1.3315,1.3098,1.2881,1.2881,1.255,1.2441,1.2441,1.2441,1.2441,1.2441,1.2441,1.2441,1.2441,1.2441,1.2441,1.2441,1.2441,1.2441,1.2441,1.2441,1.2441,1.2441,1.2441,1.2441,1.2441,1.2441,1.2441,1.2441,1.2441,1.2441,1.2441,1.2441,1.2441,1.2441,1.2441,1.2441,1.2441,1.2441,1.2441,1.2441,1.2441,1.2441,1.2441,1.2441,1.2441,1.2441,1.2441,1.2441,1.2441,1.2441,1.2441,1.2441,1.2441,1.2441,1.2441,1.2441,1.2479,1.2498,1.245,1.2479,1.2716,1.3521,1.4369,1.5334,1.6187,0.0,0.0,0.0,1.9375,1.9712,2.0319,2.0016,1.9818,1.9818,1.9422,1.9605,2.0883,2.1366,2.1907,2.264,2.3376,2.393,2.4348,2.5516,2.6539,2.7231,2.7697,2.7875,2.7936,2.8155,2.83,2.8341,2.9656,3.0378,3.069,3.209,3.2819,3.3096,3.3507,3.3969,3.4447,3.5068,3.565,3.6208,3.6208,3.6276,3.6301,1.1194,1.1194,1.126,1.1482,1.1996,1.2417,1.2539,1.3071,1.3315,1.3315,1.3098,1.2881,1.2881,1.255,1.2441,1.2441,1.2441,1.2441,1.2441,1.2441,1.2441,1.2441,1.2441,1.2441,1.2441,1.2441,1.2441,1.2441,1.2441,1.2441,1.2441,1.2441,1.2441,1.2441,1.2441,1.2441,1.2441,1.2441,1.2441,1.2441,1.2441,1.2441,1.2441,1.2441,1.2441,1.2441,1.2441,1.2441,1.2441,1.2441,1.2441,1.2441,1.2441,1.2441,1.2441,1.2441,1.2441,1.2441,1.2441,1.2441,1.2441,1.2441,1.2441,1.2441,1.2441,1.2597,1.2687,1.2484,1.2602,1.301,1.3552,1.4369,1.5334,1.6187,0.0,0.0,1.9235,1.9723,2.0215,2.0743,2.0845,2.0845,2.0845,2.0538,2.1143,2.2941,2.2591,2.2706,2.3942,2.364,2.3831,2.4765,2.5684,2.6539,2.7231,2.7697,2.7875,2.7936,2.8155,2.856,2.9035,2.987,3.0615,3.1362,3.2404,3.3197,3.3694,3.4251,3.4673,3.5021,3.58,3.6122,3.6225,3.6276,3.6301,3.6301,1.1194,1.1194,1.1222,1.1302,1.1904,1.2265,1.2139,1.2656,1.2989,1.2767,1.2659,1.255,1.255,1.2441,1.2441,1.2441,1.2441,1.2441,1.2441,1.2441,1.2441,1.2441,1.2441,1.2441,1.2441,1.2441,1.2441,1.2441,1.2441,1.2441,1.2441,1.2441,1.2441,1.2441,1.2441,1.2441,1.2441,1.2441,1.2441,1.2441,1.2441,1.2441,1.2441,1.2441,1.2441,1.2441,1.2441,1.2441,1.246,1.2597,1.2644,1.2663,1.2786,1.2828,1.2828,1.2828,1.2743,1.2673,1.2795,1.2639,1.2441,1.2441,1.2545,1.2644,1.2644,1.2805,1.2895,1.2687,1.3145,1.3794,1.4412,1.5227,1.608,1.6942,0.0,1.8639,1.9168,1.9783,2.0292,2.0814,2.0925,2.0822,2.0617,2.1019,2.1725,2.2929,2.3269,2.3791,2.4656,2.4867,2.5138,2.5611,2.6456,2.7059,2.7455,2.7753,2.7931,2.7946,2.8091,2.8444,2.8944,2.9518,3.0346,3.142,3.2216,3.3049,3.3815,3.4382,3.4864,3.5299,3.5932,3.6208,3.6276,3.6301,3.6301,3.6343,1.1194,1.1194,1.1194,1.1194,1.1745,1.2029,1.1817,1.2385,1.2659,1.2436,1.2441,1.2441,1.2441,1.2441,1.2441,1.2441,1.2441,1.2441,1.2441,1.2441,1.2441,1.2441,1.2441,1.2441,1.2441,1.2441,1.2441,1.2441,1.2441,1.2441,1.2441,1.2441,1.2441,1.2441,1.2441,1.2441,1.2441,1.2441,1.2441,1.2441,1.2441,1.2441,1.2441,1.2441,1.2441,1.2441,1.2441,1.2441,1.2474,1.2696,1.2767,1.2805,1.3003,1.3065,1.3065,1.3065,1.297,1.289,1.3032,1.2857,1.2639,1.2639,1.2748,1.2862,1.2862,1.3022,1.3203,1.3262,1.3811,1.4425,1.5398,1.5974,1.6617,1.7687,1.8213,1.8632,1.9472,1.9879,2.0292,2.0814,2.0925,2.0822,2.0522,2.1224,2.2021,2.282,2.3701,2.4356,2.508,2.5516,2.583,2.603,2.6798,2.7369,2.7657,2.7854,2.7902,2.8001,2.8079,2.8444,2.9107,2.9518,3.0421,3.1736,3.2342,3.314,3.4086,3.448,3.5052,3.5677,3.6062,3.6276,3.6301,3.6301,3.6301,3.6343,1.1194,1.1194,1.1194,1.1194,1.1539,1.1817,1.1817,1.2172,1.2441,1.2441,1.2441,1.2441,1.2441,1.2441,1.2441,1.2441,1.2441,1.2441,1.2441,1.2441,1.2441,1.2441,1.2441,1.2441,1.2441,1.2441,1.2441,1.2441,1.2441,1.2441,1.2441,1.2441,1.2441,1.2441,1.2441,1.2441,1.2441,1.2441,1.2441,1.2441,1.2441,1.2441,1.2441,1.2441,1.2441,1.2441,1.2441,1.2441,1.2474,1.2696,1.2772,1.2805,1.3008,1.3069,1.3069,1.3069,1.3069,1.3069,1.3069,1.3069,1.3069,1.3065,1.3069,1.3069,1.3069,1.3235,1.3616,1.4394,1.4479,1.4836,1.6404,1.6511,1.6717,1.8213,1.8422,1.8833,1.9975,2.0078,2.0292,2.0814,2.0925,2.0822,2.0514,2.1224,2.2013,2.2894,2.3692,2.4418,2.5107,2.5351,2.5571,2.5841,2.6704,2.7408,2.7888,2.7875,2.7889,2.7988,2.8079,2.8702,2.9808,2.9964,3.0911,3.2398,3.2773,3.3523,3.4625,3.4769,3.5362,3.6225,3.6259,3.6301,3.6301,3.6301,3.6301,3.6343,1.1194,1.1194,1.1194,1.1194,1.1539,1.1817,1.1817,1.2172,1.2441,1.2441,1.2441,1.2441,1.2441,1.2441,1.2441,1.2441,1.2441,1.2441,1.2441,1.2441,1.2441,1.2441,1.2441,1.2441,1.2441,1.2441,1.2441,1.2441,1.2441,1.2441,1.2441,1.2441,1.2441,1.2441,1.2441,1.2441,1.2441,1.2441,1.2441,1.2441,1.2441,1.2441,1.2441,1.2441,1.2441,1.2441,1.2441,1.2441,1.2493,1.2857,1.2975,1.3041,1.3391,1.3504,1.3504,1.3504,1.34,1.3325,1.3466,1.34,1.3258,1.3102,1.3183,1.3291,1.3291,1.3452,1.3829,1.4524,1.5041,1.5501,1.6511,1.6942,1.747,1.8318,1.8743,1.9264,1.9983,2.0395,2.0712,2.0925,2.0719,2.0822,2.1318,2.203,2.292,2.3692,2.4707,2.5513,2.6007,2.6188,2.6357,2.6738,2.7254,2.7649,2.7888,2.7741,2.7797,2.8053,2.8446,2.8917,2.958,3.0375,3.1319,3.2453,3.3108,3.3919,3.4769,3.5191,3.5722,3.6259,3.6301,3.6301,3.6301,3.6301,3.6402,3.6585,1.1194,1.1194,1.1194,1.1194,1.1539,1.1817,1.1817,1.2172,1.2441,1.2441,1.2441,1.2441,1.2441,1.2441,1.2441,1.2441,1.2441,1.2441,1.2441,1.2441,1.2441,1.2441,1.2441,1.2441,1.2441,1.2441,1.2441,1.2441,1.2441,1.2441,1.2441,1.2441,1.2441,1.2441,1.2332,1.2223,1.2223,1.2223,1.2223,1.2223,1.2332,1.2441,1.2441,1.2441,1.2441,1.2441,1.2441,1.2441,1.2493,1.2833,1.306,1.324,1.349,1.3622,1.3688,1.3688,1.3603,1.3532,1.3655,1.3599,1.3476,1.3343,1.341,1.3509,1.3509,1.3774,1.429,1.5183,1.5692,1.627,1.7025,1.7582,1.8108,1.8632,1.9264,1.9783,2.0292,2.0712,2.1019,2.1326,2.1224,2.142,2.2114,2.302,2.3827,2.4707,2.5401,2.6084,2.6457,2.6772,2.7041,2.7172,2.7419,2.7721,2.7888,2.7761,2.7787,2.8079,2.856,2.903,2.9504,3.054,3.1564,3.2547,3.3287,3.4103,3.4927,3.5391,3.5898,3.6301,3.6301,3.6301,3.6301,3.6402,3.6544,3.6742,1.1194,1.1194,1.1194,1.1194,1.1539,1.1817,1.1817,1.2172,1.2441,1.2441,1.2441,1.2441,1.2441,1.2441,1.2441,1.2441,1.2441,1.2441,1.2441,1.2441,1.2441,1.2441,1.2441,1.2441,1.2441,1.2441,1.2441,1.2441,1.2441,1.2441,1.2441,1.2332,1.2332,1.2327,1.2114,1.2005,1.2005,1.2005,1.2005,1.2005,1.2223,1.2332,1.2332,1.2436,1.2441,1.2441,1.2441,1.2441,1.2474,1.2696,1.3032,1.3367,1.3386,1.3514,1.3665,1.3684,1.3688,1.3688,1.3688,1.3688,1.3688,1.3688,1.3803,1.3918,1.3784,1.4222,1.505,1.6055,1.6465,1.6971,1.8034,1.8359,1.8646,1.9316,1.9798,2.0292,2.0814,2.0917,2.1326,2.2021,2.2123,2.2417,2.2994,2.4016,2.4932,2.5732,2.5945,2.6202,2.6547,2.7172,2.7439,2.7183,2.7451,2.7736,2.7888,2.7741,2.7841,2.8079,2.8624,2.9093,2.9566,3.06,3.1664,3.2641,3.3391,3.4202,3.5021,3.5481,3.5898,3.6301,3.6301,3.6301,3.636,3.6602,3.6742,3.6806,1.1194,1.1194,1.1194,1.1194,1.1539,1.1817,1.1817,1.2172,1.2441,1.2441,1.2441,1.2441,1.2441,1.2441,1.2441,1.2441,1.2441,1.2441,1.2441,1.2441,1.2441,1.2441,1.2441,1.2441,1.2441,1.2441,1.2441,1.2441,1.2441,1.2441,1.2441,1.2219,1.2114,1.2114,1.1787,1.1678,1.1678,1.1678,1.1678,1.1678,1.2005,1.2114,1.2114,1.2332,1.2441,1.2441,1.2441,1.2441,1.2474,1.2696,1.2932,1.3164,1.3334,1.3419,1.3485,1.3646,1.3688,1.3688,1.3688,1.3688,1.3688,1.3688,1.4624,1.5279,1.4652,1.458,1.5281,1.7502,1.723,1.7303,1.9664,1.9177,1.8814,2.0121,2.0157,2.0292,2.0814,2.142,2.1928,2.2123,2.2426,2.312,2.4026,2.4932,2.582,2.6572,2.6344,2.6455,2.7337,2.7107,2.7059,2.7172,2.7613,2.7792,2.768,2.7872,2.8067,2.8079,2.898,2.938,2.9566,3.1304,3.2256,3.2695,3.3969,3.4721,3.5068,3.5837,3.6216,3.6301,3.6301,3.6444,3.6602,3.6702,3.6886,3.7182,1.1194,1.1194,1.1194,1.1194,1.1539,1.1817,1.1817,1.2172,1.2441,1.2441,1.2441,1.2441,1.2441,1.2441,1.2441,1.2441,1.2441,1.2441,1.2441,1.2441,1.2441,1.2441,1.2441,1.2441,1.2441,1.2441,1.2441,1.2441,1.2441,1.2332,1.2223,1.2114,1.1896,1.1787,1.1459,1.135,1.135,1.135,1.135,1.135,1.1678,1.1787,1.1787,1.2005,1.2114,1.2223,1.2223,1.2332,1.2455,1.2573,1.2753,1.2947,1.3055,1.323,1.341,1.3514,1.3613,1.3688,1.3688,1.3688,1.3808,1.4043,1.5095,1.5875,1.5413,1.6107,1.7242,1.8572,1.8527,1.8816,2.0186,1.9927,1.9753,2.0453,2.0516,2.0704,2.142,2.1818,2.2426,2.3129,2.3529,2.4026,2.4932,2.5616,2.6187,2.686,2.689,2.7072,2.7602,2.745,2.7349,2.7357,2.7726,2.7836,2.7801,2.8035,2.8197,2.8444,2.9156,2.969,3.0011,3.1721,3.2695,3.3039,3.4366,3.5068,3.5453,3.6028,3.6301,3.6301,3.6301,3.6444,3.6702,3.6806,3.7105,3.7447,1.1194,1.1194,1.1194,1.1194,1.151,1.1779,1.1813,1.2143,1.2398,1.2436,1.2441,1.2441,1.2441,1.2441,1.2441,1.2441,1.2441,1.2441,1.2441,1.2441,1.2441,1.2441,1.2441,1.2441,1.2441,1.2441,1.2441,1.2441,1.2327,1.2223,1.2005,1.1891,1.1782,1.1459,1.1131,1.1021,1.1021,1.1021,1.1021,1.1017,1.1345,1.1459,1.1568,1.1568,1.1787,1.1896,1.1896,1.2137,1.2279,1.2316,1.2557,1.2707,1.2707,1.2941,1.3222,1.3377,1.3509,1.3646,1.3679,1.3688,1.3923,1.4624,1.5677,1.6492,1.6721,1.8148,1.9323,1.9668,1.9986,2.0361,2.0691,2.068,2.0605,2.0772,2.0971,2.1326,2.203,2.2325,2.3029,2.4332,2.4637,2.4941,2.5635,2.5994,2.6446,2.704,2.7455,2.7697,2.7766,2.7822,2.7743,2.7639,2.7729,2.7915,2.7945,2.8012,2.8314,2.8917,2.9331,2.9827,3.0569,3.1962,3.2895,3.3443,3.4512,3.5299,3.5827,3.6174,3.6301,3.6301,3.6343,3.6544,3.6766,3.7027,3.7317,3.7577,1.1194,1.1194,1.1194,1.1194,1.1397,1.1619,1.1789,1.2025,1.2243,1.2417,1.2441,1.2441,1.2441,1.2441,1.2441,1.2441,1.2441,1.2441,1.2441,1.2441,1.2441,1.2441,1.2441,1.2441,1.2441,1.2441,1.2441,1.2441,1.2223,1.2005,1.2005,1.1455,1.1236,1.1126,1.0911,1.0802,1.0802,1.0802,1.0802,1.0802,1.1017,1.1131,1.1236,1.1459,1.1568,1.1678,1.1678,1.1788,1.1957,1.2121,1.2196,1.2219,1.2566,1.2717,1.28,1.3217,1.341,1.3466,1.3641,1.3688,1.4038,1.544,1.6956,1.8474,1.9747,1.9649,1.9668,2.1041,2.0781,2.0823,2.2313,2.1542,2.0894,2.1731,2.1859,2.203,2.2123,2.3329,2.4233,2.443,2.5137,2.5538,2.5645,2.639,2.7136,2.7809,2.7724,2.7899,2.8528,2.7744,2.7371,2.7627,2.7604,2.7638,2.7748,2.7798,2.8338,2.9393,2.9442,2.9827,3.0569,3.1962,3.2895,3.3443,3.4512,3.5299,3.5827,3.6174,3.6301,3.6301,3.6561,3.6748,3.6987,3.7392,3.754,3.7577,1.1194,1.1194,1.1194,1.1194,1.1373,1.1586,1.1789,1.2002,1.2214,1.2413,1.2441,1.2441,1.2441,1.2441,1.2441,1.2441,1.2441,1.2441,1.2441,1.2441,1.2441,1.2441,1.2223,1.2223,1.2223,1.2005,1.2005,1.2005,1.2001,1.1787,1.1455,1.1236,1.1017,1.0911,1.0802,1.0692,1.0692,1.0692,1.0692,1.0692,1.0802,1.0911,1.0911,1.1021,1.124,1.1362,1.1581,1.1788,1.1777,1.2078,1.2139,1.2139,1.2259,1.2449,1.2561,1.2772,1.299,1.3333,1.3421,1.3836,1.4452,1.5492,1.7329,1.9172,2.0217,2.0925,2.1527,2.2224,2.21,2.2085,2.2846,2.2088,2.1668,2.256,2.2403,2.2426,2.3329,2.4026,2.4637,2.5137,2.544,2.5927,2.6294,2.7051,2.7799,2.856,2.8388,2.8355,2.87,2.7894,2.7555,2.7753,2.7798,2.7838,2.7915,2.8225,2.8712,2.9504,2.9889,3.0555,3.148,3.2312,3.3198,3.4087,3.4816,3.5481,3.6088,3.6259,3.6301,3.6343,3.6602,3.6886,3.722,3.7466,3.7577,3.7577]}]]